[[{"header":{"parameterUnit":"m.s-1","parameterCategory":1,"la1":31.0,"la2":29.5877,"lo1":-88.7671,"lo2":-86.6584,"dy":0.0162,"dx":0.0185,"nx":115,"ny":88,"refTime":"2024-07-19T18:00:00:Z","depth":0,"parameterNumber":2,"parameterNumberName":"U-component_of_WINDS"},"data":[0.0,0.0,0.0,0.0,0.0,0.0,0.0,0.0,0.0,0.0,0.0,0.0,0.0,0.0,0.0,0.0,0.0,0.0,0.0,0.0,0.0,0.0,0.0,0.0,0.0,0.0,0.0,0.0,0.0,0.0,0.0,0.0,0.0,0.0,0.0,0.0,0.0,0.0,0.0,0.0,0.0,0.0,0.0,0.0,0.0,0.0,0.0,0.0,0.0,0.0,0.0,0.0,0.0,0.0,0.0,0.0,0.0,0.0,0.0,0.0,0.0,0.0,0.0,0.0,0.0,0.0,0.0,0.0,0.0,0.0,0.0,0.0,0.0,0.0,0.0,0.0,0.0,0.0,0.0,0.0,0.0,0.0,0.0,0.0,0.0,0.0,0.0,0.0,0.0,0.0,0.0,0.0,0.0,0.0,0.0,0.0,0.0,0.0,0.0,0.0,0.0,0.0,0.0,0.0,0.0,0.0,0.0,0.0,0.0,0.0,0.0,0.0,0.0,0.0,0.0,0.0,0.0,0.0,0.0,0.0,0.0,0.0,0.0,0.0,0.0,0.0,0.0,0.0,0.0,0.0,0.0,0.0,0.0,0.0,0.0,0.0,0.0,0.0,0.0,0.0,0.0,0.0,0.0,0.0,0.0,0.0,0.0,0.0,0.0,0.0,0.0,0.0,0.0,0.0,0.0,0.0,0.0,0.0,0.0,0.0,0.0,0.0,0.0,0.0,0.0,0.0,0.0,0.0,0.0,0.0,0.0,0.0,0.0,0.0,0.0,0.0,0.0,0.0,0.0,0.0,0.0,0.0,0.0,0.0,0.0,0.0,0.0,0.0,0.0,0.0,0.0,0.0,0.0,0.0,0.0,0.0,0.0,0.0,0.0,0.0,0.0,0.0,0.0,0.0,0.0,0.0,0.0,0.0,0.0,0.0,0.0,0.0,0.0,0.0,0.0,0.0,0.0,0.0,0.0,0.0,0.0,0.0,0.0,0.0,0.0,0.0,0.0,0.0,0.0,0.0,0.0,0.0,0.0,0.0,0.0,0.0,0.0,0.0,0.0,0.0,0.0,0.0,0.0,0.0,0.0,0.0,0.0,0.0,0.0,0.0,0.0,0.0,0.0,0.0,0.0,0.0,0.0,0.0,0.0,0.0,0.0,0.0,0.0,0.0,0.0,0.0,0.0,0.0,0.0,0.0,0.0,0.0,0.0,0.0,0.0,0.0,0.0,0.0,0.0,0.0,0.0,0.0,0.0,0.0,0.0,0.0,0.0,0.0,0.0,0.0,0.0,0.0,0.0,0.0,0.0,0.0,0.0,0.0,0.0,0.0,0.0,0.0,0.0,0.0,0.0,0.0,0.0,0.0,0.0,0.0,0.0,0.0,0.0,0.0,0.0,0.0,0.0,0.0,0.0,0.0,0.0,0.0,0.0,0.0,0.0,0.0,0.0,0.0,0.0,0.0,0.0,0.0,0.0,0.0,0.0,0.0,0.0,0.0,0.0,0.0,0.0,0.0,0.0,0.0,0.0,0.0,0.0,0.0,0.0,0.0,0.0,0.0,0.0,0.0,0.0,0.0,0.0,0.0,0.0,0.0,0.0,0.0,0.0,0.0,0.0,0.0,0.0,0.0,0.0,0.0,0.0,0.0,0.0,0.0,0.0,0.0,0.0,0.0,0.0,0.0,0.0,0.0,0.0,0.0,0.0,0.0,0.0,0.0,0.0,0.0,0.0,0.0,0.0,0.0,0.0,0.0,0.0,0.0,0.0,0.0,0.0,0.0,0.0,0.0,0.0,0.0,0.0,0.0,0.0,0.0,0.0,0.0,0.0,0.0,0.0,0.0,0.0,0.0,0.0,0.0,0.0,0.0,0.0,0.0,0.0,0.0,0.0,0.0,0.0,0.0,0.0,0.0,0.0,0.0,0.0,0.0,0.0,0.0,0.0,0.0,0.0,0.0,0.0,0.0,0.0,0.0,0.0,0.0,0.0,0.0,0.0,0.0,0.0,0.0,0.0,0.0,0.0,0.0,0.0,0.0,0.0,0.0,0.0,0.0,0.0,0.0,0.0,0.0,0.0,0.0,0.0,0.0,0.0,0.0,0.0,0.0,0.0,0.0,0.0,0.0,0.0,0.0,0.0,0.0,0.0,0.0,0.0,0.0,0.0,0.0,0.0,0.0,0.0,0.0,0.0,0.0,0.0,0.0,0.0,0.0,0.0,0.0,0.0,0.0,0.0,0.0,0.0,0.0,0.0,0.0,0.0,0.0,0.0,0.0,0.0,0.0,0.0,0.0,0.0,0.0,0.0,0.0,0.0,0.0,0.0,0.0,0.0,0.0,0.0,0.0,0.0,0.0,0.0,0.0,0.0,0.0,0.0,0.0,0.0,0.0,0.0,0.0,0.0,0.0,0.0,0.0,0.0,0.0,0.0,0.0,0.0,0.0,0.0,0.0,0.0,0.0,0.0,0.0,0.0,0.0,0.0,0.0,0.0,0.0,0.0,0.0,0.0,0.0,0.0,0.0,0.0,0.0,0.0,0.0,0.0,0.0,0.0,0.0,0.0,0.0,0.0,0.0,0.0,0.0,0.0,0.0,0.0,0.0,0.0,0.0,0.0,0.0,0.0,0.0,0.0,0.0,0.0,0.0,0.0,0.0,0.0,0.0,0.0,0.0,0.0,0.0,0.0,0.0,0.0,0.0,0.0,0.0,0.0,0.0,0.0,0.0,0.0,0.0,0.0,0.0,0.0,0.0,0.0,0.0,0.0,0.0,0.0,0.0,0.0,0.0,0.0,0.0,0.0,0.0,0.0,0.0,0.0,0.0,0.0,0.0,0.0,0.0,0.0,0.0,0.0,0.0,0.0,0.0,0.0,0.0,0.0,0.0,0.0,0.0,0.0,0.0,0.0,0.0,0.0,0.0,0.0,0.0,0.0,0.0,0.0,0.0,0.0,0.0,0.0,0.0,0.0,0.0,0.0,0.0,0.0,0.0,0.0,0.0,0.0,0.0,0.0,0.0,0.0,0.0,0.0,0.0,0.0,0.0,0.0,0.0,0.0,0.0,0.0,0.0,0.0,0.0,0.0,0.0,0.0,0.0,0.0,0.0,0.0,0.0,0.0,0.0,0.0,0.0,0.0,0.0,0.0,0.0,0.0,0.0,0.0,0.0,0.0,0.0,0.0,0.0,0.0,0.0,0.0,0.0,0.0,0.0,0.0,0.0,0.0,0.0,0.0,0.0,0.0,0.0,0.0,0.0,0.0,0.0,0.0,0.0,0.0,0.0,0.0,0.0,0.0,0.0,0.0,0.0,0.0,0.0,0.0,0.0,0.0,0.0,0.0,0.0,0.0,0.0,0.0,0.0,0.0,0.0,0.0,0.0,0.0,0.0,0.0,0.0,0.0,0.0,0.0,0.0,0.0,0.0,0.0,0.0,0.0,0.0,0.0,0.0,0.0,0.0,0.0,0.0,0.0,0.0,0.0,0.0,0.0,0.0,0.0,0.0,0.0,0.0,0.0,0.0,0.0,0.0,0.0,0.0,0.0,0.0,0.0,0.0,0.0,0.0,0.0,0.0,0.0,0.0,0.0,0.0,0.0,0.0,0.0,0.0,0.0,0.0,0.0,0.0,0.0,0.0,0.0,0.0,0.0,0.0,0.0,0.0,0.0,0.0,0.0,0.0,0.0,0.0,0.0,0.0,0.0,0.0,0.0,0.0,0.0,0.0,0.0,0.0,0.0,0.0,0.0,0.0,0.0,0.0,0.0,0.0,0.0,0.0,0.0,0.0,0.0,0.0,0.0,0.0,0.0,0.0,0.0,0.0,0.0,0.0,0.0,0.0,0.0,0.0,0.0,0.0,0.0,0.0,0.0,0.0,0.0,0.0,0.0,0.0,0.0,0.0,0.0,0.0,0.0,0.0,0.0,0.0,0.0,0.0,0.0,0.0,0.0,0.0,0.0,0.0,0.0,0.0,0.0,0.0,0.0,0.0,0.0,0.0,0.0,0.0,0.0,0.0,0.0,0.0,0.0,0.0,0.0,0.0,0.0,0.0,0.0,0.0,0.0,0.0,0.0,0.0,0.0,0.0,0.0,0.0,0.0,0.0,0.0,0.0,0.0,0.0,0.0,0.0,0.0,0.0,0.0,0.0,0.0,0.0,0.0,0.0,0.0,0.0,0.0,0.0,0.0,0.0,0.0,0.0,0.0,0.0,0.0,0.0,0.0,0.0,0.0,0.0,0.0,0.0,0.0,0.0,0.0,0.0,0.0,0.0,-2.0184,0.0,0.0,0.0,0.0,0.0,0.0,0.0,0.0,0.0,0.0,0.0,0.0,0.0,0.0,0.0,0.0,0.0,0.0,0.0,0.0,0.0,0.0,0.0,0.0,0.0,0.0,0.0,0.0,0.0,0.0,0.0,0.0,0.0,0.0,0.0,0.0,0.0,0.0,0.0,0.0,0.0,0.0,0.0,0.0,0.0,0.0,0.0,0.0,0.0,0.0,0.0,0.0,0.0,0.0,0.0,0.0,0.0,0.0,0.0,0.0,0.0,0.0,0.0,0.0,0.0,0.0,0.0,0.0,0.0,0.0,0.0,0.0,0.0,0.0,0.0,0.0,0.0,0.0,0.0,0.0,0.0,0.0,0.0,0.0,0.0,0.0,0.0,0.0,0.0,0.0,0.0,0.0,0.0,0.0,0.0,0.0,0.0,0.0,0.0,0.0,0.0,0.0,0.0,0.0,0.0,0.0,0.0,0.0,0.0,0.0,-2.0218,-2.0264,-2.0218,-2.0195,-2.0195,0.0,0.0,0.0,0.0,0.0,0.0,0.0,0.0,0.0,0.0,0.0,0.0,0.0,0.0,0.0,0.0,0.0,0.0,0.0,0.0,0.0,0.0,0.0,0.0,0.0,0.0,0.0,0.0,0.0,0.0,0.0,0.0,0.0,0.0,0.0,0.0,0.0,0.0,0.0,0.0,0.0,0.0,0.0,0.0,0.0,0.0,0.0,0.0,0.0,0.0,0.0,0.0,0.0,0.0,0.0,0.0,0.0,0.0,0.0,0.0,0.0,0.0,0.0,0.0,0.0,0.0,0.0,0.0,0.0,0.0,0.0,0.0,0.0,0.0,0.0,0.0,0.0,0.0,0.0,0.0,0.0,0.0,0.0,0.0,0.0,0.0,0.0,0.0,0.0,0.0,0.0,0.0,0.0,0.0,0.0,0.0,0.0,0.0,0.0,0.0,0.0,0.0,0.0,0.0,0.0,0.0,0.0,0.0,0.0,0.0,0.0,0.0,-2.0238,-2.0211,-2.0211,0.0,0.0,0.0,0.0,0.0,0.0,0.0,0.0,0.0,0.0,0.0,0.0,0.0,0.0,0.0,0.0,0.0,0.0,0.0,0.0,0.0,0.0,0.0,0.0,0.0,0.0,0.0,0.0,0.0,0.0,0.0,0.0,0.0,0.0,0.0,0.0,0.0,0.0,0.0,0.0,0.0,0.0,0.0,0.0,0.0,0.0,0.0,0.0,0.0,0.0,0.0,0.0,0.0,0.0,0.0,0.0,0.0,0.0,0.0,0.0,0.0,0.0,0.0,0.0,0.0,0.0,0.0,0.0,0.0,0.0,0.0,0.0,0.0,0.0,0.0,0.0,0.0,0.0,0.0,0.0,0.0,0.0,0.0,0.0,0.0,0.0,0.0,0.0,0.0,0.0,0.0,0.0,0.0,0.0,0.0,0.0,0.0,0.0,0.0,0.0,0.0,0.0,0.0,0.0,0.0,0.0,0.0,0.0,0.0,0.0,-2.0288,-2.0288,-2.0288,0.0,-2.0153,0.0,0.0,0.0,0.0,0.0,0.0,0.0,0.0,0.0,0.0,0.0,0.0,0.0,0.0,0.0,0.0,0.0,0.0,0.0,0.0,0.0,0.0,0.0,0.0,0.0,0.0,0.0,0.0,0.0,0.0,0.0,0.0,0.0,0.0,0.0,0.0,0.0,0.0,0.0,0.0,0.0,0.0,0.0,0.0,0.0,0.0,0.0,0.0,0.0,0.0,0.0,0.0,0.0,0.0,0.0,0.0,0.0,0.0,0.0,0.0,0.0,0.0,0.0,0.0,0.0,0.0,0.0,0.0,0.0,0.0,0.0,0.0,0.0,0.0,0.0,0.0,0.0,0.0,0.0,0.0,0.0,0.0,0.0,0.0,0.0,0.0,0.0,0.0,0.0,0.0,0.0,0.0,0.0,0.0,0.0,0.0,0.0,0.0,0.0,0.0,0.0,0.0,0.0,0.0,0.0,0.0,0.0,0.0,0.0,0.0,-2.0288,-2.0288,-2.0288,-2.0038,0.0,0.0,0.0,0.0,0.0,0.0,0.0,0.0,0.0,0.0,0.0,0.0,0.0,0.0,0.0,0.0,0.0,0.0,0.0,0.0,0.0,0.0,0.0,0.0,0.0,0.0,0.0,0.0,0.0,0.0,0.0,0.0,0.0,0.0,0.0,0.0,0.0,0.0,0.0,0.0,0.0,0.0,0.0,0.0,0.0,0.0,0.0,0.0,0.0,0.0,0.0,0.0,0.0,0.0,0.0,0.0,0.0,0.0,0.0,0.0,0.0,0.0,0.0,0.0,0.0,0.0,0.0,0.0,0.0,0.0,0.0,0.0,0.0,0.0,0.0,0.0,0.0,0.0,0.0,0.0,0.0,0.0,0.0,0.0,0.0,0.0,0.0,0.0,0.0,0.0,0.0,0.0,0.0,0.0,0.0,0.0,0.0,0.0,0.0,0.0,0.0,0.0,0.0,0.0,0.0,0.0,0.0,0.0,0.0,0.0,-2.0288,-2.0288,-2.0288,-2.0288,-1.9869,-1.9034,0.0,0.0,0.0,0.0,0.0,0.0,0.0,0.0,0.0,0.0,0.0,0.0,0.0,0.0,0.0,0.0,0.0,0.0,0.0,0.0,0.0,0.0,0.0,0.0,0.0,0.0,0.0,0.0,0.0,0.0,0.0,0.0,0.0,0.0,0.0,0.0,0.0,0.0,0.0,0.0,0.0,0.0,0.0,0.0,0.0,0.0,0.0,0.0,0.0,0.0,0.0,0.0,0.0,0.0,0.0,0.0,0.0,0.0,0.0,0.0,0.0,0.0,0.0,0.0,0.0,0.0,0.0,0.0,0.0,0.0,0.0,0.0,0.0,0.0,0.0,0.0,0.0,0.0,0.0,0.0,0.0,0.0,0.0,0.0,0.0,0.0,0.0,0.0,0.0,0.0,0.0,0.0,0.0,0.0,0.0,0.0,0.0,0.0,0.0,0.0,0.0,0.0,0.0,0.0,0.0,0.0,0.0,0.0,0.0,-2.0288,-2.0288,-2.0327,-2.0288,-1.9888,0.0,0.0,0.0,0.0,0.0,0.0,0.0,0.0,0.0,0.0,0.0,0.0,0.0,0.0,0.0,0.0,0.0,0.0,0.0,0.0,0.0,0.0,0.0,0.0,0.0,0.0,0.0,0.0,0.0,0.0,0.0,0.0,0.0,0.0,0.0,0.0,0.0,0.0,0.0,0.0,0.0,0.0,0.0,0.0,0.0,0.0,0.0,0.0,0.0,0.0,0.0,0.0,0.0,0.0,0.0,0.0,0.0,0.0,0.0,0.0,0.0,0.0,0.0,0.0,0.0,0.0,0.0,0.0,0.0,0.0,0.0,0.0,0.0,0.0,0.0,0.0,0.0,0.0,0.0,0.0,0.0,0.0,0.0,0.0,0.0,0.0,0.0,0.0,0.0,0.0,0.0,0.0,0.0,0.0,0.0,0.0,0.0,0.0,0.0,0.0,0.0,0.0,0.0,0.0,0.0,0.0,0.0,0.0,0.0,-2.0288,-2.0288,-2.0558,-2.1019,-2.0577,-1.9619,0.0,0.0,0.0,0.0,0.0,0.0,0.0,0.0,0.0,0.0,0.0,0.0,0.0,0.0,0.0,0.0,0.0,0.0,0.0,0.0,0.0,0.0,0.0,0.0,0.0,0.0,0.0,0.0,0.0,0.0,0.0,0.0,0.0,0.0,0.0,0.0,0.0,0.0,0.0,0.0,0.0,0.0,0.0,0.0,0.0,0.0,0.0,0.0,0.0,0.0,0.0,0.0,0.0,0.0,0.0,0.0,0.0,0.0,0.0,0.0,0.0,0.0,0.0,0.0,0.0,0.0,0.0,0.0,0.0,0.0,0.0,0.0,0.0,0.0,0.0,0.0,0.0,0.0,0.0,0.0,0.0,0.0,0.0,0.0,0.0,0.0,0.0,0.0,0.0,0.0,0.0,0.0,0.0,0.0,0.0,0.0,0.0,0.0,0.0,0.0,0.0,0.0,0.0,0.0,0.0,0.0,0.0,0.0,0.0,-2.0673,0.0,-2.1235,0.0,-2.0962,-1.9888,0.0,0.0,0.0,0.0,0.0,0.0,0.0,0.0,0.0,0.0,0.0,0.0,0.0,0.0,0.0,0.0,0.0,0.0,0.0,0.0,0.0,0.0,0.0,0.0,0.0,0.0,0.0,0.0,0.0,0.0,0.0,0.0,0.0,0.0,0.0,0.0,0.0,0.0,0.0,0.0,0.0,0.0,0.0,0.0,0.0,0.0,0.0,0.0,0.0,0.0,0.0,0.0,0.0,0.0,0.0,0.0,0.0,0.0,0.0,0.0,0.0,0.0,0.0,0.0,0.0,0.0,0.0,0.0,0.0,0.0,0.0,0.0,0.0,0.0,0.0,0.0,0.0,0.0,0.0,0.0,0.0,0.0,0.0,0.0,0.0,0.0,0.0,0.0,0.0,0.0,0.0,0.0,0.0,0.0,0.0,0.0,0.0,0.0,0.0,0.0,0.0,0.0,0.0,0.0,0.0,0.0,0.0,0.0,-2.0731,-2.1504,-2.2316,-2.2355,-2.1558,-2.1504,-2.0696,0.0,0.0,0.0,0.0,0.0,0.0,0.0,0.0,0.0,0.0,0.0,0.0,0.0,0.0,0.0,0.0,0.0,0.0,0.0,0.0,0.0,0.0,0.0,0.0,0.0,0.0,0.0,0.0,0.0,0.0,0.0,0.0,0.0,0.0,0.0,0.0,0.0,0.0,0.0,0.0,0.0,0.0,0.0,0.0,0.0,0.0,0.0,0.0,0.0,0.0,0.0,0.0,0.0,0.0,0.0,0.0,0.0,0.0,0.0,0.0,0.0,0.0,0.0,0.0,0.0,0.0,0.0,0.0,0.0,0.0,0.0,0.0,0.0,0.0,0.0,0.0,0.0,0.0,0.0,0.0,0.0,0.0,0.0,0.0,0.0,0.0,0.0,0.0,0.0,0.0,0.0,0.0,0.0,0.0,0.0,0.0,0.0,0.0,0.0,0.0,0.0,0.0,0.0,0.0,0.0,0.0,0.0,0.0,0.0,-2.2389,-2.2658,-2.297,-2.324,-2.212,-2.1004,0.0,0.0,0.0,0.0,0.0,0.0,0.0,0.0,0.0,0.0,0.0,0.0,0.0,0.0,0.0,0.0,0.0,0.0,0.0,0.0,0.0,0.0,0.0,0.0,0.0,0.0,0.0,0.0,0.0,0.0,0.0,0.0,0.0,0.0,0.0,0.0,0.0,0.0,0.0,0.0,0.0,0.0,0.0,0.0,0.0,0.0,0.0,0.0,0.0,0.0,0.0,0.0,0.0,0.0,0.0,0.0,0.0,0.0,0.0,0.0,0.0,0.0,0.0,0.0,0.0,0.0,0.0,0.0,0.0,0.0,0.0,0.0,0.0,0.0,0.0,0.0,0.0,0.0,0.0,0.0,0.0,0.0,0.0,0.0,0.0,0.0,0.0,0.0,0.0,0.0,0.0,0.0,0.0,0.0,0.0,0.0,0.0,0.0,0.0,0.0,0.0,0.0,0.0,0.0,0.0,0.0,0.0,0.0,0.0,-2.3753,-2.4052,-2.4312,-2.4529,-2.3485,-2.2231,-2.0808,0.0,0.0,0.0,0.0,0.0,0.0,0.0,0.0,0.0,0.0,0.0,0.0,0.0,0.0,0.0,0.0,0.0,0.0,0.0,0.0,0.0,0.0,0.0,0.0,0.0,0.0,0.0,0.0,0.0,0.0,0.0,0.0,0.0,0.0,0.0,0.0,0.0,0.0,0.0,0.0,0.0,0.0,0.0,0.0,0.0,0.0,0.0,0.0,0.0,0.0,0.0,0.0,0.0,0.0,0.0,0.0,0.0,0.0,0.0,0.0,0.0,0.0,0.0,0.0,0.0,0.0,0.0,0.0,0.0,0.0,0.0,0.0,0.0,0.0,0.0,0.0,0.0,0.0,0.0,0.0,0.0,0.0,0.0,0.0,0.0,0.0,0.0,0.0,0.0,0.0,0.0,0.0,0.0,0.0,0.0,0.0,0.0,0.0,0.0,0.0,0.0,0.0,0.0,0.0,0.0,0.0,0.0,0.0,-2.5533,-2.6328,-2.6308,-2.5495,-2.5346,-2.4154,0.0,0.0,0.0,0.0,0.0,0.0,0.0,0.0,0.0,0.0,0.0,0.0,0.0,0.0,0.0,0.0,0.0,0.0,0.0,0.0,0.0,0.0,0.0,0.0,0.0,0.0,0.0,0.0,0.0,0.0,0.0,0.0,0.0,0.0,0.0,0.0,0.0,0.0,0.0,0.0,0.0,0.0,0.0,0.0,0.0,0.0,0.0,0.0,0.0,0.0,0.0,0.0,0.0,0.0,0.0,0.0,0.0,0.0,0.0,0.0,0.0,0.0,0.0,0.0,0.0,0.0,0.0,0.0,0.0,0.0,0.0,0.0,0.0,0.0,0.0,0.0,0.0,0.0,0.0,0.0,0.0,0.0,0.0,0.0,0.0,0.0,0.0,0.0,0.0,0.0,0.0,0.0,0.0,0.0,0.0,0.0,0.0,0.0,0.0,0.0,0.0,0.0,0.0,0.0,0.0,0.0,0.0,0.0,0.0,-2.7195,-2.8041,-2.8044,-2.7236,-2.5962,-2.4712,0.0,0.0,0.0,0.0,0.0,0.0,0.0,0.0,0.0,0.0,0.0,0.0,0.0,0.0,0.0,0.0,0.0,0.0,0.0,0.0,0.0,0.0,0.0,0.0,0.0,0.0,0.0,0.0,0.0,0.0,0.0,0.0,0.0,0.0,0.0,0.0,0.0,0.0,0.0,0.0,0.0,0.0,0.0,0.0,0.0,0.0,0.0,0.0,0.0,0.0,0.0,0.0,0.0,0.0,0.0,0.0,0.0,0.0,0.0,0.0,0.0,0.0,0.0,0.0,0.0,0.0,0.0,0.0,0.0,0.0,0.0,0.0,0.0,0.0,0.0,0.0,0.0,0.0,0.0,0.0,0.0,0.0,0.0,0.0,0.0,0.0,0.0,0.0,0.0,0.0,0.0,0.0,0.0,0.0,0.0,0.0,0.0,0.0,0.0,0.0,0.0,0.0,0.0,0.0,0.0,0.0,0.0,0.0,-2.6578,-2.7923,-2.9063,-2.9421,-2.8948,-2.7294,-2.5678,0.0,0.0,0.0,0.0,0.0,0.0,0.0,0.0,0.0,0.0,0.0,0.0,0.0,0.0,0.0,0.0,0.0,0.0,0.0,0.0,0.0,0.0,0.0,0.0,0.0,0.0,0.0,0.0,0.0,0.0,0.0,0.0,0.0,0.0,0.0,0.0,0.0,0.0,0.0,0.0,0.0,0.0,0.0,0.0,0.0,0.0,0.0,0.0,0.0,0.0,0.0,0.0,0.0,0.0,0.0,0.0,0.0,0.0,0.0,0.0,0.0,0.0,0.0,0.0,0.0,0.0,0.0,0.0,0.0,0.0,0.0,0.0,0.0,0.0,0.0,0.0,0.0,0.0,0.0,0.0,0.0,0.0,0.0,0.0,0.0,0.0,0.0,0.0,0.0,0.0,0.0,0.0,0.0,0.0,0.0,0.0,0.0,0.0,0.0,0.0,0.0,0.0,0.0,0.0,0.0,0.0,0.0,0.0,-2.7245,-2.813,-2.964,-3.0406,-3.0352,-2.8775,-2.678,0.0,0.0,0.0,0.0,0.0,0.0,0.0,0.0,0.0,0.0,0.0,0.0,0.0,0.0,0.0,0.0,0.0,0.0,0.0,0.0,0.0,0.0,0.0,0.0,0.0,0.0,0.0,0.0,0.0,0.0,0.0,0.0,0.0,0.0,0.0,0.0,0.0,0.0,0.0,0.0,0.0,0.0,0.0,0.0,0.0,0.0,0.0,0.0,0.0,0.0,0.0,0.0,0.0,0.0,0.0,0.0,0.0,0.0,0.0,0.0,0.0,0.0,0.0,0.0,0.0,0.0,0.0,0.0,0.0,0.0,0.0,0.0,0.0,0.0,0.0,0.0,0.0,0.0,0.0,0.0,0.0,0.0,0.0,0.0,0.0,0.0,0.0,0.0,0.0,0.0,0.0,0.0,0.0,0.0,0.0,0.0,0.0,0.0,0.0,0.0,0.0,0.0,0.0,0.0,0.0,0.0,0.0,0.0,-2.8198,-2.8999,-2.997,-3.0458,-3.0406,-2.8772,-2.7332,0.0,0.0,0.0,0.0,0.0,0.0,0.0,0.0,0.0,0.0,0.0,0.0,0.0,0.0,0.0,0.0,0.0,0.0,0.0,0.0,0.0,0.0,0.0,0.0,0.0,0.0,0.0,0.0,0.0,0.0,0.0,0.0,0.0,0.0,0.0,0.0,0.0,0.0,0.0,0.0,0.0,0.0,0.0,0.0,0.0,0.0,0.0,0.0,-2.293,0.0,0.0,0.0,0.0,0.0,0.0,0.0,0.0,0.0,0.0,0.0,0.0,0.0,0.0,0.0,0.0,0.0,0.0,0.0,0.0,0.0,0.0,0.0,0.0,0.0,0.0,0.0,0.0,0.0,0.0,0.0,0.0,0.0,0.0,0.0,0.0,0.0,0.0,0.0,0.0,0.0,0.0,0.0,0.0,0.0,0.0,0.0,0.0,0.0,0.0,0.0,0.0,0.0,0.0,0.0,0.0,0.0,0.0,0.0,-2.8533,-2.9346,-3.0132,-3.052,-3.0397,-2.8795,-2.7493,0.0,0.0,0.0,0.0,0.0,0.0,0.0,0.0,0.0,0.0,0.0,0.0,0.0,0.0,0.0,0.0,0.0,0.0,0.0,0.0,0.0,0.0,0.0,0.0,0.0,0.0,0.0,0.0,0.0,0.0,0.0,0.0,0.0,0.0,0.0,0.0,0.0,0.0,0.0,0.0,0.0,0.0,0.0,0.0,0.0,0.0,0.0,0.0,0.0,0.0,0.0,0.0,0.0,0.0,0.0,0.0,0.0,0.0,0.0,0.0,0.0,0.0,0.0,0.0,0.0,0.0,0.0,0.0,0.0,0.0,0.0,0.0,0.0,0.0,0.0,0.0,0.0,0.0,0.0,0.0,0.0,0.0,0.0,0.0,0.0,0.0,0.0,0.0,0.0,0.0,0.0,0.0,0.0,0.0,0.0,0.0,0.0,0.0,0.0,0.0,0.0,0.0,0.0,0.0,0.0,0.0,0.0,-2.7019,-2.8674,-2.9596,-3.0261,-3.0591,-3.0477,-2.8835,-2.7504,-2.6622,0.0,0.0,0.0,0.0,0.0,0.0,0.0,0.0,0.0,0.0,0.0,0.0,0.0,0.0,0.0,0.0,0.0,0.0,0.0,0.0,0.0,0.0,0.0,0.0,0.0,0.0,0.0,0.0,0.0,0.0,0.0,0.0,0.0,0.0,0.0,0.0,0.0,0.0,-2.1951,-2.3648,0.0,0.0,0.0,0.0,0.0,0.0,0.0,0.0,-2.541,0.0,0.0,0.0,0.0,0.0,0.0,0.0,0.0,0.0,0.0,0.0,0.0,0.0,0.0,0.0,0.0,0.0,0.0,0.0,0.0,0.0,0.0,0.0,0.0,0.0,0.0,0.0,0.0,0.0,0.0,0.0,0.0,0.0,0.0,0.0,0.0,0.0,0.0,0.0,0.0,0.0,0.0,0.0,0.0,0.0,0.0,0.0,0.0,0.0,0.0,0.0,0.0,0.0,0.0,0.0,0.0,-2.6437,-2.762,-2.8974,-3.0516,-3.0646,-3.0649,-3.0554,-2.8883,-2.7576,-2.6644,0.0,0.0,0.0,0.0,0.0,0.0,0.0,0.0,0.0,0.0,0.0,0.0,0.0,0.0,0.0,0.0,0.0,0.0,0.0,0.0,0.0,0.0,0.0,0.0,0.0,0.0,0.0,0.0,0.0,0.0,0.0,0.0,0.0,0.0,0.0,0.0,0.0,0.0,0.0,-2.502,-2.6305,0.0,0.0,0.0,0.0,0.0,0.0,0.0,0.0,-2.6699,0.0,0.0,0.0,0.0,0.0,0.0,0.0,0.0,0.0,0.0,0.0,0.0,0.0,0.0,0.0,0.0,0.0,0.0,0.0,0.0,0.0,0.0,0.0,0.0,0.0,0.0,0.0,0.0,0.0,0.0,0.0,0.0,0.0,0.0,0.0,0.0,0.0,0.0,0.0,0.0,0.0,0.0,0.0,0.0,0.0,0.0,0.0,0.0,0.0,0.0,0.0,0.0,0.0,0.0,0.0,-2.6848,-2.7821,-2.9084,-3.0732,-3.0762,-3.0728,-3.061,-2.8971,-2.7635,0.0,0.0,0.0,0.0,0.0,0.0,0.0,0.0,0.0,0.0,0.0,0.0,0.0,0.0,0.0,0.0,0.0,0.0,0.0,0.0,0.0,0.0,0.0,0.0,0.0,0.0,0.0,0.0,0.0,0.0,0.0,0.0,0.0,0.0,0.0,0.0,0.0,0.0,0.0,0.0,-2.5304,-2.6798,-2.6392,0.0,0.0,0.0,0.0,0.0,0.0,-2.7674,-2.7519,0.0,0.0,0.0,0.0,0.0,0.0,0.0,0.0,0.0,0.0,0.0,0.0,0.0,0.0,0.0,0.0,0.0,0.0,0.0,0.0,0.0,0.0,0.0,0.0,0.0,0.0,0.0,0.0,0.0,0.0,0.0,0.0,0.0,0.0,0.0,0.0,0.0,0.0,0.0,0.0,0.0,0.0,0.0,0.0,0.0,0.0,0.0,0.0,0.0,0.0,0.0,0.0,0.0,0.0,0.0,-2.7193,-2.8111,-2.9301,-3.0721,-3.0785,-3.0765,-3.068,-2.904,-2.7626,0.0,0.0,0.0,0.0,0.0,0.0,0.0,0.0,0.0,0.0,0.0,0.0,0.0,0.0,0.0,0.0,0.0,0.0,0.0,0.0,0.0,0.0,0.0,0.0,0.0,0.0,0.0,0.0,0.0,0.0,0.0,0.0,0.0,0.0,0.0,0.0,0.0,0.0,0.0,0.0,0.0,-2.7076,-2.6923,-2.7157,0.0,0.0,0.0,0.0,-2.8443,-2.8546,0.0,0.0,0.0,0.0,0.0,0.0,0.0,0.0,0.0,0.0,0.0,0.0,0.0,0.0,0.0,0.0,0.0,0.0,0.0,0.0,0.0,0.0,0.0,0.0,0.0,0.0,0.0,0.0,0.0,0.0,0.0,0.0,0.0,0.0,0.0,0.0,0.0,0.0,0.0,0.0,0.0,0.0,0.0,0.0,0.0,0.0,0.0,0.0,0.0,0.0,0.0,0.0,0.0,0.0,0.0,0.0,-2.8057,-2.9016,-2.9897,-3.0736,-3.079,-3.0798,-3.0774,-2.9106,-2.7407,0.0,0.0,0.0,0.0,0.0,0.0,0.0,0.0,0.0,0.0,0.0,0.0,0.0,0.0,0.0,0.0,0.0,0.0,0.0,0.0,0.0,0.0,0.0,0.0,0.0,0.0,0.0,0.0,0.0,0.0,0.0,0.0,0.0,0.0,0.0,0.0,0.0,0.0,0.0,0.0,0.0,-2.7674,-2.6921,-2.808,-2.8832,0.0,0.0,-2.9244,-2.9346,-2.9369,0.0,0.0,0.0,0.0,0.0,0.0,0.0,0.0,0.0,0.0,0.0,0.0,0.0,0.0,0.0,0.0,0.0,0.0,0.0,0.0,0.0,0.0,0.0,0.0,0.0,0.0,0.0,0.0,0.0,0.0,0.0,0.0,0.0,0.0,0.0,0.0,0.0,0.0,0.0,0.0,0.0,0.0,0.0,0.0,0.0,0.0,0.0,0.0,0.0,0.0,0.0,0.0,0.0,0.0,0.0,-2.5694,-2.8219,-2.9158,-3.0018,-3.0818,-3.0856,-3.0852,-3.0844,-2.9177,-2.7423,0.0,0.0,0.0,0.0,0.0,0.0,0.0,0.0,0.0,0.0,0.0,0.0,0.0,0.0,0.0,0.0,0.0,0.0,0.0,0.0,0.0,0.0,0.0,0.0,0.0,0.0,0.0,0.0,0.0,0.0,0.0,0.0,0.0,0.0,0.0,0.0,0.0,0.0,0.0,0.0,0.0,0.0,-2.7531,-2.8504,0.0,0.0,0.0,-2.9602,-3.0107,0.0,0.0,0.0,0.0,0.0,0.0,0.0,0.0,0.0,0.0,0.0,0.0,0.0,0.0,0.0,0.0,0.0,0.0,0.0,0.0,0.0,0.0,0.0,0.0,0.0,0.0,0.0,0.0,0.0,0.0,0.0,0.0,0.0,0.0,0.0,0.0,0.0,0.0,0.0,0.0,0.0,0.0,0.0,0.0,0.0,0.0,0.0,0.0,0.0,0.0,0.0,0.0,0.0,0.0,0.0,0.0,0.0,-2.8261,-2.9374,-3.0253,-3.0878,-3.0917,-3.0916,-3.0876,-2.921,0.0,0.0,0.0,0.0,0.0,0.0,0.0,0.0,0.0,0.0,0.0,0.0,0.0,0.0,0.0,0.0,0.0,0.0,0.0,0.0,0.0,0.0,0.0,0.0,0.0,0.0,0.0,-1.6875,0.0,0.0,0.0,0.0,0.0,0.0,0.0,0.0,0.0,0.0,0.0,0.0,0.0,0.0,-2.8063,-2.8261,-2.9023,-2.9809,0.0,0.0,-2.9915,-3.057,-3.0662,-3.0105,0.0,0.0,0.0,0.0,0.0,0.0,0.0,0.0,0.0,0.0,0.0,0.0,0.0,0.0,0.0,0.0,0.0,0.0,0.0,0.0,0.0,0.0,0.0,0.0,0.0,0.0,0.0,0.0,0.0,0.0,0.0,0.0,0.0,0.0,0.0,0.0,0.0,0.0,0.0,0.0,0.0,0.0,0.0,0.0,0.0,0.0,0.0,0.0,0.0,0.0,0.0,0.0,0.0,0.0,-2.6483,-2.8281,-2.9961,-3.084,-3.0918,-3.0918,-3.0918,-3.0877,-2.9213,-2.7877,0.0,0.0,0.0,0.0,0.0,0.0,0.0,0.0,0.0,0.0,0.0,0.0,0.0,0.0,0.0,0.0,0.0,0.0,0.0,0.0,0.0,0.0,0.0,0.0,0.0,0.0,0.0,0.0,0.0,0.0,0.0,0.0,0.0,0.0,0.0,0.0,0.0,0.0,0.0,0.0,0.0,-2.8182,-2.9011,-2.9806,-3.0367,0.0,-3.0448,-3.0492,-3.058,-3.0613,-3.0052,-2.8372,0.0,0.0,0.0,0.0,0.0,0.0,0.0,0.0,0.0,0.0,0.0,0.0,0.0,0.0,0.0,0.0,0.0,0.0,0.0,0.0,0.0,0.0,0.0,0.0,0.0,0.0,0.0,0.0,0.0,0.0,0.0,0.0,0.0,0.0,0.0,0.0,0.0,0.0,0.0,0.0,0.0,0.0,0.0,0.0,0.0,0.0,0.0,0.0,0.0,0.0,0.0,0.0,0.0,-2.6562,-2.8281,-3.0,-3.0918,-3.0918,-3.0918,-3.0918,-3.0898,-2.9725,-2.8431,0.0,0.0,0.0,0.0,0.0,0.0,0.0,0.0,0.0,0.0,0.0,0.0,0.0,0.0,0.0,0.0,0.0,0.0,0.0,0.0,0.0,0.0,0.0,0.0,0.0,0.0,0.0,0.0,-2.041,-2.0605,-2.0605,0.0,0.0,0.0,0.0,0.0,0.0,0.0,0.0,0.0,0.0,-2.8214,-2.9022,-2.9847,0.0,0.0,-3.0485,-3.0525,-3.0545,-3.054,-3.0133,-2.8956,-2.8799,0.0,0.0,0.0,0.0,0.0,0.0,0.0,0.0,0.0,0.0,0.0,0.0,0.0,0.0,0.0,0.0,0.0,0.0,0.0,0.0,0.0,0.0,0.0,0.0,0.0,0.0,0.0,0.0,0.0,0.0,0.0,0.0,0.0,0.0,0.0,0.0,0.0,0.0,0.0,0.0,0.0,0.0,0.0,0.0,0.0,0.0,0.0,0.0,0.0,0.0,0.0,0.0,-2.6562,-2.8281,-3.0019,-3.0918,-3.0918,-3.0918,-3.0918,-3.0898,-3.0058,-2.8904,0.0,0.0,0.0,0.0,0.0,0.0,0.0,0.0,0.0,0.0,0.0,0.0,0.0,0.0,0.0,0.0,0.0,0.0,0.0,0.0,0.0,0.0,0.0,0.0,0.0,0.0,0.0,0.0,-2.0605,-2.0702,-2.0935,0.0,0.0,0.0,0.0,0.0,0.0,0.0,0.0,0.0,0.0,-2.8549,-2.9371,-3.0004,-3.04,-3.04,-3.0442,-3.0472,-3.0477,-3.0449,-3.0171,-2.9332,0.0,0.0,0.0,0.0,0.0,0.0,0.0,0.0,0.0,0.0,0.0,0.0,0.0,0.0,0.0,0.0,0.0,0.0,0.0,0.0,0.0,0.0,0.0,0.0,0.0,0.0,0.0,-2.1836,0.0,0.0,-2.0586,0.0,0.0,0.0,0.0,0.0,0.0,0.0,0.0,0.0,0.0,0.0,0.0,0.0,0.0,0.0,0.0,0.0,0.0,0.0,0.0,0.0,0.0,-2.6562,-2.8281,-3.0,-3.0918,-3.0918,-3.0918,-3.0918,-3.0898,-3.0058,-2.9178,-2.8254,0.0,0.0,0.0,0.0,0.0,0.0,0.0,0.0,0.0,0.0,0.0,0.0,0.0,0.0,0.0,0.0,0.0,0.0,0.0,0.0,0.0,0.0,0.0,0.0,0.0,0.0,-2.0641,-2.0602,-2.0932,0.0,0.0,0.0,0.0,0.0,0.0,0.0,0.0,0.0,-2.8805,-2.905,-2.9371,-3.0212,-3.0385,-3.0404,-3.0385,-3.0385,-3.039,-3.0385,-3.0385,-3.0127,0.0,0.0,0.0,0.0,0.0,0.0,0.0,0.0,0.0,0.0,0.0,0.0,0.0,0.0,0.0,0.0,0.0,0.0,0.0,0.0,0.0,0.0,0.0,0.0,0.0,0.0,0.0,-2.2948,-2.2695,0.0,0.0,0.0,0.0,0.0,0.0,0.0,0.0,0.0,0.0,0.0,-2.6582,-2.6602,0.0,0.0,0.0,0.0,0.0,0.0,0.0,0.0,0.0,0.0,0.0,0.0,-2.7129,-2.832,-3.0019,-3.0918,-3.0918,-3.0918,-3.0918,-3.0898,-3.0625,-2.9511,-2.7496,0.0,0.0,0.0,0.0,0.0,0.0,0.0,0.0,0.0,0.0,0.0,0.0,0.0,0.0,0.0,0.0,0.0,0.0,0.0,0.0,0.0,0.0,0.0,0.0,0.0,-2.1391,0.0,0.0,0.0,0.0,0.0,0.0,0.0,0.0,0.0,0.0,0.0,-2.7862,-2.8953,-2.9107,-2.9434,-3.0269,-3.0404,-3.0404,0.0,0.0,0.0,0.0,0.0,0.0,0.0,0.0,0.0,0.0,0.0,0.0,0.0,0.0,-2.692,-2.6559,-2.6491,-2.6375,-2.5971,0.0,0.0,0.0,0.0,0.0,0.0,0.0,0.0,0.0,0.0,0.0,0.0,0.0,0.0,-2.4724,-2.4432,-2.412,0.0,0.0,0.0,0.0,0.0,0.0,0.0,0.0,-2.7187,-2.7754,-2.8281,-2.8281,-2.8008,-2.748,-2.7461,-2.6582,0.0,0.0,0.0,0.0,0.0,0.0,0.0,0.0,-2.7422,-2.832,-3.0019,-3.0918,-3.0918,-3.0918,-3.0918,-3.0898,-3.0605,-2.9648,-2.7947,-2.6479,-2.4659,0.0,0.0,0.0,0.0,0.0,0.0,0.0,0.0,0.0,0.0,0.0,0.0,0.0,0.0,0.0,0.0,0.0,0.0,0.0,0.0,0.0,0.0,0.0,-2.2341,0.0,0.0,0.0,0.0,0.0,0.0,0.0,0.0,0.0,-2.7557,-2.7999,-2.8602,-2.9448,-2.9544,-2.9756,-3.0327,0.0,0.0,0.0,0.0,0.0,0.0,0.0,-3.05,-3.0808,-3.1312,-3.1786,-3.2075,-3.1682,-3.0939,-2.974,0.0,0.0,-2.7936,-2.7676,-2.763,-2.7483,-2.7665,-2.7815,-2.771,-2.7877,-2.8004,0.0,0.0,0.0,0.0,-2.701,0.0,0.0,0.0,-2.7866,-2.7731,0.0,-2.6131,0.0,0.0,0.0,0.0,-2.5742,-2.584,0.0,0.0,-2.8379,-2.8379,-2.8398,-2.8418,-2.8398,-2.8398,-2.8398,-2.8379,-2.8203,-2.5801,0.0,0.0,0.0,0.0,0.0,0.0,-2.75,-2.8398,-3.0039,-3.0918,-3.0918,-3.0918,-3.0918,-3.0898,-3.0117,-2.9648,-2.9511,-2.7186,-2.5817,-2.5681,-2.2576,0.0,0.0,0.0,0.0,0.0,0.0,0.0,0.0,0.0,0.0,0.0,0.0,0.0,0.0,0.0,0.0,0.0,0.0,0.0,0.0,-2.2578,0.0,0.0,0.0,0.0,0.0,0.0,0.0,0.0,0.0,0.0,-2.9266,-2.9201,-2.9473,-3.0327,0.0,0.0,0.0,0.0,-3.05,-3.05,-3.0481,-3.05,-3.05,-3.05,-3.0788,-3.1602,0.0,0.0,-3.2814,-3.2949,-3.2846,-3.2792,-3.2624,-3.1741,-2.8529,-2.7999,-2.788,-2.7725,-2.8285,-2.8589,-2.8585,-2.912,-2.945,-3.0879,0.0,0.0,0.0,0.0,-2.7927,-2.7944,-2.794,-2.8192,-2.8155,-2.7926,-2.7652,0.0,0.0,0.0,0.0,0.0,0.0,-2.875,-2.9258,-2.9863,-3.0156,-3.0156,-3.0156,-3.0156,-3.0156,-3.0156,-3.0156,-3.0078,-2.8789,-2.7793,-2.7187,0.0,0.0,0.0,0.0,-2.8984,-2.9277,-3.0332,-3.0918,-3.0918,-3.0918,-3.0918,-3.0918,-3.0664,-3.0234,-2.9609,-2.8886,-2.791,-2.666,-2.5097,0.0,0.0,0.0,0.0,0.0,0.0,0.0,0.0,0.0,0.0,0.0,0.0,0.0,0.0,0.0,0.0,0.0,0.0,0.0,-2.3459,-2.3712,-2.3948,0.0,0.0,0.0,0.0,0.0,0.0,0.0,0.0,0.0,-3.0831,-3.0416,-3.0352,0.0,0.0,-3.1308,-3.1327,-3.1833,-3.2199,-3.2179,-3.2179,0.0,-3.2179,-3.2179,-3.2275,-3.2506,-3.3064,-3.3571,-3.3795,-3.3795,-3.355,-3.2945,-3.2754,-3.2363,-3.1493,-3.1134,-3.1035,-3.0937,-3.1007,-3.1052,-3.1,-3.1073,-3.1095,-3.334,-3.1582,-3.125,-3.08,-3.0329,-3.0308,-3.0324,-3.0336,-3.0336,-3.0322,-3.0288,-2.9957,-2.9803,-2.9824,-2.9492,0.0,0.0,0.0,-3.0625,-3.0644,-3.1172,-3.125,-3.0918,-3.0918,-3.0918,-3.0918,-3.0918,-3.0918,-3.0879,-3.0371,-2.9844,-2.9316,0.0,-2.8281,-2.832,-2.916,-2.9609,-2.9629,-3.0449,-3.0918,-3.0918,-3.0918,-3.0918,-3.0918,-3.0918,-3.0644,-3.0137,-2.9766,-2.9121,-2.8086,-2.6875,-2.5352,0.0,0.0,0.0,0.0,0.0,0.0,0.0,0.0,0.0,0.0,0.0,-1.9565,-2.0902,0.0,0.0,0.0,-2.3273,-2.3961,-2.5074,-2.5186,0.0,0.0,0.0,0.0,0.0,0.0,0.0,-2.9612,-3.0304,-3.1214,-3.2493,-3.1923,-3.1583,-3.2102,-3.2179,-3.2179,-3.2179,0.0,-3.2891,-3.2891,-3.2891,-3.2891,-3.2891,-3.2891,-3.3006,-3.3372,-3.4122,-3.4692,-3.4679,-3.4639,-3.4405,-3.3899,-3.3723,-3.3642,-3.3536,-3.3456,-3.3118,-3.243,-3.2415,-3.2516,-3.2415,-3.2544,-3.2661,-3.5547,-3.4726,-3.3926,-3.3515,-3.3393,-3.3393,-3.3369,-3.3379,-3.3365,-3.339,-3.3335,-3.2556,-3.2245,-3.2246,-3.1445,0.0,-3.2285,-3.2305,-3.2266,-3.2285,-3.2246,-3.1777,-3.1016,-3.0937,-3.0918,-3.0918,-3.0918,-3.0918,-3.0918,-3.0898,-3.0918,-3.0859,-2.9297,-2.8516,-2.8555,-2.9297,-2.9707,-2.9726,-3.0508,-3.0918,-3.0918,-3.0918,-3.0918,-3.0918,-3.0918,-3.0898,-3.0879,-3.0137,-2.9707,-2.9648,-2.8105,-2.6797,-2.5801,0.0,0.0,0.0,0.0,0.0,0.0,0.0,0.0,0.0,0.0,0.0,0.0,0.0,0.0,0.0,-2.3924,0.0,-2.666,-2.6795,0.0,0.0,0.0,-2.8202,-2.8182,-2.9695,-3.0712,-3.07,0.0,0.0,-3.4097,-3.3513,-3.3026,-3.3103,-3.3064,-3.3006,-3.3006,-3.3103,-3.3122,-3.3218,-3.3141,-3.3122,-3.3295,-3.325,-3.3481,-3.4173,-3.4981,-3.5383,-3.534,-3.5333,-3.5308,-3.5103,-3.5166,-3.5058,-3.4917,-3.4718,-3.428,-3.271,-3.2895,-3.3258,-3.3162,-3.3506,-3.3819,-3.5879,-3.5664,-3.5469,-3.4609,-3.3396,-3.3396,-3.3395,-3.3392,-3.3393,-3.3394,-3.3377,-3.3182,-3.3085,-3.3105,-3.2891,-3.293,-3.3125,-3.3125,-3.3125,-3.3066,-3.248,-3.209,-3.1875,-3.1211,-3.0918,-3.0918,-3.0918,-3.0918,-3.0918,-3.0918,-3.0918,-3.0879,-3.0488,-3.0273,-3.0293,-3.0488,-3.0586,-3.0605,-3.0801,-3.0918,-3.0918,-3.0918,-3.0918,-3.0918,-3.0918,-3.0918,-3.0898,-3.0703,-3.0605,-3.0566,-2.9551,-2.8281,-2.6758,-2.5488,0.0,0.0,0.0,0.0,0.0,0.0,0.0,0.0,0.0,-2.2125,-2.3584,0.0,-2.4872,0.0,-2.555,-2.6473,-2.7507,-2.7622,0.0,0.0,-2.9065,-2.9866,-2.9906,-3.1394,-3.2399,-3.2413,-3.271,-3.325,-3.409,-3.4013,-3.4129,-3.4769,-3.4295,-3.3878,-3.391,-3.4468,-3.4865,-3.4827,-3.4808,-3.4885,-3.482,-3.4845,-3.4831,-3.5074,-3.5264,-3.5323,-3.5324,-3.5293,-3.5218,-3.5145,-3.5047,-3.4936,-3.483,-3.472,-3.4502,-3.4008,-3.4016,-3.4071,-3.3942,-3.3957,-3.3972,-3.6016,-3.6016,-3.6016,-3.543,-3.455,-3.4569,-3.4549,-3.4547,-3.4567,-3.4549,-3.4569,-3.4569,-3.457,-3.4551,-3.4551,-3.4551,-3.4551,-3.4551,-3.4355,-3.3945,-3.3516,-3.3125,-3.2715,-3.1875,-3.1484,-3.1465,-3.1074,-3.1113,-3.1445,-3.1074,-3.1094,-3.1465,-3.1074,-3.0918,-3.0918,-3.0918,-3.0918,-3.0918,-3.0918,-3.0918,-3.0918,-3.0918,-3.0918,-3.0918,-3.0918,-3.0918,-3.0918,-3.0918,-3.0918,-3.0898,-3.043,-2.9375,-2.7676,-2.6758,-2.5098,0.0,0.0,0.0,0.0,0.0,0.0,0.0,0.0,0.0,0.0,0.0,-2.6165,-2.6491,-2.6911,-2.767,-2.8909,-2.9025,-2.93,-3.0042,-3.0953,-3.1536,-3.1548,-3.2736,-3.3538,-3.3538,-3.3846,-3.4237,-3.4718,-3.4795,-3.4949,-3.5423,-3.5077,-3.4776,-3.4814,-3.5218,-3.55,-3.55,-3.55,-3.5474,-3.546,-3.542,-3.5398,-3.5361,-3.5339,-3.5273,-3.522,-3.5179,-3.5127,-3.4993,-3.4898,-3.482,-3.4687,-3.4591,-3.4473,-3.434,-3.4281,-3.4233,-3.4136,-3.4036,-3.3934,-3.6016,-3.6016,-3.6016,-3.6016,-3.6016,-3.6015,-3.6014,-3.6012,-3.6014,-3.6014,-3.6015,-3.6015,-3.6016,-3.6016,-3.6016,-3.6016,-3.6016,-3.6016,-3.5586,-3.4883,-3.4746,-3.4277,-3.3535,-3.2734,-3.2344,-3.2324,-3.1601,-3.1601,-3.2305,-3.1582,-3.1601,-3.2305,-3.1601,-3.1211,-3.1211,-3.1133,-3.1016,-3.0918,-3.0918,-3.0918,-3.0918,-3.0918,-3.0918,-3.0898,-3.0801,-3.0723,-3.0742,-3.0625,-3.0566,-3.0566,-3.0664,-2.998,-2.8379,-2.7578,-2.6387,0.0,-2.375,0.0,0.0,0.0,0.0,0.0,0.0,0.0,0.0,-2.5963,-2.72,-2.7985,-2.8151,-2.8852,-3.0423,-3.0654,-3.1314,-3.2699,-3.3006,-3.3064,-3.3103,-3.3833,-3.4353,-3.4372,-3.5026,-3.5481,-3.5462,-3.55,-3.5481,-3.55,-3.5462,-3.5404,-3.5481,-3.5481,-3.55,-3.55,-3.5493,-3.546,-3.5432,-3.5391,-3.5335,-3.5293,-3.5253,-3.5212,-3.5075,-3.5048,-3.4993,-3.4819,-3.4758,-3.4695,-3.4495,-3.4397,-3.4316,-3.4197,-3.4124,-3.4061,-3.4011,-3.3947,-3.3868,-3.6016,-3.6016,-3.6016,-3.6016,-3.6016,-3.6016,-3.6015,-3.6015,-3.6015,-3.6016,-3.6016,-3.6016,-3.6016,-3.6016,-3.6016,-3.6016,-3.6016,-3.6016,-3.5898,-3.5723,-3.5019,-3.4609,-3.4414,-3.3574,-3.3164,-3.3164,-3.2988,-3.3008,-3.3164,-3.3008,-3.3027,-3.3164,-3.3008,-3.291,-3.2891,0.0,0.0,0.0,-3.0918,-3.0918,-3.0918,-3.0918,-3.0918,-3.0879,-3.0215,0.0,-2.9805,-2.918,-2.8769,-2.8828,-2.9473,0.0,0.0,0.0,0.0,0.0,0.0,0.0,0.0,0.0,0.0,0.0,-2.7026,-2.7048,-2.6326,-2.7128,-2.8007,-2.8805,-2.9511,-3.0352,-3.1352,-3.2045,-3.2545,-3.2872,-3.3532,-3.3955,-3.3975,-3.4718,-3.525,-3.5269,-3.5404,-3.55,-3.55,-3.55,-3.55,-3.55,-3.55,-3.55,-3.55,-3.55,-3.55,-3.55,-3.5453,-3.5412,-3.5405,-3.5304,-3.5226,-3.5149,-3.5081,-3.5011,-3.4898,-3.4859,-3.478,-3.4602,-3.4525,-3.4439,-3.4281,-3.4191,-3.4136,-3.4049,-3.3985,-3.3934,-3.3921,-3.3908,-3.3881,-3.6016,-3.6016,-3.6016,-3.6016,0.0,-3.6016,-3.6016,-3.6016,-3.6016,-3.6016,-3.6016,-3.6016,-3.6016,-3.6016,-3.6016,-3.6016,-3.6016,-3.6016,-3.6016,-3.5976,-3.5547,-3.5332,-3.5312,-3.4434,-3.4043,-3.4023,-3.3594,-3.3613,-3.4004,-3.3613,-3.3613,-3.4023,-3.3613,-3.3379,-3.3359,-3.2617,-3.1777,-3.0918,-3.0918,-3.0918,-3.0918,-3.0918,-3.0918,-3.0898,-3.0469,0.0,0.0,0.0,0.0,0.0,0.0,0.0,0.0,0.0,0.0,-2.707,-2.6561,-2.6324,-2.6334,-2.672,-2.7113,-2.7479,-2.8202,-2.8448,-2.7972,-2.8287,-2.903,-3.0275,-3.0775,-3.1564,-3.2795,-3.3295,-3.3718,-3.4141,-3.4584,-3.4834,-3.4891,-3.5212,-3.5481,-3.55,-3.55,-3.55,-3.55,-3.55,-3.55,-3.55,-3.55,-3.55,-3.55,-3.55,-3.5493,-3.5453,-3.5403,-3.5346,-3.5297,-3.5237,-3.5108,-3.5001,-3.4917,-3.484,-3.4676,-3.4615,-3.4539,-3.4404,-3.4293,-3.4221,-3.4124,-3.4049,-3.4004,-3.3947,-3.3895,-3.386,-3.386,-3.3842,-3.3829,-3.6152,-3.6016,-3.6016,-3.6016,-3.6016,-3.6016,-3.6016,-3.6016,-3.6016,0.0,0.0,-3.6016,-3.6016,-3.6016,-3.6016,-3.6016,-3.6016,-3.6016,-3.6016,-3.6016,-3.6016,-3.6016,-3.5957,-3.5273,-3.4922,-3.4883,-3.4199,-3.4238,-3.4883,-3.4199,-3.4219,-3.4785,-3.4199,-3.3789,-3.3594,-3.2812,-3.1992,-3.1172,-3.0996,-3.0918,-3.0918,-3.0918,-3.0918,-3.0918,-3.0742,-3.0664,-3.0684,-3.0508,-3.043,-3.0449,-3.0605,-3.0332,-2.9648,-2.9609,-2.9277,-2.8592,-2.8375,-2.835,-2.8495,-2.8443,-2.8434,-2.8518,-2.9079,-2.9427,-2.9415,-2.9503,-3.0165,-3.1583,-3.1968,-3.2718,-3.4071,-3.4353,-3.4699,-3.5423,-3.55,-3.5481,-3.5481,-3.55,-3.55,-3.55,-3.55,-3.55,-3.55,-3.55,-3.55,-3.55,-3.55,-3.5493,-3.5474,-3.5467,-3.5453,-3.5391,-3.5331,-3.5269,-3.5185,-3.51,-3.4992,-3.4812,-3.4751,-3.4666,-3.4495,-3.4386,-3.4305,-3.4216,-3.4111,-3.4049,-3.3998,-3.3934,-3.39,-3.3881,-3.3847,-3.3807,-3.3807,-3.3807,-3.3807,-3.668,-3.6016,-3.6016,-3.6016,-3.6016,-3.6016,-3.6016,-3.6016,-3.6016,-3.6016,-3.6016,-3.6016,-3.6016,-3.6016,-3.6016,-3.6016,-3.6016,-3.6016,-3.6016,-3.6016,-3.6016,-3.6016,-3.5996,-3.5859,-3.582,-3.582,-3.5664,-3.5703,-3.5801,-3.5684,-3.5723,-3.5781,-3.5703,-3.5234,-3.4492,-3.3652,-3.2832,-3.2031,-3.1269,-3.0918,-3.0918,-3.0918,-3.0918,-3.0879,-3.0195,-2.9785,-2.9766,-2.9101,-2.8672,-2.8691,-2.9374,-2.9725,-2.9608,-2.9627,-2.9547,-2.9391,-2.8721,-2.8592,-2.9278,-2.9277,-2.9512,-3.0099,-3.0254,-3.0295,-3.0263,-3.0908,-3.1429,-3.1756,-3.2968,-3.3936,-3.4218,-3.4872,-3.5308,-3.5462,-3.55,-3.55,-3.55,-3.55,-3.55,-3.55,-3.55,-3.55,-3.55,-3.55,-3.55,-3.55,-3.5481,-3.5486,-3.5432,-3.5393,-3.5383,-3.5324,-3.525,-3.5185,-3.5091,-3.4955,-3.4831,-3.4758,-3.4542,-3.4427,-3.4281,-3.4197,-3.4124,-3.4049,-3.3985,-3.3934,-3.3926,-3.3873,-3.3834,-3.3834,-3.382,-3.3807,-3.3807,-3.3807,-3.3807,-3.7773,-3.7344,-3.6894,-3.6719,-3.668,-3.6191,-3.6016,-3.6016,-3.6016,-3.6016,-3.6016,-3.6016,-3.6016,-3.6016,-3.6016,-3.6016,-3.6016,-3.6016,-3.6016,-3.6016,-3.6016,-3.6016,-3.6016,-3.6016,-3.6016,-3.6016,-3.6016,-3.6016,-3.6016,-3.6016,-3.6016,-3.6016,-3.6016,-3.5801,-3.5371,-3.4551,-3.3691,-3.2851,-3.1582,-3.0918,-3.0918,-3.0918,-3.0917,-3.0878,-3.0487,-3.0311,-3.0292,-2.9921,-2.9725,-2.9725,-3.0076,-3.0309,-3.029,-3.0268,-3.0246,-3.0243,-2.988,-2.9806,-3.0176,-3.0107,-3.0191,-3.0487,-3.0904,-3.1141,-3.1107,-3.1474,-3.2064,-3.2949,-3.3782,-3.441,-3.4834,-3.525,-3.55,-3.55,-3.55,-3.55,-3.55,-3.55,-3.55,-3.55,-3.55,-3.55,-3.55,-3.55,-3.55,-3.55,-3.5467,-3.5405,-3.5324,-3.5254,-3.5223,-3.5182,-3.5098,-3.501,-3.4955,-3.4791,-3.4658,-3.4487,-3.4393,-3.4245,-3.4124,-3.4036,-3.3985,-3.3947,-3.3913,-3.3842,-3.3842,-3.3815,-3.3807,-3.3807,-3.3807,-3.3807,-3.3807,-3.3807,-3.3807,-3.8789,-3.8535,-3.7891,-3.7598,-3.7539,-3.6875,-3.6484,-3.6289,-3.6309,-3.6191,-3.6016,-3.6016,-3.6016,-3.6016,-3.6016,-3.6016,-3.6016,-3.6016,-3.6016,-3.6016,-3.6016,-3.6016,-3.6016,-3.6016,-3.6016,-3.6016,-3.6016,-3.6016,-3.6016,-3.6016,-3.6016,-3.6016,-3.6016,-3.6016,-3.5976,-3.5137,-3.4355,-3.3633,-3.2031,-3.1094,-3.0918,-3.0917,-3.0877,-3.0876,-3.0855,-3.0893,-3.0892,-3.0873,-3.0872,-3.0892,-3.0871,-3.0871,-3.0871,-3.0826,-3.08,-3.0794,-3.0799,-3.0774,-3.0753,-3.0847,-3.0848,-3.0795,-3.1518,-3.2062,-3.2243,-3.2275,-3.2776,-3.3975,-3.4359,-3.4795,-3.5327,-3.5481,-3.55,-3.55,-3.55,-3.55,-3.55,-3.55,-3.55,-3.55,-3.55,-3.55,-3.55,-3.55,-3.5493,-3.5467,-3.5405,-3.5304,-3.519,-3.5096,-3.5016,-3.5,-3.4936,-3.4859,-3.4758,-3.4623,-3.4473,-3.4293,-3.4197,-3.4099,-3.3979,-3.3921,-3.3881,-3.3868,-3.3847,-3.382,-3.3807,-3.3807,-3.3807,-3.3807,-3.3807,-3.3807,-3.3807,-3.3807,-3.3807,-3.9336,-3.8652,-3.8535,-3.8476,-3.8437,-3.834,-3.7871,-3.7226,-3.7187,-3.6719,-3.6133,-3.6016,-3.6016,-3.6016,-3.6016,-3.6016,-3.6016,-3.6016,-3.6016,-3.6016,-3.6016,-3.6016,-3.6016,-3.6016,-3.6016,-3.6016,-3.6016,-3.6016,-3.6016,-3.6016,-3.6016,-3.6016,-3.6016,-3.6016,-3.5918,-3.5156,-3.4667,-3.453,-3.2887,-3.1637,-3.0955,-3.0915,-3.0874,-3.0811,-3.0811,-3.0808,-3.0822,-3.0822,-3.0803,-3.0803,-3.0817,-3.0816,-3.0815,-3.0799,-3.0786,-3.0784,-3.0804,-3.0742,-3.0692,-3.1292,-3.167,-3.1648,-3.2388,-3.3159,-3.3801,-3.3955,-3.3994,-3.4334,-3.493,-3.5346,-3.55,-3.55,-3.55,-3.55,-3.55,-3.55,-3.55,-3.55,-3.55,-3.55,-3.5474,-3.55,-3.5474,-3.5474,-3.5479,-3.5417,-3.5297,-3.519,-3.5096,-3.4935,-3.4821,-3.479,-3.4778,-3.4708,-3.455,-3.4409,-3.4305,-3.4209,-3.4067,-3.3947,-3.3908,-3.3855,-3.382,-3.3834,-3.382,-3.3807,-3.3807,-3.3807,-3.3807,-3.3807,-3.3807,-3.3807,-3.3807,-3.3807,-3.3793,-4.0469,-4.0098,-3.959,-3.9062,-3.8633,-3.8613,-3.8418,-3.8066,-3.8086,-3.7871,-3.75,-3.6992,-3.6484,-3.6016,-3.6016,-3.6016,-3.6016,-3.6016,-3.6016,-3.6016,-3.6016,-3.6016,-3.6016,-3.6016,-3.6016,-3.6016,-3.6016,-3.6016,-3.6016,-3.6016,-3.6016,-3.6016,-3.6016,-3.6016,-3.5956,-3.5663,-3.5212,-3.4701,-3.3993,-3.2992,-3.172,-3.1099,-3.0824,-3.0795,-3.0789,-3.0801,-3.0792,-3.079,-3.079,-3.079,-3.0786,-3.0784,-3.0786,-3.0762,-3.0728,-3.0764,-3.1193,-3.141,-3.1307,-3.2096,-3.2532,-3.2484,-3.323,-3.3872,-3.4167,-3.4661,-3.4968,-3.5007,-3.5288,-3.55,-3.55,-3.55,-3.55,-3.55,-3.55,-3.55,-3.55,-3.546,-3.5446,-3.5427,-3.5405,-3.5379,-3.5379,-3.5372,-3.535,-3.5289,-3.5209,-3.5191,-3.5029,-3.4831,-3.4699,-3.455,-3.4484,-3.4427,-3.4328,-3.4245,-3.4148,-3.4049,-3.3959,-3.3895,-3.3842,-3.3834,-3.3807,-3.3807,-3.3807,-3.3807,-3.3807,-3.3807,-3.3807,-3.3807,-3.3807,-3.3807,-3.3807,-3.3766,-3.3753,-4.1191,-4.1094,-4.0527,-3.9902,-3.9336,-3.9316,-3.916,-3.8984,-3.8965,-3.8828,-3.8535,-3.793,-3.7305,-3.6719,-3.625,-3.6016,-3.6016,-3.6016,-3.6016,-3.6016,-3.6016,-3.6016,-3.6016,-3.6016,-3.6016,-3.6016,-3.6016,-3.6016,-3.6016,-3.6016,-3.6016,-3.6016,-3.6016,-3.6015,-3.6014,-3.6012,-3.5695,-3.512,-3.4838,-3.4043,-3.2853,-3.1923,-3.1377,-3.1151,-3.114,-3.1147,-3.1129,-3.1129,-3.1012,-3.08,-3.0778,-3.0778,-3.0778,-3.0736,-3.0795,-3.1031,-3.155,-3.1955,-3.212,-3.2919,-3.3367,-3.3397,-3.4077,-3.4571,-3.4661,-3.5135,-3.5462,-3.5462,-3.55,-3.55,-3.55,-3.55,-3.55,-3.5486,-3.5467,-3.546,-3.5446,-3.5405,-3.5372,-3.5372,-3.533,-3.5308,-3.535,-3.548,-3.5632,-3.5586,-3.5652,-3.5656,-3.5531,-3.5423,-3.5218,-3.4773,-3.4593,-3.4396,-3.421,-3.4099,-3.3998,-3.3934,-3.3881,-3.386,-3.382,-3.3807,-3.3807,-3.3807,-3.3807,-3.3807,-3.3807,-3.3807,-3.3807,-3.3807,-3.3807,-3.3793,-3.3766,-3.3712,-3.3657,-4.1191,-4.1191,-4.1152,-4.1055,-4.1055,-4.1016,-4.0586,-3.9844,-3.9844,-3.9414,-3.8769,-3.8574,-3.8516,-3.832,-3.6855,-3.6035,-3.6035,-3.6035,-3.6016,-3.6016,-3.6016,-3.6016,-3.6016,-3.6016,-3.6016,-3.6016,-3.6016,-3.6016,-3.6016,-3.6016,-3.6016,-3.6016,-3.6015,-3.6014,-3.6013,-3.6003,-3.5989,-3.5784,-3.5102,-3.4544,-3.4332,-3.3566,-3.2746,-3.2075,-3.1961,-3.1949,-3.1941,-3.1933,-3.1587,-3.0756,-3.0814,-3.0775,-3.0771,-3.0773,-3.1126,-3.1757,-3.1869,-3.2197,-3.291,-3.371,-3.4161,-3.425,-3.4872,-3.5385,-3.5308,-3.5423,-3.5481,-3.55,-3.55,-3.55,-3.5493,-3.5474,-3.546,-3.542,-3.5405,-3.5372,-3.5335,-3.5308,-3.5308,-3.5327,-3.5343,-3.5407,-3.5392,-3.5919,-3.6231,-3.6368,-3.6766,-3.7001,-3.6746,-3.6688,-3.6242,-3.5609,-3.5208,-3.4892,-3.4207,-3.3959,-3.3921,-3.3881,-3.3829,-3.382,-3.382,-3.3807,-3.3807,-3.3807,-3.3807,-3.3807,-3.3807,-3.3807,-3.3807,-3.3807,-3.3793,-3.378,-3.3712,-3.3643,-3.3545,-4.1191,-4.1191,-4.1191,-4.1191,-4.1191,-4.1191,-4.1016,-4.0742,-4.0742,-4.0566,-4.0215,-3.9687,-3.9434,-3.9375,-3.8203,-3.7363,-3.6797,-3.6269,-3.6016,-3.6016,-3.6016,-3.6016,-3.6016,-3.6016,-3.6016,-3.6016,-3.6016,-3.6016,-3.6016,-3.6015,-3.6015,-3.6015,-3.6013,-3.601,-3.6003,-3.6012,-3.5972,-3.5899,-3.5527,-3.5097,-3.4544,-3.4162,-3.3807,-3.3471,-3.3007,-3.2744,-3.2699,-3.2705,-3.2541,-3.2231,-3.2231,-3.2231,-3.225,-3.2188,-3.229,-3.2601,-3.3087,-3.3514,-3.3819,-3.4558,-3.5021,-3.5045,-3.5308,-3.55,-3.55,-3.55,-3.55,-3.55,-3.55,-3.5474,-3.5446,-3.5427,-3.542,-3.5386,-3.5361,-3.5324,-3.5281,-3.5231,-3.5171,-3.5239,-3.556,-3.5891,-3.6007,-3.6559,-3.6975,-3.6912,-3.7044,-3.713,-3.6967,-3.6801,-3.6642,-3.6165,-3.5601,-3.5064,-3.4743,-3.4136,-3.3847,-3.3834,-3.382,-3.382,-3.3807,-3.3807,-3.3807,-3.3807,-3.3807,-3.3807,-3.3807,-3.3807,-3.3807,-3.3793,-3.378,-3.3726,-3.3661,-3.3549,-3.3404,-4.1191,-4.1191,-4.1191,-4.1191,-4.1191,-4.1191,-4.1191,-4.1191,-4.1191,-4.1191,-4.1074,-4.0566,-4.0332,-4.0176,-3.9414,-3.873,-3.8027,-3.6973,-3.6269,-3.6016,-3.6016,-3.6016,-3.6016,-3.6016,-3.6016,-3.6016,-3.6015,-3.6015,-3.6015,-3.6014,-3.6013,-3.6012,-3.6009,-3.598,-3.5986,-3.597,-3.5941,-3.5856,-3.5802,-3.5417,-3.4856,-3.4797,-3.4761,-3.4654,-3.4212,-3.377,-3.3513,-3.3492,-3.3327,-3.3114,-3.3056,-3.3081,-3.3056,-3.3021,-3.3128,-3.3427,-3.3928,-3.4391,-3.4655,-3.5175,-3.5476,-3.5488,-3.55,-3.55,-3.55,-3.55,-3.55,-3.55,-3.55,-3.5467,-3.5412,-3.5383,-3.5361,-3.5346,-3.5293,-3.5218,-3.5212,-3.5098,-3.5198,-3.5447,-3.5809,-3.6166,-3.6541,-3.7219,-3.7532,-3.7544,-3.7643,-3.771,-3.756,-3.744,-3.7207,-3.6851,-3.6136,-3.5496,-3.4922,-3.4298,-3.3875,-3.382,-3.382,-3.3807,-3.3807,-3.3807,-3.3807,-3.3807,-3.3807,-3.3807,-3.3807,-3.3807,-3.3793,-3.378,-3.3739,-3.3684,-3.3563,-3.3404,-3.3226,-4.1191,-4.1191,-4.1191,-4.1191,-4.1191,-4.1191,-4.1191,-4.1191,-4.1191,-4.1191,-4.1191,-4.1133,-4.1055,-4.0957,-4.0234,-3.9863,-3.9394,-3.8105,-3.6973,-3.6191,-3.6113,-3.6055,-3.6016,-3.6016,-3.6016,-3.6016,-3.6015,-3.6013,-3.6011,-3.601,-3.6007,-3.6003,-3.5995,-3.5963,-3.5886,-3.5889,-3.5872,-3.5807,-3.573,-3.5645,-3.5588,-3.5502,-3.5473,-3.5495,-3.538,-3.4988,-3.4326,-3.4306,-3.3978,-3.3284,-3.3188,-3.3053,-3.3226,-3.3226,-3.344,-3.409,-3.4257,-3.4661,-3.5315,-3.5468,-3.5488,-3.55,-3.55,-3.55,-3.55,-3.55,-3.55,-3.5474,-3.5493,-3.5479,-3.5398,-3.5339,-3.5258,-3.5209,-3.5149,-3.5081,-3.502,-3.4955,-3.5201,-3.5804,-3.6031,-3.6276,-3.7006,-3.7798,-3.8227,-3.8278,-3.8581,-3.8848,-3.8679,-3.8543,-3.8339,-3.7687,-3.6871,-3.6134,-3.5257,-3.4399,-3.4082,-3.3807,-3.3807,-3.3807,-3.3807,-3.3807,-3.3807,-3.3807,-3.3807,-3.3807,-3.3807,-3.3807,-3.3766,-3.3739,-3.3698,-3.3619,-3.3401,-3.3226,-3.2993,-4.1191,-4.1191,-4.1191,-4.1191,-4.1191,-4.1191,-4.1191,-4.1191,-4.1191,-4.1191,-4.1191,-4.1191,-4.1191,-4.1152,-4.0879,-4.0449,-3.9882,-3.9276,-3.83,-3.7109,-3.6914,-3.6582,-3.6132,-3.6034,-3.6014,-3.6013,-3.601,-3.6008,-3.6005,-3.6017,-3.5988,-3.5941,-3.5931,-3.589,-3.5836,-3.5827,-3.5803,-3.5722,-3.5654,-3.5596,-3.554,-3.5527,-3.5522,-3.554,-3.5508,-3.5366,-3.513,-3.5123,-3.4988,-3.4668,-3.4719,-3.4719,-3.4725,-3.4725,-3.4854,-3.5052,-3.509,-3.5167,-3.5404,-3.55,-3.55,-3.55,-3.55,-3.55,-3.55,-3.55,-3.5486,-3.5446,-3.5427,-3.5398,-3.5339,-3.5258,-3.5201,-3.5122,-3.5027,-3.4936,-3.4849,-3.4788,-3.5044,-3.5732,-3.6306,-3.6941,-3.7654,-3.8389,-3.8784,-3.8715,-3.8925,-3.9021,-3.8921,-3.8866,-3.8758,-3.8312,-3.7547,-3.6725,-3.5826,-3.4931,-3.4344,-3.3954,-3.3807,-3.3807,-3.3807,-3.3807,-3.3807,-3.3807,-3.3807,-3.3807,-3.3807,-3.3793,-3.3785,-3.3758,-3.3743,-3.355,-3.3274,-3.3185,-3.3176,-4.1191,-4.1191,-4.1191,-4.1191,-4.1191,-4.1191,-4.1191,-4.1191,-4.1191,-4.1191,-4.1191,-4.1191,-4.1191,-4.1172,-4.1152,-4.0878,-4.0368,-4.0347,-3.9586,-3.8338,-3.787,-3.7459,-3.6931,-3.6598,-3.6458,-3.6354,-3.6113,-3.5973,-3.5949,-3.5974,-3.5936,-3.5883,-3.5853,-3.582,-3.5784,-3.5756,-3.5727,-3.5648,-3.5579,-3.5552,-3.5515,-3.5496,-3.5489,-3.5488,-3.55,-3.55,-3.55,-3.55,-3.55,-3.55,-3.55,-3.55,-3.55,-3.5462,-3.55,-3.55,-3.5481,-3.5481,-3.55,-3.55,-3.55,-3.55,-3.5467,-3.546,-3.546,-3.5453,-3.5405,-3.5372,-3.535,-3.5339,-3.5277,-3.5176,-3.5089,-3.5,-3.4898,-3.4781,-3.4674,-3.4787,-3.5257,-3.6,-3.6746,-3.7514,-3.826,-3.8665,-3.9045,-3.8964,-3.8935,-3.8925,-3.8822,-3.8795,-3.8735,-3.8521,-3.7878,-3.7092,-3.6376,-3.555,-3.4692,-3.4211,-3.3807,-3.3807,-3.3807,-3.3807,-3.3807,-3.3807,-3.3807,-3.3807,-3.3807,-3.3825,-3.3798,-3.3799,-3.3963,-3.4099,-3.4117,-3.3953,-3.3879,-4.1191,-4.1191,-4.1191,-4.1191,-4.1191,-4.1191,-4.1191,-4.1191,-4.1191,-4.1191,-4.1191,-4.1172,-4.1152,-4.1112,-4.1111,-4.105,-4.1087,-4.1001,-4.0588,-3.9768,-3.9147,-3.866,-3.8251,-3.762,-3.7258,-3.6992,-3.6395,-3.6014,-3.589,-3.5892,-3.5852,-3.5804,-3.5794,-3.5761,-3.5703,-3.5698,-3.5662,-3.5601,-3.5527,-3.5496,-3.5502,-3.5489,-3.55,-3.55,-3.55,-3.55,-3.55,-3.55,-3.55,-3.55,-3.55,-3.55,-3.55,-3.55,-3.55,-3.55,-3.55,-3.5493,-3.5493,-3.5474,-3.5474,-3.546,-3.542,-3.5405,-3.5372,-3.535,-3.53,-3.5285,-3.5273,-3.5261,-3.5176,-3.5073,-3.4936,-3.4802,-3.474,-3.4631,-3.4507,-3.4996,-3.5676,-3.6539,-3.7308,-3.7987,-3.8681,-3.8869,-3.8892,-3.8862,-3.8818,-3.8807,-3.8795,-3.875,-3.8723,-3.8432,-3.8083,-3.7345,-3.6578,-3.6028,-3.5147,-3.4156,-3.3807,-3.3807,-3.3807,-3.3807,-3.3807,-3.3807,-3.3807,-3.3807,-3.3807,-3.3793,-3.4069,-3.4359,-3.4618,-3.4943,-3.4885,-3.4602,-3.434,-4.1191,-4.1191,-4.1191,-4.1191,-4.1191,-4.1191,-4.1191,-4.1191,-4.1191,-4.1191,-4.1191,-4.1152,-4.1131,-4.1111,-4.1106,-4.11,-4.1112,-4.1117,-4.1044,-4.0764,-4.0521,-3.9614,-3.8723,-3.83,-3.7839,-3.7303,-3.691,-3.6447,-3.5859,-3.5849,-3.5819,-3.5791,-3.5735,-3.5679,-3.5614,-3.5621,-3.5595,-3.5521,-3.5502,-3.5489,-3.5482,-3.5488,-3.55,-3.55,-3.55,-3.55,-3.55,-3.55,-3.55,-3.55,-3.55,-3.55,-3.5481,-3.5481,-3.5481,-3.5474,-3.55,-3.5486,-3.5446,-3.542,-3.5405,-3.5357,-3.533,-3.5346,-3.5324,-3.5327,-3.5258,-3.519,-3.5151,-3.5127,-3.5066,-3.4946,-3.4769,-3.4542,-3.4559,-3.4673,-3.4983,-3.5247,-3.5835,-3.7114,-3.7562,-3.8106,-3.8597,-3.8822,-3.8807,-3.8762,-3.875,-3.8735,-3.8735,-3.8738,-3.8707,-3.8707,-3.8358,-3.7533,-3.6817,-3.6321,-3.5477,-3.4229,-3.3807,-3.3807,-3.3807,-3.3807,-3.3807,-3.3807,-3.3793,-3.378,-3.378,-3.3766,-3.4256,-3.4725,-3.48,-3.4902,-3.5021,-3.4889,-3.4653,-4.1191,-4.1191,-4.1191,-4.1191,-4.1191,-4.1191,-4.1191,-4.1191,-4.1191,-4.1191,-4.1152,-4.1112,-4.1109,-4.1104,-4.1115,-4.1103,-4.1107,-4.1075,-4.1052,-4.1062,-4.0953,-4.0395,-3.9637,-3.9234,-3.8672,-3.8159,-3.7409,-3.6787,-3.6308,-3.5968,-3.5757,-3.5723,-3.5688,-3.5612,-3.5556,-3.5558,-3.554,-3.5509,-3.5502,-3.5482,-3.5481,-3.55,-3.5467,-3.546,-3.546,-3.5453,-3.542,-3.5412,-3.5427,-3.5474,-3.55,-3.5474,-3.546,-3.546,-3.5453,-3.542,-3.5412,-3.5405,-3.5364,-3.535,-3.5327,-3.5285,-3.5243,-3.5234,-3.5212,-3.5196,-3.5126,-3.5027,-3.4992,-3.4965,-3.4898,-3.4769,-3.4749,-3.4836,-3.4766,-3.4915,-3.534,-3.5932,-3.6602,-3.7421,-3.7923,-3.8239,-3.871,-3.8747,-3.8735,-3.8723,-3.8723,-3.8707,-3.8707,-3.8707,-3.8707,-3.8707,-3.8615,-3.7918,-3.7165,-3.6615,-3.5862,-3.4614,-3.3977,-3.394,-3.3793,-3.3793,-3.3793,-3.3793,-3.378,-3.3753,-3.3726,-3.3849,-3.4316,-3.4639,-3.471,-3.5098,-3.5437,-3.5348,-3.5101,-4.1191,-4.1191,-4.1191,-4.1191,-4.1191,-4.1191,-4.1191,-4.1191,-4.1191,-4.1152,-4.1112,-4.1111,-4.1106,-4.1108,-4.1117,-4.1118,-4.1089,-4.1022,-4.0988,-4.0958,-4.0917,-4.0728,-4.0619,-4.0012,-3.9582,-3.9194,-3.789,-3.7264,-3.6818,-3.6153,-3.5767,-3.5681,-3.5606,-3.5571,-3.5515,-3.5509,-3.5502,-3.5494,-3.5481,-3.5474,-3.5467,-3.546,-3.542,-3.5405,-3.5391,-3.5369,-3.5308,-3.53,-3.5323,-3.5472,-3.5486,-3.5446,-3.5398,-3.5398,-3.5357,-3.5315,-3.53,-3.5293,-3.5278,-3.5266,-3.5261,-3.5218,-3.5122,-3.5081,-3.5047,-3.502,-3.4936,-3.487,-3.48,-3.4768,-3.4724,-3.4625,-3.4867,-3.5206,-3.5377,-3.5571,-3.5794,-3.6777,-3.7603,-3.7672,-3.8319,-3.8615,-3.8707,-3.8707,-3.8707,-3.8707,-3.8707,-3.8707,-3.8707,-3.8707,-3.8707,-3.8707,-3.856,-3.8358,-3.7606,-3.6909,-3.6046,-3.5078,-3.444,-3.4147,-3.3821,-3.3766,-3.3762,-3.3734,-3.3684,-3.3657,-3.3643,-3.3919,-3.4258,-3.4591,-3.4675,-3.5592,-3.6416,-3.5996,-3.5688,-4.1191,-4.1191,-4.1191,-4.1191,-4.1191,-4.1191,-4.1191,-4.1191,-4.1191,-4.1152,-4.1111,-4.111,-4.1102,-4.1106,-4.1098,-4.107,-4.1013,-4.0952,-4.0893,-4.084,-4.0776,-4.0752,-4.0769,-4.0502,-4.0159,-3.9588,-3.9152,-3.8226,-3.7228,-3.6721,-3.6214,-3.57,-3.5579,-3.5522,-3.549,-3.5489,-3.5494,-3.5474,-3.5453,-3.5432,-3.5405,-3.5372,-3.535,-3.5308,-3.5324,-3.5293,-3.5242,-3.5234,-3.5242,-3.5273,-3.5312,-3.5327,-3.5327,-3.5324,-3.53,-3.5266,-3.5242,-3.5198,-3.5157,-3.5124,-3.51,-3.5065,-3.4992,-3.4917,-3.4849,-3.4849,-3.478,-3.4697,-3.4594,-3.4525,-3.4512,-3.4865,-3.5206,-3.5584,-3.6367,-3.6993,-3.7131,-3.7345,-3.7801,-3.8282,-3.8542,-3.8707,-3.8707,-3.8707,-3.8707,-3.8707,-3.8707,-3.8707,-3.8707,-3.8707,-3.8707,-3.8707,-3.8634,-3.845,-3.7991,-3.7242,-3.6402,-3.5626,-3.5007,-3.4599,-3.4256,-3.3967,-3.4031,-3.3856,-3.3577,-3.353,-3.3488,-3.3459,-3.3704,-3.4155,-3.4584,-3.5099,-3.5544,-3.5704,-3.5976,-4.1191,-4.1191,-4.1191,-4.1191,-4.1191,-4.1191,-4.1191,-4.1191,-4.1191,-4.1152,-4.111,-4.1105,-4.1114,-4.1105,-4.1045,-4.1002,-4.0937,-4.0859,-4.0773,-4.07,-4.0674,-4.0647,-4.0653,-4.0668,-4.041,-3.9979,-3.956,-3.8814,-3.808,-3.7231,-3.6562,-3.6106,-3.574,-3.5521,-3.5476,-3.5455,-3.5441,-3.5427,-3.5379,-3.535,-3.5346,-3.5331,-3.5258,-3.5198,-3.5176,-3.5126,-3.5063,-3.5063,-3.5063,-3.5072,-3.5107,-3.5147,-3.5187,-3.5201,-3.5196,-3.5162,-3.5108,-3.5054,-3.5019,-3.4983,-3.4927,-3.4898,-3.483,-3.473,-3.4658,-3.4615,-3.4561,-3.4473,-3.44,-3.4375,-3.4686,-3.4981,-3.5489,-3.6394,-3.7071,-3.7724,-3.8015,-3.8095,-3.8175,-3.8597,-3.867,-3.8707,-3.8707,-3.8707,-3.8707,-3.8707,-3.8707,-3.8707,-3.8707,-3.8707,-3.8707,-3.8707,-3.8707,-3.8542,-3.8196,-3.7576,-3.6798,-3.6117,-3.5582,-3.5271,-3.5048,-3.4694,-3.441,-3.4068,-3.3676,-3.3331,-3.3286,-3.3237,-3.3293,-3.3775,-3.4141,-3.427,-3.4532,-3.5056,-3.531,-4.1191,-4.1191,-4.1191,-4.1191,-4.1191,-4.1191,-4.1191,-4.1191,-4.1191,-4.1171,-4.1108,-4.1101,-4.1103,-4.1098,-4.1025,-4.0971,-4.0849,-4.0756,-4.0655,-4.0614,-4.06,-4.0571,-4.0595,-4.0576,-4.0552,-4.0496,-3.9988,-3.9485,-3.8873,-3.7993,-3.7331,-3.6841,-3.6103,-3.5846,-3.5717,-3.5458,-3.5398,-3.5383,-3.532,-3.5273,-3.5261,-3.5245,-3.5179,-3.5047,-3.5001,-3.4946,-3.4879,-3.4841,-3.4841,-3.4841,-3.486,-3.4908,-3.5001,-3.5056,-3.5039,-3.4974,-3.4898,-3.486,-3.484,-3.48,-3.4739,-3.4747,-3.4634,-3.4517,-3.445,-3.4386,-3.4328,-3.432,-3.4346,-3.4635,-3.5185,-3.5712,-3.6348,-3.719,-3.7617,-3.8051,-3.8502,-3.8707,-3.867,-3.867,-3.8707,-3.8707,-3.8707,-3.8707,-3.8707,-3.8707,-3.8707,-3.867,-3.8655,-3.8673,-3.8673,-3.8707,-3.8707,-3.864,-3.8331,-3.8086,-3.729,-3.6668,-3.6133,-3.5864,-3.5627,-3.5119,-3.4657,-3.4179,-3.3803,-3.3514,-3.3156,-3.2975,-3.3147,-3.3527,-3.3477,-3.3354,-3.3784,-3.446,-3.4591,-4.1191,-4.1191,-4.1191,-4.1191,-4.1191,-4.1191,-4.1191,-4.1191,-4.1191,-4.1152,-4.1107,-4.11,-4.1101,-4.1095,-4.1041,-4.0912,-4.0767,-4.0648,-4.0605,-4.0576,-4.0542,-4.0531,-4.0531,-4.0531,-4.0519,-4.0512,-4.0269,-3.9942,-3.9492,-3.8965,-3.8291,-3.77,-3.6923,-3.6524,-3.6291,-3.5828,-3.5476,-3.5442,-3.5299,-3.5185,-3.5117,-3.5075,-3.4983,-3.4849,-3.481,-3.4759,-3.4668,-3.4647,-3.4647,-3.4636,-3.4636,-3.4649,-3.4699,-3.478,-3.4819,-3.4809,-3.471,-3.4658,-3.4636,-3.4583,-3.4528,-3.4473,-3.4386,-3.433,-3.4246,-3.4235,-3.4346,-3.445,-3.4742,-3.5118,-3.522,-3.6223,-3.7059,-3.7636,-3.8077,-3.8484,-3.8652,-3.8707,-3.8673,-3.8673,-3.8673,-3.8707,-3.8707,-3.8707,-3.8707,-3.8707,-3.8707,-3.8545,-3.8401,-3.8511,-3.8637,-3.8655,-3.8707,-3.8624,-3.8468,-3.83,-3.789,-3.7253,-3.6739,-3.634,-3.5975,-3.5379,-3.4899,-3.4775,-3.4296,-3.3804,-3.342,-3.2999,-3.2774,-3.2985,-3.2703,-3.2386,-3.2828,-3.3348,-3.3762,-4.1191,-4.1191,-4.1191,-4.1191,-4.1191,-4.1191,-4.1191,-4.1191,-4.1191,-4.1171,-4.1126,-4.1117,-4.1074,-4.1042,-4.0972,-4.0839,-4.0668,-4.0612,-4.058,-4.0539,-4.0504,-4.0496,-4.0496,-4.0496,-4.0496,-4.0496,-4.0477,-4.0342,-3.99,-3.9438,-3.9111,-3.8596,-3.7774,-3.734,-3.7118,-3.645,-3.6009,-3.5848,-3.5418,-3.5056,-3.4936,-3.485,-3.473,-3.4647,-3.4594,-3.4539,-3.4473,-3.4397,-3.4386,-3.4404,-3.4404,-3.4386,-3.4416,-3.4439,-3.4495,-3.4558,-3.4495,-3.442,-3.4404,-3.4328,-3.4281,-3.4245,-3.4185,-3.4365,-3.4585,-3.475,-3.479,-3.5178,-3.5414,-3.5956,-3.6415,-3.7103,-3.7603,-3.8083,-3.8469,-3.8652,-3.8707,-3.8707,-3.8658,-3.8624,-3.8643,-3.8676,-3.8707,-3.8707,-3.8707,-3.8707,-3.8692,-3.8456,-3.8169,-3.8245,-3.8373,-3.8253,-3.8256,-3.8449,-3.8348,-3.8249,-3.8097,-3.7583,-3.7211,-3.6805,-3.6542,-3.6024,-3.5929,-3.5906,-3.5252,-3.4337,-3.3826,-3.3438,-3.296,-3.2432,-3.2237,-3.2094,-3.1998,-3.2171,-3.2758,-4.1191,-4.1191,-4.1191,-4.1191,-4.1191,-4.1191,-4.1191,-4.1191,-4.1172,-4.1151,-4.1106,-4.1094,-4.1064,-4.0984,-4.0887,-4.0773,-4.0588,-4.0583,-4.0546,-4.0504,-4.0496,-4.0496,-4.0496,-4.0496,-4.0496,-4.0496,-4.0496,-4.0496,-4.0323,-3.9919,-3.9611,-3.9288,-3.8616,-3.8162,-3.7966,-3.7206,-3.6833,-3.6212,-3.5712,-3.5126,-3.4769,-3.4615,-3.4495,-3.4427,-3.4381,-3.4305,-3.4245,-3.4197,-3.4185,-3.4173,-3.4191,-3.4161,-3.4148,-3.4111,-3.4148,-3.4276,-3.4257,-3.4209,-3.4173,-3.4124,-3.4099,-3.4074,-3.4195,-3.46,-3.5021,-3.5294,-3.5639,-3.6189,-3.6519,-3.6721,-3.7195,-3.7639,-3.8043,-3.8414,-3.8652,-3.8692,-3.8658,-3.8643,-3.8559,-3.8578,-3.8611,-3.8596,-3.8562,-3.8578,-3.8562,-3.8562,-3.8544,-3.8123,-3.7872,-3.7862,-3.7885,-3.7694,-3.7737,-3.8143,-3.817,-3.8051,-3.7879,-3.7578,-3.7345,-3.7094,-3.6959,-3.6763,-3.6641,-3.6289,-3.5789,-3.4896,-3.4406,-3.3796,-3.3199,-3.2655,-3.213,-3.1814,-3.1705,-3.1866,-3.2349,-4.1191,-4.1191,-4.1191,-4.1191,-4.1191,-4.1191,-4.1191,-4.1191,-4.1152,-4.111,-4.1106,-4.1108,-4.1057,-4.0967,-4.0795,-4.0681,-4.0614,-4.0542,-4.0523,-4.0496,-4.0496,-4.0496,-4.0496,-4.0496,-4.0496,-4.0496,-4.0496,-4.0496,-4.0458,-4.0323,-4.0285,-4.0077,-3.95,-3.9018,-3.8873,-3.8016,-3.7145,-3.6464,-3.6083,-3.5428,-3.4611,-3.4374,-3.4269,-3.4197,-3.4148,-3.4111,-3.4074,-3.4036,-3.4023,-3.4023,-3.4023,-3.4023,-3.4023,-3.4023,-3.3985,-3.3985,-3.3998,-3.4036,-3.4005,-3.4011,-3.3985,-3.4094,-3.4515,-3.4935,-3.5478,-3.6015,-3.6391,-3.6281,-3.6909,-3.7382,-3.7713,-3.8138,-3.8505,-3.86,-3.8673,-3.8609,-3.8559,-3.8515,-3.8465,-3.8385,-3.8387,-3.8368,-3.8368,-3.8382,-3.843,-3.843,-3.8305,-3.7815,-3.7327,-3.7137,-3.7368,-3.7196,-3.7238,-3.7605,-3.788,-3.7792,-3.7613,-3.7428,-3.7279,-3.7164,-3.695,-3.671,-3.6547,-3.6156,-3.5738,-3.5431,-3.4912,-3.4257,-3.3474,-3.2986,-3.267,-3.2068,-3.1434,-3.1695,-3.2147,-4.1191,-4.1191,-4.1191,-4.1191,-4.1191,-4.1191,-4.1191,-4.1191,-4.1132,-4.111,-4.1105,-4.1106,-4.1059,-4.0921,-4.0765,-4.0662,-4.0607,-4.0534,-4.0496,-4.0496,-4.0496,-4.0496,-4.0496,-4.0496,-4.0496,-4.0496,-4.0496,-4.0496,-4.0496,-4.0496,-4.0496,-4.0423,-4.0117,-3.984,-3.9616,-3.8803,-3.8175,-3.7447,-3.6513,-3.5323,-3.4521,-3.4204,-3.4117,-3.4067,-3.4048,-3.3991,-3.3983,-3.3913,-3.39,-3.3881,-3.3881,-3.3881,-3.3881,-3.3881,-3.3868,-3.3855,-3.3868,-3.3881,-3.3881,-3.39,-3.3887,-3.4057,-3.4674,-3.545,-3.6229,-3.7074,-3.7588,-3.7698,-3.7955,-3.812,-3.8138,-3.8487,-3.8566,-3.8624,-3.8593,-3.8528,-3.8465,-3.8401,-3.8336,-3.8256,-3.8156,-3.8087,-3.8052,-3.8085,-3.8117,-3.813,-3.7731,-3.7062,-3.6327,-3.5634,-3.6077,-3.6678,-3.6824,-3.7076,-3.7363,-3.7466,-3.7299,-3.7106,-3.6913,-3.6794,-3.6591,-3.6385,-3.6255,-3.6127,-3.5826,-3.5518,-3.527,-3.4815,-3.4133,-3.3713,-3.3324,-3.2679,-3.2086,-3.2015,-3.2534,-4.1191,-4.1191,-4.1191,-4.1191,-4.1191,-4.1191,-4.1191,-4.1191,-4.1132,-4.111,-4.1103,-4.1078,-4.1007,-4.0893,-4.0759,-4.0662,-4.0588,-4.0534,-4.0504,-4.0496,-4.0496,-4.0496,-4.0496,-4.0496,-4.0496,-4.0496,-4.0496,-4.0496,-4.0496,-4.0496,-4.0496,-4.0489,-4.0362,-4.0302,-4.008,-3.9509,-3.8873,-3.8206,-3.6778,-3.5671,-3.502,-3.4794,-3.471,-3.456,-3.4368,-3.4181,-3.4149,-3.3884,-3.382,-3.382,-3.382,-3.3834,-3.382,-3.3834,-3.3834,-3.382,-3.3834,-3.382,-3.3834,-3.3839,-3.3899,-3.4339,-3.5147,-3.6395,-3.7529,-3.8414,-3.864,-3.8441,-3.8496,-3.8569,-3.8627,-3.8593,-3.8562,-3.8512,-3.8481,-3.8399,-3.8318,-3.8204,-3.807,-3.7933,-3.781,-3.7667,-3.7667,-3.7739,-3.7773,-3.7823,-3.7245,-3.6381,-3.5472,-3.4551,-3.4773,-3.5491,-3.615,-3.6379,-3.664,-3.6842,-3.6755,-3.6791,-3.6612,-3.6447,-3.628,-3.617,-3.6036,-3.5905,-3.5795,-3.5649,-3.5428,-3.5123,-3.48,-3.4287,-3.377,-3.3326,-3.2919,-3.2784,-3.2936,-4.1191,-4.1191,-4.1191,-4.1191,-4.1191,-4.1191,-4.1191,-4.1191,-4.1132,-4.111,-4.1101,-4.1037,-4.0983,-4.0883,-4.0759,-4.0662,-4.0588,-4.0534,-4.0504,-4.0496,-4.0496,-4.0496,-4.0496,-4.0496,-4.0496,-4.0496,-4.0496,-4.0496,-4.0489,-4.05,-4.0489,-4.05,-4.0449,-4.0379,-4.0205,-3.9849,-3.9101,-3.8362,-3.7106,-3.6523,-3.6162,-3.6016,-3.5965,-3.5813,-3.533,-3.4912,-3.4857,-3.4284,-3.3844,-3.3844,-3.3807,-3.3807,-3.3807,-3.3807,-3.3807,-3.3807,-3.3807,-3.3807,-3.3807,-3.3862,-3.4247,-3.5096,-3.6211,-3.7349,-3.8251,-3.8542,-3.8658,-3.8544,-3.8544,-3.8496,-3.8465,-3.8433,-3.8451,-3.8368,-3.8303,-3.8204,-3.8104,-3.7951,-3.781,-3.7631,-3.7485,-3.7336,-3.7222,-3.7262,-3.743,-3.7487,-3.6559,-3.5685,-3.4655,-3.3843,-3.374,-3.4235,-3.5149,-3.5583,-3.5838,-3.5998,-3.6209,-3.6361,-3.6318,-3.6191,-3.6062,-3.5949,-3.5839,-3.5795,-3.5728,-3.5661,-3.56,-3.5374,-3.5091,-3.468,-3.4286,-3.3998,-3.3761,-3.363,-3.38,-4.1191,-4.1191,-4.1191,-4.1191,-4.1191,-4.1191,-4.1191,-4.1191,-4.1132,-4.1105,-4.1109,-4.1039,-4.0953,-4.0864,-4.0754,-4.0662,-4.0607,-4.0527,-4.0504,-4.0496,-4.0496,-4.0496,-4.0496,-4.0496,-4.0496,-4.0496,-4.0496,-4.0496,-4.0489,-4.0492,-4.0495,-4.0482,-4.0432,-4.0345,-4.0206,-3.9886,-3.9129,-3.8346,-3.7604,-3.7146,-3.6473,-3.637,-3.6332,-3.6229,-3.6119,-3.5481,-3.5059,-3.4729,-3.4284,-3.3935,-3.3844,-3.3807,-3.3807,-3.3807,-3.3807,-3.3807,-3.3807,-3.3807,-3.3844,-3.3917,-3.4394,-3.5734,-3.6853,-3.7811,-3.8502,-3.8575,-3.8528,-3.8462,-3.8415,-3.8366,-3.8336,-3.8338,-3.8305,-3.8188,-3.8087,-3.7984,-3.7845,-3.7685,-3.7503,-3.7317,-3.7127,-3.6933,-3.6834,-3.6753,-3.697,-3.7075,-3.6018,-3.4977,-3.3987,-3.3248,-3.3159,-3.3139,-3.399,-3.4801,-3.5102,-3.5417,-3.5745,-3.5929,-3.6036,-3.5971,-3.5866,-3.5795,-3.5706,-3.5661,-3.5661,-3.5639,-3.5616,-3.5616,-3.5397,-3.5098,-3.4962,-3.4861,-3.4658,-3.4421,-3.4506,-4.1172,-4.1191,-4.1191,-4.1191,-4.1191,-4.1191,-4.1191,-4.1191,-4.1152,-4.1106,-4.1101,-4.1042,-4.1002,-4.0902,-4.0782,-4.0681,-4.0628,-4.0576,-4.0539,-4.0516,-4.0496,-4.0496,-4.0496,-4.0496,-4.0496,-4.0496,-4.0496,-4.0496,-4.0489,-4.0507,-4.0466,-4.0413,-4.0362,-4.0281,-4.0108,-3.9732,-3.9114,-3.8503,-3.8141,-3.7882,-3.719,-3.7118,-3.7125,-3.7037,-3.6853,-3.6468,-3.5844,-3.5334,-3.4711,-3.427,-3.4009,-3.3844,-3.3807,-3.3807,-3.3807,-3.3807,-3.3807,-3.3807,-3.388,-3.4468,-3.5133,-3.6461,-3.7341,-3.7992,-3.8298,-3.843,-3.8385,-3.8269,-3.8236,-3.8221,-3.8139,-3.8053,-3.8002,-3.788,-3.7792,-3.7685,-3.7558,-3.741,-3.7203,-3.7009,-3.6811,-3.6591,-3.6468,-3.635,-3.6304,-3.6379,-3.5791,-3.4655,-3.3481,-3.285,-3.2586,-3.2615,-3.2867,-3.3667,-3.4377,-3.4833,-3.5343,-3.5788,-3.5883,-3.5778,-3.5711,-3.5622,-3.5616,-3.5639,-3.5639,-3.5616,-3.5616,-3.5616,-3.5616,-3.5566,-3.5414,-3.5245,-3.5194,-3.4979,-3.4945,-4.1152,-4.1191,-4.1191,-4.1191,-4.1191,-4.1191,-4.1191,-4.1191,-4.1191,-4.1149,-4.1114,-4.1098,-4.1068,-4.098,-4.0844,-4.0744,-4.0687,-4.0617,-4.0565,-4.0523,-4.0496,-4.0496,-4.0496,-4.0496,-4.0496,-4.0496,-4.0496,-4.0496,-4.0508,-4.0463,-4.0413,-4.0298,-4.0225,-4.0128,-4.0027,-3.9642,-3.9279,-3.9059,-3.8868,-3.8641,-3.846,-3.8315,-3.8267,-3.812,-3.7753,-3.7349,-3.6798,-3.6009,-3.5334,-3.4766,-3.4252,-3.4009,-3.3807,-3.3807,-3.3807,-3.3807,-3.3807,-3.3844,-3.3972,-3.5367,-3.6314,-3.7043,-3.776,-3.8232,-3.8302,-3.829,-3.8188,-3.8035,-3.795,-3.7845,-3.7739,-3.7649,-3.7631,-3.7558,-3.7448,-3.7354,-3.7241,-3.7048,-3.6851,-3.671,-3.6468,-3.6259,-3.611,-3.5955,-3.5753,-3.56,-3.5335,-3.4487,-3.3395,-3.2668,-3.2406,-3.2385,-3.2515,-3.3071,-3.3884,-3.4419,-3.4938,-3.545,-3.5751,-3.5667,-3.5644,-3.5622,-3.5616,-3.5616,-3.5616,-3.5616,-3.5616,-3.5616,-3.5616,-3.5616,-3.5616,-3.5515,-3.5515,-3.5464,-3.5346,-4.1112,-4.1151,-4.1191,-4.1191,-4.1191,-4.1191,-4.1191,-4.1191,-4.1152,-4.1129,-4.1116,-4.1105,-4.1055,-4.0968,-4.0864,-4.0781,-4.07,-4.0624,-4.0565,-4.0504,-4.0496,-4.0496,-4.0496,-4.0496,-4.0496,-4.0496,-4.0496,-4.05,-4.0507,-4.0422,-4.0334,-4.0234,-3.9998,-3.9829,-3.9693,-3.9427,-3.9183,-3.9031,-3.8888,-3.8773,-3.8735,-3.8704,-3.8707,-3.8707,-3.8377,-3.8028,-3.7603,-3.6725,-3.6119,-3.5334,-3.4747,-3.4435,-3.4082,-3.3972,-3.3935,-3.388,-3.388,-3.4348,-3.4981,-3.6033,-3.6472,-3.7238,-3.789,-3.8251,-3.8121,-3.8054,-3.7915,-3.7775,-3.7613,-3.7522,-3.7448,-3.7318,-3.7261,-3.7184,-3.7087,-3.7009,-3.6891,-3.6652,-3.6447,-3.6385,-3.6216,-3.6045,-3.591,-3.5844,-3.5654,-3.5493,-3.5301,-3.5056,-3.4179,-3.3071,-3.2483,-3.2429,-3.2505,-3.289,-3.3392,-3.4173,-3.488,-3.5486,-3.5684,-3.5661,-3.5639,-3.5616,-3.5616,-3.5616,-3.5616,-3.5616,-3.5616,-3.5616,-3.5616,-3.5616,-3.5616,-3.5616,-3.5583,-3.5566,-3.5532,-4.1108,-4.1112,-4.1152,-4.1172,-4.1191,-4.1191,-4.1191,-4.1191,-4.1151,-4.1108,-4.1099,-4.1115,-4.1075,-4.0972,-4.0888,-4.0809,-4.0733,-4.0626,-4.0588,-4.0519,-4.0496,-4.0496,-4.0496,-4.0496,-4.0496,-4.0496,-4.0489,-4.0492,-4.0502,-4.037,-4.0196,-3.9989,-3.9732,-3.9563,-3.9414,-3.9237,-3.9087,-3.895,-3.8837,-3.8762,-3.8719,-3.8707,-3.8707,-3.8707,-3.8597,-3.845,-3.8006,-3.7529,-3.7019,-3.6083,-3.5518,-3.5206,-3.478,-3.4651,-3.4651,-3.4669,-3.444,-3.5109,-3.6073,-3.5976,-3.6528,-3.7503,-3.7967,-3.8051,-3.788,-3.7757,-3.7595,-3.7448,-3.7299,-3.7204,-3.7106,-3.6992,-3.6891,-3.6791,-3.6731,-3.667,-3.6585,-3.6339,-3.6233,-3.6148,-3.6062,-3.5888,-3.5756,-3.5711,-3.5621,-3.5474,-3.5365,-3.5125,-3.4866,-3.3866,-3.292,-3.2815,-3.2863,-3.3266,-3.3685,-3.4193,-3.4866,-3.552,-3.5616,-3.5616,-3.5616,-3.5616,-3.5616,-3.5616,-3.5616,-3.5616,-3.5616,-3.5616,-3.5616,-3.5616,-3.5616,-3.5616,-3.5616,-3.5616,-3.5616,-4.11,-4.1111,-4.1111,-4.1132,-4.1191,-4.1191,-4.1191,-4.1191,-4.1132,-4.111,-4.1106,-4.1106,-4.1074,-4.1007,-4.0932,-4.0863,-4.0788,-4.0655,-4.0612,-4.0569,-4.0512,-4.0504,-4.0496,-4.0496,-4.0496,-4.0496,-4.0508,-4.0503,-4.0493,-4.0317,-4.005,-3.9755,-3.9551,-3.935,-3.921,-3.9087,-3.896,-3.8848,-3.8792,-3.8732,-3.8704,-3.8707,-3.8707,-3.8707,-3.867,-3.8652,-3.834,-3.7991,-3.7621,-3.7107,-3.6688,-3.6395,-3.6248,-3.6266,-3.6266,-3.5995,-3.5296,-3.5967,-3.6626,-3.6256,-3.6638,-3.7566,-3.7841,-3.7828,-3.7613,-3.7392,-3.7185,-3.7068,-3.6913,-3.6831,-3.6751,-3.6629,-3.6523,-3.6444,-3.6402,-3.6318,-3.6251,-3.6144,-3.6036,-3.5949,-3.5861,-3.5751,-3.5684,-3.5616,-3.5616,-3.5571,-3.5464,-3.5294,-3.5021,-3.4648,-3.3821,-3.3482,-3.358,-3.3783,-3.415,-3.4506,-3.4928,-3.5583,-3.56,-3.5616,-3.5616,-3.5616,-3.5616,-3.5616,-3.5616,-3.5616,-3.5616,-3.5616,-3.5616,-3.5616,-3.5616,-3.5616,-3.5616,-3.5616,-3.5616,-4.1109,-4.1104,-4.111,-4.1132,-4.1191,-4.1191,-4.1191,-4.1191,-4.1191,-4.1132,-4.1107,-4.1117,-4.1092,-4.1067,-4.1007,-4.0888,-4.0815,-4.072,-4.0633,-4.0583,-4.0539,-4.0504,-4.0496,-4.0496,-4.0496,-4.0496,-4.05,-4.0487,-4.0379,-4.0225,-3.9948,-3.9647,-3.9439,-3.9251,-3.9059,-3.8935,-3.8862,-3.8807,-3.8765,-3.8719,-3.8704,-3.8707,-3.8707,-3.8707,-3.8707,-3.8707,-3.856,-3.845,-3.8083,-3.7511,-3.7327,-3.6997,-3.6303,-3.6285,-3.6252,-3.6139,-3.5915,-3.6148,-3.6799,-3.6741,-3.6884,-3.7417,-3.7559,-3.7448,-3.7241,-3.6992,-3.6794,-3.669,-3.6547,-3.6464,-3.6402,-3.6297,-3.6229,-3.6187,-3.6127,-3.6062,-3.6014,-3.5949,-3.5861,-3.5839,-3.5751,-3.5706,-3.5639,-3.5616,-3.5616,-3.5616,-3.5549,-3.5414,-3.5228,-3.4895,-3.4641,-3.4286,-3.4218,-3.4404,-3.459,-3.4912,-3.5228,-3.5566,-3.5583,-3.5616,-3.5616,-3.5616,-3.5616,-3.5616,-3.5616,-3.5616,-3.5616,-3.5616,-3.5616,-3.5616,-3.5616,-3.5616,-3.5616,-3.5616,-3.5616,-4.1072,-4.1115,-4.1105,-4.113,-4.1191,-4.1191,-4.1191,-4.1191,-4.1191,-4.1152,-4.1108,-4.1102,-4.1103,-4.1081,-4.1022,-4.093,-4.0837,-4.0732,-4.0647,-4.0579,-4.0519,-4.0504,-4.0496,-4.0496,-4.0496,-4.0496,-4.0481,-4.0468,-4.0344,-4.0099,-3.9815,-3.9575,-3.9389,-3.9183,-3.9007,-3.891,-3.8837,-3.878,-3.8719,-3.8707,-3.8707,-3.8707,-3.8707,-3.8707,-3.8707,-3.8707,-3.8707,-3.8707,-3.8395,-3.801,-3.7973,-3.779,-3.7261,-3.7246,-3.7138,-3.7043,-3.6638,-3.684,-3.7186,-3.6871,-3.7023,-3.7199,-3.7222,-3.6992,-3.6814,-3.6594,-3.6489,-3.6398,-3.6251,-3.6122,-3.6058,-3.6014,-3.5971,-3.5927,-3.5888,-3.5844,-3.58,-3.5756,-3.5751,-3.5728,-3.5684,-3.5639,-3.5616,-3.5616,-3.5616,-3.5616,-3.5616,-3.5566,-3.5447,-3.5301,-3.5165,-3.4957,-3.4923,-3.5013,-3.5143,-3.5194,-3.5397,-3.5583,-3.56,-3.5616,-3.5616,-3.5616,-3.5616,-3.5616,-3.5616,-3.5616,-3.5616,-3.5616,-3.5616,-3.5616,-3.5616,-3.5616,-3.5616,-3.5616,-3.5616,-4.1044,-4.1087,-4.1115,-4.1147,-4.1191,-4.1172,-4.1191,-4.1191,-4.1191,-4.1152,-4.1111,-4.1104,-4.1108,-4.1091,-4.1039,-4.0967,-4.0858,-4.0751,-4.0648,-4.0588,-4.0527,-4.0496,-4.0496,-4.0496,-4.0496,-4.0496,-4.0473,-4.0452,-4.0307,-4.0078,-3.9781,-3.9495,-3.94,-3.9207,-3.8954,-3.8896,-3.8807,-3.8719,-3.8723,-3.8707,-3.8707,-3.8707,-3.8707,-3.8707,-3.8707,-3.8707,-3.8707,-3.8707,-3.8707,-3.8689,-3.8652,-3.8579,-3.8441,-3.8324,-3.8198,-3.796,-3.7372,-3.7299,-3.7325,-3.7041,-3.6878,-3.6935,-3.6891,-3.669,-3.6506,-3.6343,-3.6255,-3.6144,-3.6014,-3.5927,-3.5883,-3.5861,-3.5817,-3.5773,-3.5734,-3.5711,-3.5689,-3.5684,-3.5684,-3.5661,-3.5661,-3.5616,-3.5616,-3.5616,-3.5616,-3.5616,-3.5616,-3.5616,-3.5583,-3.5498,-3.5464,-3.543,-3.538,-3.5312,-3.5397,-3.5464,-3.5515,-3.56,-3.5616,-3.5616,-3.5616,-3.5616,-3.5616,-3.5616,-3.5616,-3.5616,-3.5616,-3.5616,-3.5616,-3.5616,-3.5616,-3.5616,-3.5616,-3.5616,-3.5616,-4.1026,-4.1018,-4.1069,-4.1106,-4.1131,-4.1112,-4.1152,-4.1191,-4.1191,-4.1172,-4.1111,-4.1107,-4.1115,-4.1105,-4.1022,-4.0957,-4.0888,-4.0775,-4.0675,-4.0607,-4.0534,-4.0496,-4.0496,-4.0496,-4.0496,-4.0496,-4.0473,-4.0408,-4.0243,-4.0019,-3.977,-3.9526,-3.9369,-3.9161,-3.8925,-3.8862,-3.8792,-3.8707,-3.8707,-3.8707,-3.8707,-3.8707,-3.8707,-3.8707,-3.8707,-3.8707,-3.8707,-3.8707,-3.8707,-3.8689,-3.8707,-3.864,-3.8523,-3.8417,-3.8254,-3.805,-3.7752,-3.7578,-3.7343,-3.7105,-3.6951,-3.677,-3.667,-3.6482,-3.6293,-3.6148,-3.6019,-3.5905,-3.5817,-3.5773,-3.5728,-3.5706,-3.5661,-3.5644,-3.5622,-3.5622,-3.5616,-3.5616,-3.5616,-3.5616,-3.5616,-3.5616,-3.5616,-3.5616,-3.5616,-3.5616,-3.5616,-3.5616,-3.5616,-3.5566,-3.5549,-3.5532,-3.5549,-3.5549,-3.5616,-3.5616,-3.5616,-3.5616,-3.5616,-3.5616,-3.5616,-3.5616,-3.5616,-3.5616,-3.5616,-3.5616,-3.5616,-3.5616,-3.5616,-3.5616,-3.5616,-3.5616,-3.5616,-3.5616,-3.5616,-4.0984,-4.1006,-4.108,-4.11,-4.1107,-4.111,-4.1112,-4.1152,-4.1191,-4.1171,-4.1111,-4.1108,-4.11,-4.1095,-4.1017,-4.0953,-4.0883,-4.0754,-4.0668,-4.0607,-4.0542,-4.0504,-4.0496,-4.0496,-4.0496,-4.0489,-4.046,-4.0368,-4.0215,-4.0039,-3.9826,-3.9587,-3.9376,-3.917,-3.8964,-3.8881,-3.881,-3.8689,-3.8707,-3.8707,-3.8707,-3.8707,-3.8707,-3.8707,-3.8707,-3.8707,-3.8707,-3.8707,-3.8707,-3.8673,-3.8643,-3.8481,-3.835,-3.8203,-3.8001,-3.7792,-3.7595,-3.7466,-3.7201,-3.7007,-3.6891,-3.665,-3.6482,-3.6289,-3.6058,-3.5927,-3.5866,-3.5773,-3.5728,-3.5661,-3.5661,-3.5639,-3.5639,-3.5622,-3.5622,-3.56,-3.5616,-3.5616,-3.5616,-3.5616,-3.5616,-3.5616,-3.5616,-3.5616,-3.5616,-3.5616,-3.5616,-3.5616,-3.5616,-3.5616,-3.5616,-3.5616,-3.5616,-3.5616,-3.5616,-3.5616,-3.5616,-3.5616,-3.5594,-3.56,-3.56,-3.56,-3.5616,-3.5616,-3.5616,-3.5616,-3.5616,-3.5616,-3.5616,-3.5616,-3.5616,-3.5616,-3.5616,-3.5616,-3.5616,-4.0939,-4.0993,-4.1061,-4.1087,-4.1116,-4.1107,-4.111,-4.1111,-4.1152,-4.1152,-4.111,-4.1107,-4.11,-4.108,-4.1039,-4.0972,-4.0883,-4.0754,-4.0668,-4.0588,-4.0534,-4.0504,-4.0496,-4.0496,-4.0496,-4.0484,-4.0455,-4.0377,-4.027,-4.009,-3.9911,-3.9693,-3.9489,-3.9264,-3.9064,-3.8939,-3.8855,-3.8735,-3.8707,-3.8707,-3.8707,-3.8707,-3.8707,-3.8707,-3.8707,-3.8707,-3.8707,-3.8707,-3.8707,-3.8627,-3.8562,-3.835,-3.8136,-3.7966,-3.7703,-3.7467,-3.7242,-3.7031,-3.6791,-3.665,-3.6489,-3.6318,-3.6208,-3.6075,-3.5861,-3.5773,-3.5706,-3.5684,-3.5639,-3.5616,-3.5616,-3.5616,-3.5616,-3.5616,-3.5616,-3.5616,-3.5616,-3.5616,-3.5616,-3.5616,-3.5616,-3.5616,-3.5616,-3.5616,-3.5616,-3.5616,-3.5616,-3.5616,-3.5616,-3.5616,-3.5616,-3.5616,-3.5616,-3.5616,-3.56,-3.5594,-3.5571,-3.5549,-3.5526,-3.5554,-3.5577,-3.5571,-3.5571,-3.5616,-3.5616,-3.5616,-3.5616,-3.5616,-3.5616,-3.5616,-3.5616,-3.5616,-3.5616,-3.5616,-3.5616,-4.0883,-4.0988,-4.1033,-4.1064,-4.1087,-4.1108,-4.1098,-4.1102,-4.1108,-4.1109,-4.1107,-4.1099,-4.1108,-4.1113,-4.1037,-4.0968,-4.0898,-4.0748,-4.0662,-4.0607,-4.0534,-4.0504,-4.0496,-4.0496,-4.0496,-4.0484,-4.0463,-4.0405,-4.0307,-4.0148,-3.9935,-3.9717,-3.9502,-3.929,-3.9036,-3.8939,-3.8855,-3.8735,-3.8707,-3.8707,-3.8707,-3.8707,-3.8707,-3.8707,-3.8707,-3.8707,-3.8707,-3.8707,-3.8707,-3.8627,-3.8467,-3.8254,-3.7984,-3.7721,-3.743,-3.7166,-3.6933,-3.6673,-3.6468,-3.6339,-3.6191,-3.6105,-3.5993,-3.5905,-3.5751,-3.5706,-3.5644,-3.5661,-3.5616,-3.5616,-3.5616,-3.5616,-3.5616,-3.5616,-3.5616,-3.5616,-3.5616,-3.5616,-3.5616,-3.5616,-3.5616,-3.5616,-3.5616,-3.5616,-3.5616,-3.5616,-3.5616,-3.5616,-3.5616,-3.5616,-3.5616,-3.5616,-3.5616,-3.56,-3.56,-3.5543,-3.552,-3.5475,-3.5452,-3.5412,-3.5435,-3.5498,-3.5543,-3.5571,-3.5616,-3.5616,-3.5616,-3.5616,-3.5616,-3.5616,-3.5616,-3.5616,-3.5616,-3.5616,-3.5616]},{"header":{"parameterUnit":"m.s-1","parameterCategory":1,"la1":31.0,"la2":29.5877,"lo1":-88.7671,"lo2":-86.6584,"dy":0.0162,"dx":0.0185,"nx":115,"ny":88,"refTime":"2024-07-19T18:00:00:Z","depth":0,"parameterNumber":3,"parameterNumberName":"V-component_of_WINDS"},"data":[0.0,0.0,0.0,0.0,0.0,0.0,0.0,0.0,0.0,0.0,0.0,0.0,0.0,0.0,0.0,0.0,0.0,0.0,0.0,0.0,0.0,0.0,0.0,0.0,0.0,0.0,0.0,0.0,0.0,0.0,0.0,0.0,0.0,0.0,0.0,0.0,0.0,0.0,0.0,0.0,0.0,0.0,0.0,0.0,0.0,0.0,0.0,0.0,0.0,0.0,0.0,0.0,0.0,0.0,0.0,0.0,0.0,0.0,0.0,0.0,0.0,0.0,0.0,0.0,0.0,0.0,0.0,0.0,0.0,0.0,0.0,0.0,0.0,0.0,0.0,0.0,0.0,0.0,0.0,0.0,0.0,0.0,0.0,0.0,0.0,0.0,0.0,0.0,0.0,0.0,0.0,0.0,0.0,0.0,0.0,0.0,0.0,0.0,0.0,0.0,0.0,0.0,0.0,0.0,0.0,0.0,0.0,0.0,0.0,0.0,0.0,0.0,0.0,0.0,0.0,0.0,0.0,0.0,0.0,0.0,0.0,0.0,0.0,0.0,0.0,0.0,0.0,0.0,0.0,0.0,0.0,0.0,0.0,0.0,0.0,0.0,0.0,0.0,0.0,0.0,0.0,0.0,0.0,0.0,0.0,0.0,0.0,0.0,0.0,0.0,0.0,0.0,0.0,0.0,0.0,0.0,0.0,0.0,0.0,0.0,0.0,0.0,0.0,0.0,0.0,0.0,0.0,0.0,0.0,0.0,0.0,0.0,0.0,0.0,0.0,0.0,0.0,0.0,0.0,0.0,0.0,0.0,0.0,0.0,0.0,0.0,0.0,0.0,0.0,0.0,0.0,0.0,0.0,0.0,0.0,0.0,0.0,0.0,0.0,0.0,0.0,0.0,0.0,0.0,0.0,0.0,0.0,0.0,0.0,0.0,0.0,0.0,0.0,0.0,0.0,0.0,0.0,0.0,0.0,0.0,0.0,0.0,0.0,0.0,0.0,0.0,0.0,0.0,0.0,0.0,0.0,0.0,0.0,0.0,0.0,0.0,0.0,0.0,0.0,0.0,0.0,0.0,0.0,0.0,0.0,0.0,0.0,0.0,0.0,0.0,0.0,0.0,0.0,0.0,0.0,0.0,0.0,0.0,0.0,0.0,0.0,0.0,0.0,0.0,0.0,0.0,0.0,0.0,0.0,0.0,0.0,0.0,0.0,0.0,0.0,0.0,0.0,0.0,0.0,0.0,0.0,0.0,0.0,0.0,0.0,0.0,0.0,0.0,0.0,0.0,0.0,0.0,0.0,0.0,0.0,0.0,0.0,0.0,0.0,0.0,0.0,0.0,0.0,0.0,0.0,0.0,0.0,0.0,0.0,0.0,0.0,0.0,0.0,0.0,0.0,0.0,0.0,0.0,0.0,0.0,0.0,0.0,0.0,0.0,0.0,0.0,0.0,0.0,0.0,0.0,0.0,0.0,0.0,0.0,0.0,0.0,0.0,0.0,0.0,0.0,0.0,0.0,0.0,0.0,0.0,0.0,0.0,0.0,0.0,0.0,0.0,0.0,0.0,0.0,0.0,0.0,0.0,0.0,0.0,0.0,0.0,0.0,0.0,0.0,0.0,0.0,0.0,0.0,0.0,0.0,0.0,0.0,0.0,0.0,0.0,0.0,0.0,0.0,0.0,0.0,0.0,0.0,0.0,0.0,0.0,0.0,0.0,0.0,0.0,0.0,0.0,0.0,0.0,0.0,0.0,0.0,0.0,0.0,0.0,0.0,0.0,0.0,0.0,0.0,0.0,0.0,0.0,0.0,0.0,0.0,0.0,0.0,0.0,0.0,0.0,0.0,0.0,0.0,0.0,0.0,0.0,0.0,0.0,0.0,0.0,0.0,0.0,0.0,0.0,0.0,0.0,0.0,0.0,0.0,0.0,0.0,0.0,0.0,0.0,0.0,0.0,0.0,0.0,0.0,0.0,0.0,0.0,0.0,0.0,0.0,0.0,0.0,0.0,0.0,0.0,0.0,0.0,0.0,0.0,0.0,0.0,0.0,0.0,0.0,0.0,0.0,0.0,0.0,0.0,0.0,0.0,0.0,0.0,0.0,0.0,0.0,0.0,0.0,0.0,0.0,0.0,0.0,0.0,0.0,0.0,0.0,0.0,0.0,0.0,0.0,0.0,0.0,0.0,0.0,0.0,0.0,0.0,0.0,0.0,0.0,0.0,0.0,0.0,0.0,0.0,0.0,0.0,0.0,0.0,0.0,0.0,0.0,0.0,0.0,0.0,0.0,0.0,0.0,0.0,0.0,0.0,0.0,0.0,0.0,0.0,0.0,0.0,0.0,0.0,0.0,0.0,0.0,0.0,0.0,0.0,0.0,0.0,0.0,0.0,0.0,0.0,0.0,0.0,0.0,0.0,0.0,0.0,0.0,0.0,0.0,0.0,0.0,0.0,0.0,0.0,0.0,0.0,0.0,0.0,0.0,0.0,0.0,0.0,0.0,0.0,0.0,0.0,0.0,0.0,0.0,0.0,0.0,0.0,0.0,0.0,0.0,0.0,0.0,0.0,0.0,0.0,0.0,0.0,0.0,0.0,0.0,0.0,0.0,0.0,0.0,0.0,0.0,0.0,0.0,0.0,0.0,0.0,0.0,0.0,0.0,0.0,0.0,0.0,0.0,0.0,0.0,0.0,0.0,0.0,0.0,0.0,0.0,0.0,0.0,0.0,0.0,0.0,0.0,0.0,0.0,0.0,0.0,0.0,0.0,0.0,0.0,0.0,0.0,0.0,0.0,0.0,0.0,0.0,0.0,0.0,0.0,0.0,0.0,0.0,0.0,0.0,0.0,0.0,0.0,0.0,0.0,0.0,0.0,0.0,0.0,0.0,0.0,0.0,0.0,0.0,0.0,0.0,0.0,0.0,0.0,0.0,0.0,0.0,0.0,0.0,0.0,0.0,0.0,0.0,0.0,0.0,0.0,0.0,0.0,0.0,0.0,0.0,0.0,0.0,0.0,0.0,0.0,0.0,0.0,0.0,0.0,0.0,0.0,0.0,0.0,0.0,0.0,0.0,0.0,0.0,0.0,0.0,0.0,0.0,0.0,0.0,0.0,0.0,0.0,0.0,0.0,0.0,0.0,0.0,0.0,0.0,0.0,0.0,0.0,0.0,0.0,0.0,0.0,0.0,0.0,0.0,0.0,0.0,0.0,0.0,0.0,0.0,0.0,0.0,0.0,0.0,0.0,0.0,0.0,0.0,0.0,0.0,0.0,0.0,0.0,0.0,0.0,0.0,0.0,0.0,0.0,0.0,0.0,0.0,0.0,0.0,0.0,0.0,0.0,0.0,0.0,0.0,0.0,0.0,0.0,0.0,0.0,0.0,0.0,0.0,0.0,0.0,0.0,0.0,0.0,0.0,0.0,0.0,0.0,0.0,0.0,0.0,0.0,0.0,0.0,0.0,0.0,0.0,0.0,0.0,0.0,0.0,0.0,0.0,0.0,0.0,0.0,0.0,0.0,0.0,0.0,0.0,0.0,0.0,0.0,0.0,0.0,0.0,0.0,0.0,0.0,0.0,0.0,0.0,0.0,0.0,0.0,0.0,0.0,0.0,0.0,0.0,0.0,0.0,0.0,0.0,0.0,0.0,0.0,0.0,0.0,0.0,0.0,0.0,0.0,0.0,0.0,0.0,0.0,0.0,0.0,0.0,0.0,0.0,0.0,0.0,0.0,0.0,0.0,0.0,0.0,0.0,0.0,0.0,0.0,0.0,0.0,0.0,0.0,0.0,0.0,0.0,0.0,0.0,0.0,0.0,0.0,0.0,0.0,0.0,0.0,0.0,0.0,0.0,0.0,0.0,0.0,0.0,0.0,0.0,0.0,0.0,0.0,0.0,0.0,0.0,0.0,0.0,0.0,0.0,0.0,0.0,0.0,0.0,0.0,0.0,0.0,0.0,0.0,0.0,0.0,0.0,0.0,0.0,0.0,0.0,0.0,0.0,0.0,0.0,0.0,0.0,0.0,0.0,0.0,0.0,0.0,0.0,0.0,0.0,0.0,0.0,0.0,0.0,0.0,0.0,0.0,0.0,0.0,0.0,0.0,0.0,0.0,0.0,0.0,0.0,0.0,0.0,0.0,0.0,0.0,0.0,0.0,0.0,0.0,0.0,0.0,0.0,0.0,0.0,0.0,0.0,0.0,0.0,0.0,0.0,0.0,0.0,0.0,0.0,0.0,0.0,0.0,0.0,0.0,0.0,0.0,0.0,0.0,0.0,0.0,-0.3946,0.0,0.0,0.0,0.0,0.0,0.0,0.0,0.0,0.0,0.0,0.0,0.0,0.0,0.0,0.0,0.0,0.0,0.0,0.0,0.0,0.0,0.0,0.0,0.0,0.0,0.0,0.0,0.0,0.0,0.0,0.0,0.0,0.0,0.0,0.0,0.0,0.0,0.0,0.0,0.0,0.0,0.0,0.0,0.0,0.0,0.0,0.0,0.0,0.0,0.0,0.0,0.0,0.0,0.0,0.0,0.0,0.0,0.0,0.0,0.0,0.0,0.0,0.0,0.0,0.0,0.0,0.0,0.0,0.0,0.0,0.0,0.0,0.0,0.0,0.0,0.0,0.0,0.0,0.0,0.0,0.0,0.0,0.0,0.0,0.0,0.0,0.0,0.0,0.0,0.0,0.0,0.0,0.0,0.0,0.0,0.0,0.0,0.0,0.0,0.0,0.0,0.0,0.0,0.0,0.0,0.0,0.0,0.0,0.0,0.0,-0.377,-0.3733,-0.377,-0.3788,-0.3788,0.0,0.0,0.0,0.0,0.0,0.0,0.0,0.0,0.0,0.0,0.0,0.0,0.0,0.0,0.0,0.0,0.0,0.0,0.0,0.0,0.0,0.0,0.0,0.0,0.0,0.0,0.0,0.0,0.0,0.0,0.0,0.0,0.0,0.0,0.0,0.0,0.0,0.0,0.0,0.0,0.0,0.0,0.0,0.0,0.0,0.0,0.0,0.0,0.0,0.0,0.0,0.0,0.0,0.0,0.0,0.0,0.0,0.0,0.0,0.0,0.0,0.0,0.0,0.0,0.0,0.0,0.0,0.0,0.0,0.0,0.0,0.0,0.0,0.0,0.0,0.0,0.0,0.0,0.0,0.0,0.0,0.0,0.0,0.0,0.0,0.0,0.0,0.0,0.0,0.0,0.0,0.0,0.0,0.0,0.0,0.0,0.0,0.0,0.0,0.0,0.0,0.0,0.0,0.0,0.0,0.0,0.0,0.0,0.0,0.0,0.0,0.0,-0.366,-0.37,-0.37,0.0,0.0,0.0,0.0,0.0,0.0,0.0,0.0,0.0,0.0,0.0,0.0,0.0,0.0,0.0,0.0,0.0,0.0,0.0,0.0,0.0,0.0,0.0,0.0,0.0,0.0,0.0,0.0,0.0,0.0,0.0,0.0,0.0,0.0,0.0,0.0,0.0,0.0,0.0,0.0,0.0,0.0,0.0,0.0,0.0,0.0,0.0,0.0,0.0,0.0,0.0,0.0,0.0,0.0,0.0,0.0,0.0,0.0,0.0,0.0,0.0,0.0,0.0,0.0,0.0,0.0,0.0,0.0,0.0,0.0,0.0,0.0,0.0,0.0,0.0,0.0,0.0,0.0,0.0,0.0,0.0,0.0,0.0,0.0,0.0,0.0,0.0,0.0,0.0,0.0,0.0,0.0,0.0,0.0,0.0,0.0,0.0,0.0,0.0,0.0,0.0,0.0,0.0,0.0,0.0,0.0,0.0,0.0,0.0,0.0,-0.36,-0.36,-0.36,0.0,-0.369,0.0,0.0,0.0,0.0,0.0,0.0,0.0,0.0,0.0,0.0,0.0,0.0,0.0,0.0,0.0,0.0,0.0,0.0,0.0,0.0,0.0,0.0,0.0,0.0,0.0,0.0,0.0,0.0,0.0,0.0,0.0,0.0,0.0,0.0,0.0,0.0,0.0,0.0,0.0,0.0,0.0,0.0,0.0,0.0,0.0,0.0,0.0,0.0,0.0,0.0,0.0,0.0,0.0,0.0,0.0,0.0,0.0,0.0,0.0,0.0,0.0,0.0,0.0,0.0,0.0,0.0,0.0,0.0,0.0,0.0,0.0,0.0,0.0,0.0,0.0,0.0,0.0,0.0,0.0,0.0,0.0,0.0,0.0,0.0,0.0,0.0,0.0,0.0,0.0,0.0,0.0,0.0,0.0,0.0,0.0,0.0,0.0,0.0,0.0,0.0,0.0,0.0,0.0,0.0,0.0,0.0,0.0,0.0,0.0,0.0,-0.36,-0.36,-0.36,-0.3556,0.0,0.0,0.0,0.0,0.0,0.0,0.0,0.0,0.0,0.0,0.0,0.0,0.0,0.0,0.0,0.0,0.0,0.0,0.0,0.0,0.0,0.0,0.0,0.0,0.0,0.0,0.0,0.0,0.0,0.0,0.0,0.0,0.0,0.0,0.0,0.0,0.0,0.0,0.0,0.0,0.0,0.0,0.0,0.0,0.0,0.0,0.0,0.0,0.0,0.0,0.0,0.0,0.0,0.0,0.0,0.0,0.0,0.0,0.0,0.0,0.0,0.0,0.0,0.0,0.0,0.0,0.0,0.0,0.0,0.0,0.0,0.0,0.0,0.0,0.0,0.0,0.0,0.0,0.0,0.0,0.0,0.0,0.0,0.0,0.0,0.0,0.0,0.0,0.0,0.0,0.0,0.0,0.0,0.0,0.0,0.0,0.0,0.0,0.0,0.0,0.0,0.0,0.0,0.0,0.0,0.0,0.0,0.0,0.0,0.0,-0.36,-0.36,-0.36,-0.36,-0.3503,-0.3292,0.0,0.0,0.0,0.0,0.0,0.0,0.0,0.0,0.0,0.0,0.0,0.0,0.0,0.0,0.0,0.0,0.0,0.0,0.0,0.0,0.0,0.0,0.0,0.0,0.0,0.0,0.0,0.0,0.0,0.0,0.0,0.0,0.0,0.0,0.0,0.0,0.0,0.0,0.0,0.0,0.0,0.0,0.0,0.0,0.0,0.0,0.0,0.0,0.0,0.0,0.0,0.0,0.0,0.0,0.0,0.0,0.0,0.0,0.0,0.0,0.0,0.0,0.0,0.0,0.0,0.0,0.0,0.0,0.0,0.0,0.0,0.0,0.0,0.0,0.0,0.0,0.0,0.0,0.0,0.0,0.0,0.0,0.0,0.0,0.0,0.0,0.0,0.0,0.0,0.0,0.0,0.0,0.0,0.0,0.0,0.0,0.0,0.0,0.0,0.0,0.0,0.0,0.0,0.0,0.0,0.0,0.0,0.0,0.0,-0.36,-0.36,-0.3607,-0.36,-0.3507,0.0,0.0,0.0,0.0,0.0,0.0,0.0,0.0,0.0,0.0,0.0,0.0,0.0,0.0,0.0,0.0,0.0,0.0,0.0,0.0,0.0,0.0,0.0,0.0,0.0,0.0,0.0,0.0,0.0,0.0,0.0,0.0,0.0,0.0,0.0,0.0,0.0,0.0,0.0,0.0,0.0,0.0,0.0,0.0,0.0,0.0,0.0,0.0,0.0,0.0,0.0,0.0,0.0,0.0,0.0,0.0,0.0,0.0,0.0,0.0,0.0,0.0,0.0,0.0,0.0,0.0,0.0,0.0,0.0,0.0,0.0,0.0,0.0,0.0,0.0,0.0,0.0,0.0,0.0,0.0,0.0,0.0,0.0,0.0,0.0,0.0,0.0,0.0,0.0,0.0,0.0,0.0,0.0,0.0,0.0,0.0,0.0,0.0,0.0,0.0,0.0,0.0,0.0,0.0,0.0,0.0,0.0,0.0,0.0,-0.36,-0.36,-0.3648,-0.373,-0.3651,-0.3459,0.0,0.0,0.0,0.0,0.0,0.0,0.0,0.0,0.0,0.0,0.0,0.0,0.0,0.0,0.0,0.0,0.0,0.0,0.0,0.0,0.0,0.0,0.0,0.0,0.0,0.0,0.0,0.0,0.0,0.0,0.0,0.0,0.0,0.0,0.0,0.0,0.0,0.0,0.0,0.0,0.0,0.0,0.0,0.0,0.0,0.0,0.0,0.0,0.0,0.0,0.0,0.0,0.0,0.0,0.0,0.0,0.0,0.0,0.0,0.0,0.0,0.0,0.0,0.0,0.0,0.0,0.0,0.0,0.0,0.0,0.0,0.0,0.0,0.0,0.0,0.0,0.0,0.0,0.0,0.0,0.0,0.0,0.0,0.0,0.0,0.0,0.0,0.0,0.0,0.0,0.0,0.0,0.0,0.0,0.0,0.0,0.0,0.0,0.0,0.0,0.0,0.0,0.0,0.0,0.0,0.0,0.0,0.0,0.0,-0.3668,0.0,-0.3744,0.0,-0.372,-0.3507,0.0,0.0,0.0,0.0,0.0,0.0,0.0,0.0,0.0,0.0,0.0,0.0,0.0,0.0,0.0,0.0,0.0,0.0,0.0,0.0,0.0,0.0,0.0,0.0,0.0,0.0,0.0,0.0,0.0,0.0,0.0,0.0,0.0,0.0,0.0,0.0,0.0,0.0,0.0,0.0,0.0,0.0,0.0,0.0,0.0,0.0,0.0,0.0,0.0,0.0,0.0,0.0,0.0,0.0,0.0,0.0,0.0,0.0,0.0,0.0,0.0,0.0,0.0,0.0,0.0,0.0,0.0,0.0,0.0,0.0,0.0,0.0,0.0,0.0,0.0,0.0,0.0,0.0,0.0,0.0,0.0,0.0,0.0,0.0,0.0,0.0,0.0,0.0,0.0,0.0,0.0,0.0,0.0,0.0,0.0,0.0,0.0,0.0,0.0,0.0,0.0,0.0,0.0,0.0,0.0,0.0,0.0,0.0,-0.3679,-0.3792,-0.391,-0.3917,-0.3825,-0.3792,-0.3649,0.0,0.0,0.0,0.0,0.0,0.0,0.0,0.0,0.0,0.0,0.0,0.0,0.0,0.0,0.0,0.0,0.0,0.0,0.0,0.0,0.0,0.0,0.0,0.0,0.0,0.0,0.0,0.0,0.0,0.0,0.0,0.0,0.0,0.0,0.0,0.0,0.0,0.0,0.0,0.0,0.0,0.0,0.0,0.0,0.0,0.0,0.0,0.0,0.0,0.0,0.0,0.0,0.0,0.0,0.0,0.0,0.0,0.0,0.0,0.0,0.0,0.0,0.0,0.0,0.0,0.0,0.0,0.0,0.0,0.0,0.0,0.0,0.0,0.0,0.0,0.0,0.0,0.0,0.0,0.0,0.0,0.0,0.0,0.0,0.0,0.0,0.0,0.0,0.0,0.0,0.0,0.0,0.0,0.0,0.0,0.0,0.0,0.0,0.0,0.0,0.0,0.0,0.0,0.0,0.0,0.0,0.0,0.0,0.0,-0.3948,-0.3995,-0.4024,-0.4072,-0.39,-0.3704,0.0,0.0,0.0,0.0,0.0,0.0,0.0,0.0,0.0,0.0,0.0,0.0,0.0,0.0,0.0,0.0,0.0,0.0,0.0,0.0,0.0,0.0,0.0,0.0,0.0,0.0,0.0,0.0,0.0,0.0,0.0,0.0,0.0,0.0,0.0,0.0,0.0,0.0,0.0,0.0,0.0,0.0,0.0,0.0,0.0,0.0,0.0,0.0,0.0,0.0,0.0,0.0,0.0,0.0,0.0,0.0,0.0,0.0,0.0,0.0,0.0,0.0,0.0,0.0,0.0,0.0,0.0,0.0,0.0,0.0,0.0,0.0,0.0,0.0,0.0,0.0,0.0,0.0,0.0,0.0,0.0,0.0,0.0,0.0,0.0,0.0,0.0,0.0,0.0,0.0,0.0,0.0,0.0,0.0,0.0,0.0,0.0,0.0,0.0,0.0,0.0,0.0,0.0,0.0,0.0,0.0,0.0,0.0,0.0,-0.4082,-0.4187,-0.4287,-0.4297,-0.4141,-0.3945,-0.3692,0.0,0.0,0.0,0.0,0.0,0.0,0.0,0.0,0.0,0.0,0.0,0.0,0.0,0.0,0.0,0.0,0.0,0.0,0.0,0.0,0.0,0.0,0.0,0.0,0.0,0.0,0.0,0.0,0.0,0.0,0.0,0.0,0.0,0.0,0.0,0.0,0.0,0.0,0.0,0.0,0.0,0.0,0.0,0.0,0.0,0.0,0.0,0.0,0.0,0.0,0.0,0.0,0.0,0.0,0.0,0.0,0.0,0.0,0.0,0.0,0.0,0.0,0.0,0.0,0.0,0.0,0.0,0.0,0.0,0.0,0.0,0.0,0.0,0.0,0.0,0.0,0.0,0.0,0.0,0.0,0.0,0.0,0.0,0.0,0.0,0.0,0.0,0.0,0.0,0.0,0.0,0.0,0.0,0.0,0.0,0.0,0.0,0.0,0.0,0.0,0.0,0.0,0.0,0.0,0.0,0.0,0.0,0.0,-0.4216,-0.4554,-0.4668,-0.4553,-0.4498,-0.4286,0.0,0.0,0.0,0.0,0.0,0.0,0.0,0.0,0.0,0.0,0.0,0.0,0.0,0.0,0.0,0.0,0.0,0.0,0.0,0.0,0.0,0.0,0.0,0.0,0.0,0.0,0.0,0.0,0.0,0.0,0.0,0.0,0.0,0.0,0.0,0.0,0.0,0.0,0.0,0.0,0.0,0.0,0.0,0.0,0.0,0.0,0.0,0.0,0.0,0.0,0.0,0.0,0.0,0.0,0.0,0.0,0.0,0.0,0.0,0.0,0.0,0.0,0.0,0.0,0.0,0.0,0.0,0.0,0.0,0.0,0.0,0.0,0.0,0.0,0.0,0.0,0.0,0.0,0.0,0.0,0.0,0.0,0.0,0.0,0.0,0.0,0.0,0.0,0.0,0.0,0.0,0.0,0.0,0.0,0.0,0.0,0.0,0.0,0.0,0.0,0.0,0.0,0.0,0.0,0.0,0.0,0.0,0.0,0.0,-0.4581,-0.485,-0.4945,-0.4802,-0.4607,-0.4385,0.0,0.0,0.0,0.0,0.0,0.0,0.0,0.0,0.0,0.0,0.0,0.0,0.0,0.0,0.0,0.0,0.0,0.0,0.0,0.0,0.0,0.0,0.0,0.0,0.0,0.0,0.0,0.0,0.0,0.0,0.0,0.0,0.0,0.0,0.0,0.0,0.0,0.0,0.0,0.0,0.0,0.0,0.0,0.0,0.0,0.0,0.0,0.0,0.0,0.0,0.0,0.0,0.0,0.0,0.0,0.0,0.0,0.0,0.0,0.0,0.0,0.0,0.0,0.0,0.0,0.0,0.0,0.0,0.0,0.0,0.0,0.0,0.0,0.0,0.0,0.0,0.0,0.0,0.0,0.0,0.0,0.0,0.0,0.0,0.0,0.0,0.0,0.0,0.0,0.0,0.0,0.0,0.0,0.0,0.0,0.0,0.0,0.0,0.0,0.0,0.0,0.0,0.0,0.0,0.0,0.0,0.0,0.0,-0.4239,-0.4485,-0.4896,-0.5122,-0.5104,-0.4813,-0.4528,0.0,0.0,0.0,0.0,0.0,0.0,0.0,0.0,0.0,0.0,0.0,0.0,0.0,0.0,0.0,0.0,0.0,0.0,0.0,0.0,0.0,0.0,0.0,0.0,0.0,0.0,0.0,0.0,0.0,0.0,0.0,0.0,0.0,0.0,0.0,0.0,0.0,0.0,0.0,0.0,0.0,0.0,0.0,0.0,0.0,0.0,0.0,0.0,0.0,0.0,0.0,0.0,0.0,0.0,0.0,0.0,0.0,0.0,0.0,0.0,0.0,0.0,0.0,0.0,0.0,0.0,0.0,0.0,0.0,0.0,0.0,0.0,0.0,0.0,0.0,0.0,0.0,0.0,0.0,0.0,0.0,0.0,0.0,0.0,0.0,0.0,0.0,0.0,0.0,0.0,0.0,0.0,0.0,0.0,0.0,0.0,0.0,0.0,0.0,0.0,0.0,0.0,0.0,0.0,0.0,0.0,0.0,0.0,-0.4011,-0.4173,-0.4761,-0.5156,-0.5352,-0.5074,-0.4692,0.0,0.0,0.0,0.0,0.0,0.0,0.0,0.0,0.0,0.0,0.0,0.0,0.0,0.0,0.0,0.0,0.0,0.0,0.0,0.0,0.0,0.0,0.0,0.0,0.0,0.0,0.0,0.0,0.0,0.0,0.0,0.0,0.0,0.0,0.0,0.0,0.0,0.0,0.0,0.0,0.0,0.0,0.0,0.0,0.0,0.0,0.0,0.0,0.0,0.0,0.0,0.0,0.0,0.0,0.0,0.0,0.0,0.0,0.0,0.0,0.0,0.0,0.0,0.0,0.0,0.0,0.0,0.0,0.0,0.0,0.0,0.0,0.0,0.0,0.0,0.0,0.0,0.0,0.0,0.0,0.0,0.0,0.0,0.0,0.0,0.0,0.0,0.0,0.0,0.0,0.0,0.0,0.0,0.0,0.0,0.0,0.0,0.0,0.0,0.0,0.0,0.0,0.0,0.0,0.0,0.0,0.0,0.0,-0.3681,-0.3882,-0.4546,-0.496,-0.5156,-0.4976,-0.4819,0.0,0.0,0.0,0.0,0.0,0.0,0.0,0.0,0.0,0.0,0.0,0.0,0.0,0.0,0.0,0.0,0.0,0.0,0.0,0.0,0.0,0.0,0.0,0.0,0.0,0.0,0.0,0.0,0.0,0.0,0.0,0.0,0.0,0.0,0.0,0.0,0.0,0.0,0.0,0.0,0.0,0.0,0.0,0.0,0.0,0.0,0.0,0.0,-0.005,0.0,0.0,0.0,0.0,0.0,0.0,0.0,0.0,0.0,0.0,0.0,0.0,0.0,0.0,0.0,0.0,0.0,0.0,0.0,0.0,0.0,0.0,0.0,0.0,0.0,0.0,0.0,0.0,0.0,0.0,0.0,0.0,0.0,0.0,0.0,0.0,0.0,0.0,0.0,0.0,0.0,0.0,0.0,0.0,0.0,0.0,0.0,0.0,0.0,0.0,0.0,0.0,0.0,0.0,0.0,0.0,0.0,0.0,0.0,-0.3188,-0.3473,-0.4101,-0.4561,-0.4848,-0.4722,-0.4693,0.0,0.0,0.0,0.0,0.0,0.0,0.0,0.0,0.0,0.0,0.0,0.0,0.0,0.0,0.0,0.0,0.0,0.0,0.0,0.0,0.0,0.0,0.0,0.0,0.0,0.0,0.0,0.0,0.0,0.0,0.0,0.0,0.0,0.0,0.0,0.0,0.0,0.0,0.0,0.0,0.0,0.0,0.0,0.0,0.0,0.0,0.0,0.0,0.0,0.0,0.0,0.0,0.0,0.0,0.0,0.0,0.0,0.0,0.0,0.0,0.0,0.0,0.0,0.0,0.0,0.0,0.0,0.0,0.0,0.0,0.0,0.0,0.0,0.0,0.0,0.0,0.0,0.0,0.0,0.0,0.0,0.0,0.0,0.0,0.0,0.0,0.0,0.0,0.0,0.0,0.0,0.0,0.0,0.0,0.0,0.0,0.0,0.0,0.0,0.0,0.0,0.0,0.0,0.0,0.0,0.0,0.0,-0.2215,-0.2572,-0.298,-0.3548,-0.4061,-0.4453,-0.4342,-0.4387,-0.4574,0.0,0.0,0.0,0.0,0.0,0.0,0.0,0.0,0.0,0.0,0.0,0.0,0.0,0.0,0.0,0.0,0.0,0.0,0.0,0.0,0.0,0.0,0.0,0.0,0.0,0.0,0.0,0.0,0.0,0.0,0.0,0.0,0.0,0.0,0.0,0.0,0.0,0.0,0.0287,0.0439,0.0,0.0,0.0,0.0,0.0,0.0,0.0,0.0,0.0,0.0,0.0,0.0,0.0,0.0,0.0,0.0,0.0,0.0,0.0,0.0,0.0,0.0,0.0,0.0,0.0,0.0,0.0,0.0,0.0,0.0,0.0,0.0,0.0,0.0,0.0,0.0,0.0,0.0,0.0,0.0,0.0,0.0,0.0,0.0,0.0,0.0,0.0,0.0,0.0,0.0,0.0,0.0,0.0,0.0,0.0,0.0,0.0,0.0,0.0,0.0,0.0,0.0,0.0,0.0,0.0,-0.1588,-0.175,-0.1994,-0.2335,-0.2883,-0.3424,-0.3887,-0.3867,-0.3906,-0.4071,0.0,0.0,0.0,0.0,0.0,0.0,0.0,0.0,0.0,0.0,0.0,0.0,0.0,0.0,0.0,0.0,0.0,0.0,0.0,0.0,0.0,0.0,0.0,0.0,0.0,0.0,0.0,0.0,0.0,0.0,0.0,0.0,0.0,0.0,0.0,0.0,0.0,0.0,0.0,0.0983,0.1091,0.0,0.0,0.0,0.0,0.0,0.0,0.0,0.0,0.0,0.0,0.0,0.0,0.0,0.0,0.0,0.0,0.0,0.0,0.0,0.0,0.0,0.0,0.0,0.0,0.0,0.0,0.0,0.0,0.0,0.0,0.0,0.0,0.0,0.0,0.0,0.0,0.0,0.0,0.0,0.0,0.0,0.0,0.0,0.0,0.0,0.0,0.0,0.0,0.0,0.0,0.0,0.0,0.0,0.0,0.0,0.0,0.0,0.0,0.0,0.0,0.0,0.0,0.0,0.0,-0.1202,-0.1306,-0.1461,-0.1745,-0.2185,-0.2621,-0.3049,-0.3141,-0.3301,0.0,0.0,0.0,0.0,0.0,0.0,0.0,0.0,0.0,0.0,0.0,0.0,0.0,0.0,0.0,0.0,0.0,0.0,0.0,0.0,0.0,0.0,0.0,0.0,0.0,0.0,0.0,0.0,0.0,0.0,0.0,0.0,0.0,0.0,0.0,0.0,0.0,0.0,0.0,0.0,0.1548,0.1756,0.1672,0.0,0.0,0.0,0.0,0.0,0.0,0.0272,0.015,0.0,0.0,0.0,0.0,0.0,0.0,0.0,0.0,0.0,0.0,0.0,0.0,0.0,0.0,0.0,0.0,0.0,0.0,0.0,0.0,0.0,0.0,0.0,0.0,0.0,0.0,0.0,0.0,0.0,0.0,0.0,0.0,0.0,0.0,0.0,0.0,0.0,0.0,0.0,0.0,0.0,0.0,0.0,0.0,0.0,0.0,0.0,0.0,0.0,0.0,0.0,0.0,0.0,0.0,0.0,-0.0861,-0.089,-0.0959,-0.114,-0.1479,-0.1848,-0.2246,-0.2413,-0.266,0.0,0.0,0.0,0.0,0.0,0.0,0.0,0.0,0.0,0.0,0.0,0.0,0.0,0.0,0.0,0.0,0.0,0.0,0.0,0.0,0.0,0.0,0.0,0.0,0.0,0.0,0.0,0.0,0.0,0.0,0.0,0.0,0.0,0.0,0.0,0.0,0.0,0.0,0.0,0.0,0.0,0.2458,0.2415,0.2197,0.0,0.0,0.0,0.0,0.09,0.0685,0.0,0.0,0.0,0.0,0.0,0.0,0.0,0.0,0.0,0.0,0.0,0.0,0.0,0.0,0.0,0.0,0.0,0.0,0.0,0.0,0.0,0.0,0.0,0.0,0.0,0.0,0.0,0.0,0.0,0.0,0.0,0.0,0.0,0.0,0.0,0.0,0.0,0.0,0.0,0.0,0.0,0.0,0.0,0.0,0.0,0.0,0.0,0.0,0.0,0.0,0.0,0.0,0.0,0.0,0.0,0.0,-0.0735,-0.0633,-0.0587,-0.0604,-0.0806,-0.1176,-0.168,-0.178,-0.2007,0.0,0.0,0.0,0.0,0.0,0.0,0.0,0.0,0.0,0.0,0.0,0.0,0.0,0.0,0.0,0.0,0.0,0.0,0.0,0.0,0.0,0.0,0.0,0.0,0.0,0.0,0.0,0.0,0.0,0.0,0.0,0.0,0.0,0.0,0.0,0.0,0.0,0.0,0.0,0.0,0.0,0.3306,0.3186,0.3199,0.2967,0.0,0.0,0.1757,0.1313,0.1218,0.0,0.0,0.0,0.0,0.0,0.0,0.0,0.0,0.0,0.0,0.0,0.0,0.0,0.0,0.0,0.0,0.0,0.0,0.0,0.0,0.0,0.0,0.0,0.0,0.0,0.0,0.0,0.0,0.0,0.0,0.0,0.0,0.0,0.0,0.0,0.0,0.0,0.0,0.0,0.0,0.0,0.0,0.0,0.0,0.0,0.0,0.0,0.0,0.0,0.0,0.0,0.0,0.0,0.0,0.0,-0.0701,-0.0431,-0.035,-0.0327,-0.037,-0.0471,-0.0673,-0.0976,-0.1146,-0.1437,0.0,0.0,0.0,0.0,0.0,0.0,0.0,0.0,0.0,0.0,0.0,0.0,0.0,0.0,0.0,0.0,0.0,0.0,0.0,0.0,0.0,0.0,0.0,0.0,0.0,0.0,0.0,0.0,0.0,0.0,0.0,0.0,0.0,0.0,0.0,0.0,0.0,0.0,0.0,0.0,0.0,0.0,0.3808,0.3753,0.0,0.0,0.0,0.2492,0.2303,0.0,0.0,0.0,0.0,0.0,0.0,0.0,0.0,0.0,0.0,0.0,0.0,0.0,0.0,0.0,0.0,0.0,0.0,0.0,0.0,0.0,0.0,0.0,0.0,0.0,0.0,0.0,0.0,0.0,0.0,0.0,0.0,0.0,0.0,0.0,0.0,0.0,0.0,0.0,0.0,0.0,0.0,0.0,0.0,0.0,0.0,0.0,0.0,0.0,0.0,0.0,0.0,0.0,0.0,0.0,0.0,0.0,-0.0216,-0.016,-0.0165,-0.0202,-0.0202,-0.0304,-0.0438,-0.0701,0.0,0.0,0.0,0.0,0.0,0.0,0.0,0.0,0.0,0.0,0.0,0.0,0.0,0.0,0.0,0.0,0.0,0.0,0.0,0.0,0.0,0.0,0.0,0.0,0.0,0.0,0.0,0.0,0.0,0.0,0.0,0.0,0.0,0.0,0.0,0.0,0.0,0.0,0.0,0.0,0.0,0.0,0.4351,0.435,0.4273,0.4156,0.0,0.0,0.3309,0.3247,0.2919,0.2568,0.0,0.0,0.0,0.0,0.0,0.0,0.0,0.0,0.0,0.0,0.0,0.0,0.0,0.0,0.0,0.0,0.0,0.0,0.0,0.0,0.0,0.0,0.0,0.0,0.0,0.0,0.0,0.0,0.0,0.0,0.0,0.0,0.0,0.0,0.0,0.0,0.0,0.0,0.0,0.0,0.0,0.0,0.0,0.0,0.0,0.0,0.0,0.0,0.0,0.0,0.0,0.0,0.0,0.0,-0.0231,-0.0185,-0.0065,0.0,0.0,0.0,-0.0135,-0.0303,-0.0574,-0.0882,0.0,0.0,0.0,0.0,0.0,0.0,0.0,0.0,0.0,0.0,0.0,0.0,0.0,0.0,0.0,0.0,0.0,0.0,0.0,0.0,0.0,0.0,0.0,0.0,0.0,0.0,0.0,0.0,0.0,0.0,0.0,0.0,0.0,0.0,0.0,0.0,0.0,0.0,0.0,0.0,0.0,0.4716,0.4855,0.4954,0.4912,0.0,0.4517,0.4353,0.3992,0.3894,0.3657,0.3045,0.0,0.0,0.0,0.0,0.0,0.0,0.0,0.0,0.0,0.0,0.0,0.0,0.0,0.0,0.0,0.0,0.0,0.0,0.0,0.0,0.0,0.0,0.0,0.0,0.0,0.0,0.0,0.0,0.0,0.0,0.0,0.0,0.0,0.0,0.0,0.0,0.0,0.0,0.0,0.0,0.0,0.0,0.0,0.0,0.0,0.0,0.0,0.0,0.0,0.0,0.0,0.0,0.0,-0.0145,-0.0093,-0.0033,0.0,0.0,0.0,-0.0034,-0.0101,-0.0292,-0.0589,0.0,0.0,0.0,0.0,0.0,0.0,0.0,0.0,0.0,0.0,0.0,0.0,0.0,0.0,0.0,0.0,0.0,0.0,0.0,0.0,0.0,0.0,0.0,0.0,0.0,0.0,0.0,0.0,0.0,0.0022,0.0112,0.0,0.0,0.0,0.0,0.0,0.0,0.0,0.0,0.0,0.0,0.488,0.502,0.5062,0.0,0.0,0.4794,0.4664,0.4531,0.4428,0.4235,0.3909,0.36,0.0,0.0,0.0,0.0,0.0,0.0,0.0,0.0,0.0,0.0,0.0,0.0,0.0,0.0,0.0,0.0,0.0,0.0,0.0,0.0,0.0,0.0,0.0,0.0,0.0,0.0,0.0,0.0,0.0,0.0,0.0,0.0,0.0,0.0,0.0,0.0,0.0,0.0,0.0,0.0,0.0,0.0,0.0,0.0,0.0,0.0,0.0,0.0,0.0,0.0,0.0,0.0,-0.0087,0.0,0.0,0.0,0.0,0.0,0.0,0.0,-0.0131,-0.0378,0.0,0.0,0.0,0.0,0.0,0.0,0.0,0.0,0.0,0.0,0.0,0.0,0.0,0.0,0.0,0.0,0.0,0.0,0.0,0.0,0.0,0.0,0.0,0.0,0.0,0.0,0.0,0.0,0.0112,0.0181,0.032,0.0,0.0,0.0,0.0,0.0,0.0,0.0,0.0,0.0,0.0,0.5002,0.5179,0.5189,0.519,0.519,0.506,0.4997,0.4964,0.4891,0.4779,0.458,0.0,0.0,0.0,0.0,0.0,0.0,0.0,0.0,0.0,0.0,0.0,0.0,0.0,0.0,0.0,0.0,0.0,0.0,0.0,0.0,0.0,0.0,0.0,0.0,0.0,0.0,0.0,0.0,0.0,0.0,0.0,0.0,0.0,0.0,0.0,0.0,0.0,0.0,0.0,0.0,0.0,0.0,0.0,0.0,0.0,0.0,0.0,0.0,0.0,0.0,0.0,0.0,0.0,0.0,0.0,0.0,0.0,0.0,0.0,0.0,0.0,-0.0131,-0.035,-0.0678,0.0,0.0,0.0,0.0,0.0,0.0,0.0,0.0,0.0,0.0,0.0,0.0,0.0,0.0,0.0,0.0,0.0,0.0,0.0,0.0,0.0,0.0,0.0,0.0,0.0,0.0,0.0383,0.0382,0.048,0.0,0.0,0.0,0.0,0.0,0.0,0.0,0.0,0.0,0.5014,0.509,0.5179,0.5361,0.5392,0.5395,0.5392,0.5392,0.5359,0.5392,0.5392,0.5278,0.0,0.0,0.0,0.0,0.0,0.0,0.0,0.0,0.0,0.0,0.0,0.0,0.0,0.0,0.0,0.0,0.0,0.0,0.0,0.0,0.0,0.0,0.0,0.0,0.0,0.0,0.0,0.0225,0.0149,0.0,0.0,0.0,0.0,0.0,0.0,0.0,0.0,0.0,0.0,0.0,0.0,0.0,0.0,0.0,0.0,0.0,0.0,0.0,0.0,0.0,0.0,0.0,0.0,0.0,0.0,0.0,0.0,0.0,0.0,0.0,0.0,0.0,-0.0067,-0.0225,-0.048,0.0,0.0,0.0,0.0,0.0,0.0,0.0,0.0,0.0,0.0,0.0,0.0,0.0,0.0,0.0,0.0,0.0,0.0,0.0,0.0,0.0,0.0,0.0,0.0,0.0,0.0794,0.0,0.0,0.0,0.0,0.0,0.0,0.0,0.0,0.0,0.0,0.0,0.485,0.5073,0.51,0.5157,0.5371,0.5395,0.5395,0.0,0.0,0.0,0.0,0.0,0.0,0.0,0.0,0.0,0.0,0.0,0.0,0.0,0.0,0.4565,0.4922,0.5179,0.5456,0.5758,0.0,0.0,0.0,0.0,0.0,0.0,0.0,0.0,0.0,0.0,0.0,0.0,0.0,0.0,0.0351,0.024,0.0237,0.0,0.0,0.0,0.0,0.0,0.0,0.0,0.0,0.0,0.0,0.0,0.0,0.0,0.0,0.0,0.0,0.0,0.0,0.0,0.0,0.0,0.0,0.0,0.0,0.0,0.0,0.0,0.0,0.0,0.0,0.0,0.0,-0.0033,-0.0162,-0.0335,-0.0549,-0.0646,0.0,0.0,0.0,0.0,0.0,0.0,0.0,0.0,0.0,0.0,0.0,0.0,0.0,0.0,0.0,0.0,0.0,0.0,0.0,0.0,0.0,0.0,0.0,0.1366,0.0,0.0,0.0,0.0,0.0,0.0,0.0,0.0,0.0,0.4426,0.4748,0.5043,0.5192,0.5209,0.5247,0.5382,0.0,0.0,0.0,0.0,0.0,0.0,0.0,0.5412,0.5467,0.5416,0.5426,0.5475,0.5337,0.5282,0.5445,0.0,0.0,0.562,0.582,0.6125,0.6503,0.6833,0.7194,0.7587,0.7862,0.8129,0.0,0.0,0.0,0.0,0.0295,0.0,0.0,0.0,0.0517,0.0454,0.0,0.0314,0.0,0.0,0.0,0.0,0.0,0.0,0.0,0.0,0.0,0.0,0.0,0.0,0.0,0.0,0.0,0.0,0.0,0.0,0.0,0.0,0.0,0.0,0.0,0.0,0.0,0.0,0.0,0.0,0.0,0.0,0.0,0.0,-0.0131,-0.0194,-0.0193,-0.0297,-0.0394,-0.0392,-0.032,0.0,0.0,0.0,0.0,0.0,0.0,0.0,0.0,0.0,0.0,0.0,0.0,0.0,0.0,0.0,0.0,0.0,0.0,0.0,0.0,0.1876,0.0,0.0,0.0,0.0,0.0,0.0,0.0,0.0,0.0,0.0,0.4865,0.5018,0.5164,0.5382,0.0,0.0,0.0,0.0,0.5412,0.5412,0.5409,0.5412,0.5412,0.5412,0.5463,0.5572,0.0,0.0,0.5786,0.581,0.594,0.6337,0.6378,0.6314,0.6032,0.6175,0.6437,0.6913,0.748,0.7928,0.823,0.8764,0.9285,0.0,0.0,0.0,0.0,0.0,0.0396,0.0549,0.0732,0.08,0.0707,0.0457,0.0453,0.0,0.0,0.0,0.0,0.0,0.0,0.0,0.0,0.0,0.0,0.0,0.0,0.0,0.0,0.0,0.0,0.0,0.0,0.0,0.0,0.0,0.0,0.0,0.0,0.0,0.0,0.0,0.0,0.0,0.0,0.0,0.0,-0.0033,-0.0066,-0.0065,-0.0095,-0.0122,-0.0116,-0.011,0.0,0.0,0.0,0.0,0.0,0.0,0.0,0.0,0.0,0.0,0.0,0.0,0.0,0.0,0.0,0.0,0.0,0.0,0.0,0.2699,0.2885,0.2887,0.0,0.0,0.0,0.0,0.0,0.0,0.0,0.0,0.0,0.5332,0.5329,0.5352,0.0,0.0,0.5556,0.5559,0.5613,0.5677,0.5674,0.5674,0.0,0.5674,0.5674,0.5691,0.5732,0.583,0.5882,0.5959,0.6073,0.6218,0.6367,0.6627,0.6879,0.7018,0.7188,0.7522,0.8073,0.8563,0.8978,0.9293,0.9723,1.0103,0.0,0.0,0.0,0.0168,0.043,0.0496,0.0695,0.096,0.096,0.0794,0.0529,0.0458,0.026,0.0,0.0,0.0,0.0,0.0,0.0,0.0,0.0,0.0,0.0,0.0,0.0,0.0,0.0,0.0,0.0,0.0,0.0,0.0,0.0,0.0,0.0,0.0,0.0,0.0,0.0,0.0,0.0,0.0,0.0,0.0,0.0,0.0,0.0,0.0,0.0,0.0,0.0,0.0,0.0,0.0,0.0,0.0,0.0,0.0,0.0,0.0,0.0,0.0,0.0,0.0983,0.121,0.0,0.0,0.0,0.242,0.2942,0.3608,0.3652,0.0,0.0,0.0,0.0,0.0,0.0,0.0,0.4558,0.4935,0.5294,0.5693,0.5665,0.5569,0.5661,0.5674,0.5674,0.5674,0.0,0.58,0.58,0.58,0.58,0.58,0.58,0.582,0.5884,0.6017,0.6156,0.6232,0.6342,0.6532,0.6781,0.7053,0.7343,0.7897,0.8148,0.8372,0.8765,0.9257,0.9747,1.0143,1.0574,1.0968,0.0,0.0,0.0,0.0219,0.0583,0.0583,0.0801,0.1129,0.0947,0.0765,0.0545,0.0391,0.0211,0.0,0.0,0.0,0.0,0.0,0.0,0.0,0.0,0.0,0.0,0.0,0.0,0.0,0.0,0.0,0.0,0.0,0.0,0.0,0.0,0.0,0.0,0.0,0.0,0.0,0.0,0.0,0.0,0.0,0.0,0.0,0.0,0.0,0.0,0.0,0.0,0.0,0.0,0.0,0.0,0.0,0.0,0.0,0.0,0.0,0.0,0.0,0.0,0.0,0.0,0.0,0.0,0.0,0.0,0.0,0.3229,0.0,0.4222,0.4244,0.0,0.0,0.0,0.4215,0.4086,0.4405,0.4727,0.4931,0.0,0.0,0.5935,0.5872,0.5823,0.5837,0.583,0.582,0.582,0.5837,0.584,0.5857,0.5844,0.584,0.5871,0.59,0.5941,0.6064,0.6207,0.6398,0.663,0.6668,0.6903,0.7421,0.7595,0.7812,0.8585,0.8898,0.9105,0.9148,0.9705,1.0327,1.0695,1.1211,1.1686,0.0,0.0,0.0,0.0151,0.0364,0.0364,0.0474,0.0656,0.0619,0.051,0.0364,0.0326,0.018,0.0,0.0,0.0,0.0,0.0,0.0,0.0,0.0,0.0,0.0,0.0,0.0,0.0,0.0,0.0,0.0,0.0,0.0,0.0,0.0,0.0,0.0,0.0,0.0,0.0,0.0,0.0,0.0,0.0,0.0,0.0,0.0,0.0,0.0,0.0,0.0,0.0,0.0,0.0,0.0,0.0,0.0,0.0,0.0,0.0,0.0,0.0,0.0,0.0,0.0,0.1911,0.2453,0.0,0.3054,0.0,0.399,0.44,0.4727,0.4746,0.0,0.0,0.4766,0.4831,0.4703,0.5043,0.5313,0.5351,0.5584,0.5788,0.5973,0.5959,0.5979,0.617,0.6047,0.5936,0.5979,0.6078,0.6187,0.618,0.6177,0.619,0.6218,0.6301,0.6377,0.6461,0.6615,0.6826,0.7026,0.718,0.7446,0.7872,0.8212,0.8589,0.9089,0.9425,0.9771,1.0074,1.0319,1.0539,1.0947,1.1403,1.1781,0.0,0.0,0.0,0.0077,0.0151,0.0264,0.0377,0.0528,0.0453,0.0377,0.0302,0.0226,0.0113,0.0,0.0,0.0,0.0,0.0,0.0,0.0,0.0,0.0,0.0,0.0,0.0,0.0,0.0,0.0,0.0,0.0,0.0,0.0,0.0,0.0,0.0,0.0,0.0,0.0,0.0,0.0,0.0,0.0,0.0,0.0,0.0,0.0,0.0,0.0,0.0,0.0,0.0,0.0,0.0,0.0,0.0,0.0,0.0,0.0,0.0,0.0,0.0,0.0,0.0,0.0,0.0,0.0,0.3706,0.4166,0.4503,0.4817,0.5098,0.5118,0.5133,0.5196,0.5319,0.5383,0.5315,0.5552,0.5725,0.5725,0.5892,0.6037,0.6122,0.6135,0.6162,0.6286,0.6224,0.6132,0.6139,0.621,0.63,0.63,0.63,0.6335,0.6412,0.6525,0.6641,0.6834,0.6949,0.7176,0.7526,0.7718,0.7949,0.8522,0.8822,0.9127,0.962,0.996,1.0293,1.0663,1.085,1.0999,1.1298,1.1595,1.1892,0.0,0.0,0.0,0.0,0.0,0.0196,0.0354,0.0511,0.0314,0.0275,0.0236,0.0079,0.0,0.0,0.0,0.0,0.0,0.0,0.0,0.0,0.0,0.0,0.0,0.0,0.0,0.0,0.0,0.0,0.0,0.0,0.0,0.0,0.0,0.0,0.0,0.0,0.0,0.0,0.0,0.0,0.0,0.0,0.0,0.0,0.0,0.0,0.0,0.0,0.0,0.0,0.0,0.0,0.0,0.0,0.0,0.0,0.013,0.0,0.0,0.0,0.0,0.0,0.0,0.0,0.0,0.3736,0.4308,0.4714,0.49,0.5087,0.5399,0.544,0.5521,0.5766,0.582,0.583,0.5837,0.5966,0.6057,0.6061,0.6176,0.6296,0.6293,0.63,0.6296,0.63,0.6293,0.6282,0.6296,0.6296,0.63,0.63,0.6338,0.6412,0.6567,0.6679,0.6868,0.718,0.7373,0.7565,0.8178,0.8293,0.8522,0.9208,0.9435,0.9663,1.0218,1.0475,1.0738,1.1111,1.1335,1.1521,1.1669,1.1855,1.2077,0.0,0.0,0.0,0.0,0.0,0.0039,0.0079,0.0118,0.0079,0.0039,0.0039,0.0,0.0,0.0,0.0,0.0,0.0,0.0,0.0,0.0,0.0,0.0,0.0,0.0,0.0,0.0,0.0,0.0,0.0,0.0,0.0,0.0,0.0,0.0,0.0,0.0,0.0,0.0,0.0,0.0,0.0,0.0,0.0,0.0,0.0,0.0,0.0,0.0,0.0,0.0,0.0,0.0,0.0,0.0,0.0,0.0,0.0,0.0,0.0,0.0,0.0,0.0,0.296,0.3441,0.3817,0.4388,0.4813,0.5014,0.517,0.5352,0.5528,0.565,0.5739,0.5796,0.5875,0.5949,0.5952,0.6122,0.6255,0.6259,0.6282,0.63,0.63,0.63,0.63,0.63,0.63,0.63,0.63,0.63,0.63,0.63,0.6451,0.6563,0.6602,0.7022,0.7407,0.7672,0.7978,0.8365,0.8903,0.9056,0.9279,0.9922,1.0186,1.0406,1.085,1.1068,1.1298,1.1558,1.1744,1.1892,1.1929,1.1966,1.204,0.0,0.0,0.0,0.0,0.0,0.0,0.0,0.0,0.0,0.0,0.0,0.0,0.0,0.0,0.0,0.0,0.0,0.0,0.0,0.0,0.0,0.0,0.0,0.0,0.0,0.0,0.0,0.0,0.0,0.0,0.0,0.0,0.0,0.0,0.0,0.0,0.0,0.0,0.0,0.0,0.0,0.0,0.0,0.0,0.0,0.0,0.0,0.0,0.0,0.0,0.0,0.0,0.0,0.0,0.0,0.0118,0.0261,0.0488,0.0833,0.143,0.2015,0.2555,0.3494,0.4156,0.443,0.4797,0.5086,0.5338,0.5426,0.5566,0.5783,0.5871,0.5945,0.602,0.6098,0.6142,0.6152,0.6248,0.6296,0.63,0.63,0.63,0.63,0.63,0.63,0.63,0.63,0.63,0.63,0.63,0.6338,0.6451,0.6721,0.6911,0.7061,0.745,0.7944,0.8322,0.8665,0.9051,0.9657,0.9803,1.0067,1.0519,1.0812,1.1037,1.1335,1.1558,1.175,1.1855,1.2003,1.2157,1.2157,1.215,1.2187,0.0,0.0,0.0,0.0,0.0,0.0,0.0,0.0,0.0,0.0,0.0,0.0,0.0,0.0,0.0,0.0,0.0,0.0,0.0,0.0,0.0,0.0,0.0,0.0,0.0,0.0,0.0,0.0,0.0,0.0,0.0,0.0,0.0,0.0,0.0,0.0,0.0,0.0,0.0,0.0,0.0,0.0,0.0,0.0,0.0,0.0,0.0,0.0,0.0,0.0,0.0033,0.0033,0.0065,0.0065,0.016,0.0312,0.0495,0.0742,0.1088,0.174,0.2394,0.2966,0.4022,0.4727,0.4922,0.5103,0.5285,0.5569,0.5637,0.5769,0.5969,0.6057,0.6118,0.6286,0.63,0.6296,0.6296,0.63,0.63,0.63,0.63,0.63,0.63,0.63,0.63,0.63,0.63,0.6338,0.6335,0.6374,0.6451,0.6679,0.6988,0.7296,0.7599,0.7983,0.8441,0.9003,0.9311,0.9695,1.0218,1.0513,1.0775,1.1117,1.1372,1.1558,1.1706,1.1892,1.2046,1.204,1.2194,1.2305,1.2305,1.2305,1.2305,0.0,0.0,0.0,0.0,0.0,0.0,0.0,0.0,0.0,0.0,0.0,0.0,0.0,0.0,0.0,0.0,0.0,0.0,0.0,0.0,0.0,0.0,0.0,0.0,0.0,0.0,0.0,0.0,0.0,0.0,0.0,0.0,0.0,0.0,0.0,0.0,0.0,0.0,0.0,0.0,0.0,0.0,0.0,0.0,0.0,0.0,0.0,0.0,0.0,0.0,0.016,0.0259,0.0258,0.0356,0.0451,0.0481,0.0752,0.1092,0.1502,0.2144,0.3037,0.4197,0.4623,0.4866,0.5064,0.5346,0.5542,0.5599,0.5813,0.5946,0.6034,0.6149,0.6265,0.6293,0.63,0.63,0.63,0.63,0.63,0.63,0.63,0.63,0.63,0.63,0.63,0.63,0.6296,0.6377,0.6567,0.656,0.6718,0.7026,0.7292,0.7599,0.8021,0.8513,0.9008,0.9435,0.9986,1.0443,1.085,1.1111,1.1335,1.1558,1.1744,1.1892,1.1972,1.212,1.2231,1.2231,1.2268,1.2305,1.2305,1.2305,1.2305,0.0,0.0,0.0,0.0,0.0,0.0,0.0,0.0,0.0,0.0,0.0,0.0,0.0,0.0,0.0,0.0,0.0,0.0,0.0,0.0,0.0,0.0,0.0,0.0,0.0,0.0,0.0,0.0,0.0,0.0,0.0,0.0,0.0,0.0,0.0,0.0,0.0,0.0,0.0,0.0,0.0,0.0101,0.0169,0.0168,0.0233,0.0265,0.0264,0.0261,0.0259,0.0259,0.0361,0.043,0.0397,0.0561,0.0693,0.0825,0.1141,0.1497,0.1879,0.2766,0.364,0.4522,0.4895,0.5141,0.5345,0.5514,0.5654,0.581,0.5919,0.6067,0.6142,0.6255,0.63,0.63,0.63,0.63,0.63,0.63,0.63,0.63,0.63,0.63,0.63,0.63,0.63,0.63,0.6374,0.6602,0.7026,0.7173,0.7326,0.7518,0.7902,0.8284,0.8675,0.916,0.9652,1.0175,1.0556,1.0962,1.1335,1.1595,1.1744,1.1855,1.2009,1.215,1.215,1.2224,1.2305,1.2305,1.2305,1.2305,1.2305,1.2305,1.2305,0.0,0.0,0.0,0.0,0.0,0.0,0.0,0.0,0.0,0.0,0.0,0.0,0.0,0.0,0.0,0.0,0.0,0.0,0.0,0.0,0.0,0.0,0.0,0.0,0.0,0.0,0.0,0.0,0.0,0.0,0.0,0.0,0.0,0.0,0.0,0.0077,0.0075,0.0073,0.0105,0.0102,0.0067,0.0236,0.0371,0.0404,0.0505,0.0573,0.064,0.0606,0.064,0.064,0.0674,0.0674,0.0674,0.0908,0.1109,0.1277,0.158,0.2017,0.2555,0.3412,0.4198,0.4705,0.5133,0.5437,0.5649,0.5691,0.5779,0.5952,0.602,0.6135,0.6269,0.6296,0.63,0.63,0.63,0.63,0.63,0.63,0.63,0.63,0.63,0.63,0.63,0.63,0.6338,0.6374,0.6602,0.7022,0.748,0.7821,0.8084,0.8241,0.8589,0.8975,0.9435,0.9846,1.0293,1.0812,1.1111,1.1409,1.17,1.1929,1.204,1.2077,1.2194,1.2268,1.2305,1.2305,1.2305,1.2305,1.2305,1.2305,1.2305,1.2305,1.2305,0.0,0.0,0.0,0.0,0.0,0.0,0.0,0.0,0.0,0.0,0.0,0.0,0.0,0.0,0.0,0.0,0.0,0.0,0.0,0.0,0.0,0.0,0.0,0.0,0.0,0.0,0.0,0.0,0.0,0.0,0.0,0.0,0.0,0.0,0.0,0.0192,0.0265,0.0264,0.0466,0.0449,0.0304,0.0405,0.0573,0.074,0.0773,0.0874,0.1043,0.1043,0.1042,0.1042,0.1177,0.1211,0.1244,0.158,0.1816,0.1849,0.2154,0.269,0.3565,0.412,0.4663,0.519,0.5384,0.5623,0.5922,0.5949,0.5956,0.6054,0.6159,0.6272,0.63,0.63,0.63,0.63,0.63,0.63,0.63,0.63,0.63,0.63,0.6335,0.63,0.6335,0.6335,0.6416,0.6644,0.7061,0.748,0.7821,0.8428,0.8965,0.9241,0.9359,0.9544,1.003,1.0438,1.0775,1.1074,1.1564,1.1855,1.1966,1.2114,1.2268,1.2231,1.2268,1.2305,1.2305,1.2305,1.2305,1.2305,1.2305,1.2305,1.2305,1.2305,1.2342,0.0,0.0,0.0,0.0,0.0,0.0,0.0,0.0,0.0,0.0,0.0,0.0,0.0,0.0,0.0,0.0,0.0,0.0,0.0,0.0,0.0,0.0,0.0,0.0,0.0,0.0,0.0,0.0,0.0,0.0,0.0,0.0,0.0,0.0,0.0196,0.0272,0.0423,0.0644,0.0853,0.1008,0.1073,0.095,0.0975,0.1244,0.1378,0.1547,0.1715,0.1748,0.1748,0.1748,0.1816,0.1849,0.1816,0.2185,0.2385,0.2421,0.2901,0.3475,0.4156,0.4582,0.4971,0.54,0.5673,0.5858,0.5986,0.6112,0.6166,0.6173,0.6262,0.63,0.63,0.63,0.63,0.63,0.63,0.63,0.63,0.6412,0.649,0.6486,0.6602,0.6637,0.6637,0.6676,0.6791,0.7099,0.7484,0.7842,0.8289,0.8927,0.9501,1.003,1.0255,1.0443,1.07,1.0962,1.126,1.1558,1.1818,1.2003,1.215,1.2231,1.2305,1.2305,1.2305,1.2305,1.2305,1.2305,1.2305,1.2305,1.2305,1.2305,1.2305,1.2415,1.2452,0.0,0.0,0.0,0.0,0.0,0.0,0.0,0.0,0.0,0.0,0.0,0.0,0.0,0.0,0.0,0.0,0.0,0.0,0.0,0.0,0.0,0.0,0.0,0.0,0.0,0.0,0.0,0.0,0.0,0.0,0.0,0.0,0.0039,0.0157,0.0314,0.0471,0.074,0.1073,0.1331,0.1635,0.1937,0.1778,0.1747,0.1939,0.2109,0.228,0.2518,0.2518,0.2509,0.2458,0.249,0.249,0.249,0.2757,0.2965,0.3159,0.3629,0.4172,0.4693,0.503,0.5322,0.5626,0.5932,0.6057,0.6112,0.6235,0.6293,0.6293,0.63,0.63,0.63,0.63,0.63,0.6377,0.6374,0.6412,0.649,0.6602,0.6676,0.6676,0.6788,0.6903,0.6992,0.7138,0.7371,0.7686,0.8108,0.8519,0.9106,0.9741,1.039,1.0714,1.1157,1.1384,1.1322,1.1409,1.1706,1.1892,1.204,1.2157,1.2268,1.2305,1.2305,1.2305,1.2305,1.2305,1.2305,1.2305,1.2305,1.2305,1.2305,1.2342,1.2415,1.2562,1.2709,0.0,0.0,0.0,0.0,0.0,0.0,0.0,0.0,0.0,0.0,0.0,0.0,0.0,0.0,0.0,0.0,0.0,0.0,0.0,0.0,0.0,0.0,0.0,0.0,0.0,0.0,0.0,0.0,0.0,0.0,0.0,0.0,0.0196,0.0314,0.0432,0.0943,0.1375,0.1601,0.1955,0.2416,0.289,0.29,0.2865,0.2912,0.2867,0.3006,0.3287,0.3356,0.3285,0.3165,0.3171,0.3167,0.32,0.337,0.3718,0.4181,0.4373,0.4704,0.5212,0.5528,0.5793,0.5962,0.6149,0.6279,0.6265,0.6286,0.6296,0.63,0.63,0.63,0.6338,0.6335,0.6412,0.6525,0.6602,0.6676,0.6868,0.6903,0.6903,0.6907,0.703,0.7204,0.7281,0.7717,0.8115,0.848,0.9082,0.9741,1.0234,1.0998,1.1384,1.157,1.1909,1.2228,1.182,1.1818,1.1929,1.204,1.2187,1.2268,1.2268,1.2305,1.2305,1.2305,1.2305,1.2305,1.2305,1.2305,1.2305,1.2305,1.2342,1.2378,1.2562,1.2746,1.3003,0.0,0.0,0.0,0.0,0.0,0.0,0.0,0.0,0.0,0.0,0.0,0.0,0.0,0.0,0.0,0.0,0.0,0.0,0.0,0.0,0.0,0.0,0.0,0.0,0.0,0.0,0.0,0.0,0.0,0.0118,0.0196,0.0236,0.0393,0.0629,0.0943,0.1297,0.1767,0.2353,0.264,0.3109,0.3745,0.3817,0.4001,0.4332,0.3943,0.3839,0.4051,0.4161,0.4212,0.4172,0.4172,0.4172,0.4174,0.4345,0.461,0.4909,0.5093,0.5271,0.5584,0.5783,0.5978,0.6179,0.6265,0.63,0.63,0.63,0.63,0.63,0.63,0.6335,0.649,0.6486,0.6525,0.6598,0.6834,0.7026,0.7138,0.7288,0.7476,0.7531,0.7802,0.8204,0.8396,0.8693,0.9048,0.946,0.9883,1.0384,1.095,1.1559,1.1994,1.2189,1.2389,1.2503,1.2474,1.2256,1.2194,1.2231,1.2268,1.2268,1.2305,1.2305,1.2305,1.2305,1.2305,1.2305,1.2305,1.2305,1.2305,1.2342,1.2378,1.2526,1.2753,1.3046,1.3411,0.0,0.0,0.0,0.0,0.0,0.0,0.0,0.0,0.0,0.0,0.0,0.0,0.0,0.0,0.0,0.0,0.0,0.0,0.0,0.0,0.0,0.0,0.0,0.0,0.0,0.0,0.0079,0.0118,0.0196,0.0354,0.0432,0.0511,0.0707,0.106,0.1453,0.1806,0.2316,0.294,0.3329,0.384,0.4434,0.4581,0.4847,0.5179,0.4961,0.4746,0.4747,0.4893,0.4944,0.4912,0.4903,0.487,0.4903,0.5009,0.521,0.5444,0.5526,0.5717,0.5916,0.6005,0.6096,0.6257,0.63,0.63,0.63,0.63,0.63,0.63,0.63,0.6374,0.6563,0.6718,0.6834,0.6911,0.718,0.7446,0.7565,0.7902,0.8166,0.8387,0.8804,0.9227,0.9493,0.9756,1.01,1.05,1.0794,1.126,1.1752,1.2255,1.2585,1.2779,1.2752,1.2744,1.2667,1.2441,1.2288,1.2268,1.2268,1.2305,1.2305,1.2305,1.2305,1.2305,1.2305,1.2305,1.2305,1.2305,1.2342,1.2378,1.2489,1.2636,1.301,1.3411,1.3848,0.0,0.0,0.0,0.0,0.0,0.0,0.0,0.0,0.0,0.0,0.0,0.0,0.0,0.0,0.0,0.0,0.0,0.0,0.0,0.0,0.0,0.0,0.0,0.0,0.0,0.0,0.0196,0.0393,0.0589,0.0629,0.0786,0.0943,0.1218,0.1531,0.192,0.251,0.2981,0.3487,0.4031,0.4574,0.5002,0.5187,0.5381,0.5622,0.5722,0.5698,0.5513,0.551,0.5458,0.5346,0.5331,0.5309,0.5337,0.5337,0.5484,0.5743,0.5809,0.5995,0.6227,0.6254,0.6257,0.63,0.63,0.63,0.63,0.63,0.63,0.6335,0.6338,0.6416,0.6641,0.6949,0.7253,0.7484,0.7672,0.7978,0.8327,0.8594,0.8899,0.9301,0.9739,1.0103,1.0393,1.0749,1.1097,1.1475,1.1888,1.2342,1.2614,1.3084,1.3435,1.3346,1.3193,1.3107,1.2832,1.2563,1.2405,1.2305,1.2305,1.2305,1.2305,1.2305,1.2305,1.2305,1.2305,1.2305,1.2305,1.2305,1.2415,1.2489,1.2599,1.2863,1.3368,1.3848,1.4346,0.0,0.0,0.0,0.0,0.0,0.0,0.0,0.0,0.0,0.0,0.0,0.0,0.0,0.0,0.0,0.0088,0.0261,0.0257,0.0167,0.0,0.0,0.008,0.0197,0.0236,0.0275,0.0432,0.0629,0.0746,0.0864,0.114,0.1414,0.1608,0.1804,0.2195,0.2702,0.3056,0.3526,0.4268,0.4654,0.5082,0.5589,0.5667,0.5825,0.6067,0.6141,0.6157,0.6036,0.6075,0.6051,0.5957,0.6005,0.6005,0.5967,0.5967,0.6028,0.6141,0.6148,0.6161,0.6282,0.63,0.63,0.63,0.63,0.63,0.63,0.63,0.6377,0.649,0.6486,0.6641,0.6949,0.7253,0.7522,0.7706,0.8127,0.8589,0.9013,0.9322,0.9719,1.0162,1.0496,1.0899,1.1378,1.1782,1.2089,1.2439,1.2741,1.3009,1.3307,1.3525,1.3773,1.3803,1.362,1.3367,1.3039,1.2757,1.2543,1.2358,1.2305,1.2305,1.2305,1.2305,1.2305,1.2305,1.2305,1.2305,1.2305,1.2342,1.2422,1.2663,1.2868,1.3258,1.3783,1.4343,1.4945,0.0,0.0,0.0,0.0,0.0,0.0,0.0,0.0,0.0,0.0,0.0,0.0,0.0045,0.0135,0.0135,0.0312,0.0528,0.0616,0.0561,0.0376,0.0289,0.0327,0.0443,0.0519,0.0716,0.0992,0.1182,0.1295,0.1412,0.1728,0.208,0.2313,0.2468,0.2898,0.3524,0.3798,0.4229,0.4851,0.5198,0.5512,0.5864,0.598,0.6138,0.6257,0.63,0.63,0.63,0.63,0.63,0.63,0.63,0.63,0.63,0.6293,0.63,0.63,0.6296,0.6296,0.63,0.63,0.63,0.63,0.6374,0.6412,0.6412,0.6451,0.6602,0.6676,0.6791,0.6949,0.7257,0.7638,0.794,0.8241,0.8661,0.9198,0.9738,1.0263,1.0737,1.1178,1.1542,1.1963,1.2385,1.2656,1.2875,1.3179,1.3264,1.3355,1.3652,1.3786,1.3955,1.3973,1.374,1.35,1.324,1.2939,1.267,1.2452,1.2305,1.2305,1.2305,1.2305,1.2305,1.2305,1.2305,1.2305,1.2305,1.2311,1.2385,1.2721,1.3165,1.3777,1.435,1.5073,1.5708,0.0,0.0,0.0,0.0,0.0,0.0,0.0,0.0,0.0,0.0,0.0,0.0,0.018,0.0359,0.0404,0.0582,0.0762,0.1074,0.1196,0.1172,0.1025,0.097,0.0918,0.1108,0.1423,0.1696,0.1907,0.2084,0.2195,0.247,0.2743,0.3093,0.321,0.3561,0.4265,0.4621,0.4893,0.5321,0.5667,0.586,0.5941,0.6138,0.63,0.63,0.63,0.63,0.63,0.63,0.63,0.63,0.63,0.63,0.63,0.63,0.63,0.63,0.63,0.6338,0.6338,0.6335,0.6335,0.6412,0.6525,0.6602,0.6676,0.6791,0.6942,0.7019,0.7176,0.7334,0.7638,0.8097,0.8589,0.9041,0.9349,0.9889,1.0715,1.1244,1.1678,1.2181,1.271,1.308,1.3224,1.3336,1.3392,1.3476,1.3603,1.3695,1.3786,1.3913,1.4046,1.3988,1.3861,1.3547,1.3313,1.3113,1.2792,1.2432,1.2305,1.2305,1.2305,1.2305,1.2305,1.2305,1.2305,1.2305,1.2305,1.2342,1.2611,1.306,1.3636,1.4295,1.4988,1.5678,1.638,0.0,0.0,0.0,0.0,0.0,0.0,0.0,0.0,0.0,0.0,0.0,0.0224,0.0359,0.0448,0.0762,0.1031,0.1301,0.1705,0.2016,0.2136,0.2301,0.2076,0.1902,0.2133,0.2314,0.2445,0.2743,0.2908,0.2901,0.3255,0.3567,0.3841,0.3992,0.4302,0.4807,0.5046,0.5359,0.5705,0.5822,0.6018,0.6177,0.6257,0.63,0.63,0.63,0.63,0.63,0.63,0.63,0.63,0.63,0.63,0.6296,0.6296,0.6296,0.6335,0.63,0.6377,0.649,0.6525,0.6602,0.6753,0.6788,0.6911,0.7026,0.7107,0.7253,0.748,0.7753,0.7949,0.8217,0.8713,0.9316,0.9986,1.0278,1.0642,1.1282,1.1794,1.2251,1.2734,1.2934,1.3214,1.3526,1.3652,1.3695,1.3822,1.3913,1.3955,1.3955,1.4004,1.4088,1.4088,1.3961,1.3661,1.34,1.322,1.2913,1.2458,1.2305,1.2305,1.2305,1.2305,1.2305,1.2305,1.2342,1.2378,1.2378,1.2415,1.2893,1.3417,1.3972,1.4546,1.541,1.6177,1.6901,0.0,0.0,0.0,0.0,0.0,0.0,0.0,0.0,0.0,0.009,0.018,0.0314,0.0583,0.0852,0.1211,0.157,0.193,0.2512,0.2871,0.3006,0.3403,0.3268,0.2946,0.3088,0.3256,0.3297,0.3561,0.3704,0.3776,0.4019,0.4311,0.4584,0.4698,0.4965,0.5354,0.5473,0.5709,0.6022,0.606,0.6177,0.6296,0.63,0.6374,0.6412,0.6412,0.6451,0.6525,0.6563,0.6486,0.6335,0.63,0.6335,0.6412,0.6412,0.6451,0.6525,0.6563,0.6602,0.6714,0.6791,0.6907,0.7019,0.713,0.7369,0.7565,0.7642,0.7868,0.8127,0.8441,0.8637,0.8822,0.9316,1.0046,1.0775,1.1129,1.1429,1.1825,1.2329,1.2782,1.316,1.3383,1.3541,1.3851,1.3864,1.3955,1.4046,1.4046,1.4088,1.4088,1.4088,1.4088,1.4088,1.4055,1.3801,1.3527,1.3327,1.3053,1.2599,1.2409,1.2395,1.2342,1.2342,1.2342,1.2342,1.2378,1.2452,1.2526,1.2698,1.3173,1.3689,1.4245,1.4988,1.5917,1.6671,1.7405,0.0,0.0,0.0,0.0,0.0,0.0,0.0,0.0,0.0,0.0135,0.0359,0.0404,0.0762,0.1436,0.1705,0.211,0.2603,0.3274,0.3676,0.3989,0.4391,0.4505,0.4045,0.4029,0.4204,0.4336,0.4401,0.4534,0.4643,0.476,0.4987,0.5174,0.5282,0.5515,0.5744,0.5902,0.606,0.6219,0.6296,0.6335,0.6374,0.6412,0.6525,0.6602,0.6679,0.6795,0.6903,0.6942,0.6826,0.6454,0.6377,0.649,0.6641,0.6641,0.6753,0.6865,0.6942,0.698,0.7057,0.7215,0.7334,0.7446,0.7706,0.7978,0.8212,0.8408,0.8589,0.8856,0.9203,0.9397,0.963,1.0051,1.0743,1.1482,1.1837,1.2118,1.2369,1.2933,1.3408,1.3619,1.39,1.4055,1.4088,1.4088,1.4088,1.4088,1.4088,1.4088,1.4088,1.4088,1.4088,1.4088,1.4035,1.3961,1.3687,1.3434,1.312,1.2811,1.262,1.2513,1.2435,1.2415,1.2372,1.2445,1.2636,1.2709,1.2746,1.3063,1.3538,1.402,1.4585,1.5568,1.6596,1.7218,1.7891,0.0,0.0,0.0,0.0,0.0,0.0,0.0,0.0,0.0,0.0135,0.0404,0.0538,0.0942,0.148,0.2109,0.2602,0.3138,0.3853,0.4433,0.506,0.5549,0.5727,0.5458,0.5242,0.5153,0.53,0.5459,0.5457,0.5398,0.5488,0.5574,0.5575,0.5715,0.5825,0.5899,0.6138,0.6219,0.6335,0.6451,0.6567,0.6602,0.6676,0.6791,0.6903,0.7026,0.718,0.733,0.7369,0.733,0.7176,0.6984,0.6907,0.6907,0.7026,0.7142,0.7215,0.733,0.7442,0.7633,0.7787,0.7983,0.8136,0.836,0.8665,0.9013,0.9094,0.9279,0.9582,0.9879,1.0186,1.0634,1.1202,1.1609,1.2079,1.2566,1.2964,1.3103,1.3316,1.3665,1.3886,1.4028,1.4088,1.4088,1.4088,1.4088,1.4088,1.4088,1.4088,1.4088,1.4088,1.4088,1.4088,1.4062,1.3995,1.3828,1.3601,1.3339,1.3187,1.3002,1.2979,1.2893,1.2827,1.2936,1.2954,1.2973,1.3039,1.3149,1.3433,1.3918,1.441,1.4948,1.5765,1.6622,1.7462,1.8232,0.0,0.0,0.0,0.0,0.0,0.0,0.0,0.0,0.0,0.0224,0.0538,0.0807,0.1256,0.1974,0.269,0.3272,0.3807,0.4565,0.5277,0.5811,0.6124,0.6302,0.6393,0.6169,0.6039,0.6019,0.6045,0.6017,0.6031,0.6022,0.5996,0.6002,0.6061,0.6064,0.6096,0.6331,0.6409,0.6486,0.6637,0.6791,0.6911,0.6988,0.7253,0.7442,0.7638,0.7868,0.8055,0.8055,0.8055,0.8016,0.7863,0.7591,0.7399,0.7522,0.7642,0.7795,0.7944,0.8093,0.8246,0.8479,0.8708,0.8822,0.9089,0.9387,0.9652,0.9803,0.9992,1.0293,1.0599,1.1004,1.1564,1.1789,1.2176,1.2665,1.3037,1.3359,1.3649,1.3771,1.3895,1.4048,1.4075,1.4088,1.4088,1.4088,1.4088,1.4088,1.4088,1.4088,1.4088,1.4088,1.4088,1.4088,1.4088,1.4028,1.395,1.3769,1.3621,1.3548,1.3525,1.3628,1.3717,1.371,1.3685,1.3592,1.3521,1.3593,1.3702,1.4023,1.439,1.4993,1.5559,1.6026,1.6703,1.767,1.8332,0.0,0.0,0.0,0.0,0.0,0.0,0.0,0.0,0.0,0.0269,0.0673,0.0987,0.157,0.2469,0.3229,0.3855,0.4654,0.5411,0.6121,0.6387,0.6476,0.6653,0.6748,0.6745,0.665,0.6505,0.6468,0.6519,0.6505,0.6443,0.6373,0.6455,0.6366,0.6361,0.6418,0.6532,0.6641,0.6718,0.6945,0.7176,0.7334,0.7411,0.7718,0.8212,0.8403,0.8632,0.8818,0.8889,0.8889,0.8889,0.8894,0.8623,0.8322,0.8174,0.8331,0.8518,0.8742,0.8894,0.897,0.9203,0.943,0.9473,0.9809,1.0143,1.0368,1.0513,1.07,1.0986,1.1284,1.1715,1.2158,1.2427,1.2738,1.317,1.3367,1.3662,1.3966,1.4088,1.4075,1.4075,1.4088,1.4088,1.4088,1.4088,1.4088,1.4088,1.4088,1.4075,1.4117,1.4124,1.4124,1.4088,1.4088,1.4159,1.4094,1.4192,1.4035,1.4076,1.4052,1.4308,1.453,1.4637,1.4577,1.4201,1.4088,1.4269,1.446,1.4725,1.515,1.5678,1.5968,1.6268,1.6982,1.7891,1.8441,0.0,0.0,0.0,0.0,0.0,0.0,0.0,0.0,0.0,0.0,0.0718,0.1031,0.1615,0.2513,0.3275,0.4255,0.5322,0.6166,0.6567,0.6745,0.683,0.701,0.701,0.701,0.6962,0.7007,0.6919,0.6863,0.683,0.6783,0.6666,0.6647,0.6552,0.6564,0.6644,0.6681,0.6856,0.713,0.7342,0.7599,0.7906,0.8178,0.8479,0.9013,0.9165,0.9354,0.9614,0.969,0.969,0.9728,0.9728,0.9609,0.9501,0.9279,0.9208,0.9246,0.9463,0.9652,0.9728,0.9916,1.0105,1.0293,1.0513,1.0824,1.1086,1.1248,1.1409,1.1652,1.2005,1.235,1.2472,1.2916,1.3305,1.3605,1.3765,1.3959,1.4068,1.4088,1.4124,1.4124,1.4124,1.4088,1.4088,1.4088,1.4088,1.4088,1.4088,1.4077,1.4072,1.4112,1.411,1.4117,1.4088,1.4201,1.4287,1.4511,1.4545,1.4674,1.475,1.5006,1.5271,1.5567,1.5493,1.5483,1.5359,1.545,1.5584,1.5607,1.5852,1.6266,1.6394,1.6457,1.7135,1.7825,1.8331,0.0,0.0,0.0,0.0,0.0,0.0,0.0,0.0,0.0,0.0269,0.0718,0.1122,0.1793,0.2735,0.363,0.4743,0.5897,0.6523,0.6836,0.6966,0.7051,0.7095,0.7095,0.7095,0.7095,0.7095,0.7092,0.7068,0.6991,0.691,0.6852,0.6849,0.6788,0.6879,0.7005,0.7168,0.7285,0.7579,0.7812,0.8174,0.8589,0.8932,0.9387,0.969,0.9879,1.0067,1.0293,1.0475,1.0513,1.0519,1.0519,1.0513,1.0481,1.0406,1.0218,1.0073,1.0218,1.04,1.0519,1.07,1.085,1.0962,1.1149,1.1415,1.174,1.1923,1.2106,1.2414,1.2628,1.2909,1.3074,1.3413,1.364,1.3861,1.4001,1.4068,1.4088,1.4088,1.4166,1.4201,1.4208,1.4173,1.4088,1.4088,1.4088,1.4088,1.413,1.4092,1.4081,1.4157,1.4204,1.4302,1.4351,1.4615,1.4768,1.497,1.5247,1.5424,1.5556,1.5813,1.6222,1.6607,1.7041,1.7271,1.7098,1.6747,1.6635,1.6671,1.6794,1.6838,1.6916,1.702,1.7283,1.7741,1.8252,0.0,0.0,0.0,0.0,0.0,0.0,0.0,0.0,0.0,0.0314,0.0762,0.1256,0.2017,0.3001,0.4117,0.5277,0.6428,0.67,0.6922,0.7051,0.7095,0.7095,0.7095,0.7095,0.7095,0.7095,0.7095,0.7095,0.7065,0.6994,0.694,0.6972,0.707,0.7159,0.7251,0.757,0.7829,0.8111,0.8368,0.8799,0.9316,0.9803,1.0218,1.0443,1.0594,1.0775,1.0962,1.1111,1.1149,1.1186,1.1192,1.1223,1.126,1.1372,1.126,1.0931,1.0925,1.1074,1.1186,1.1335,1.1409,1.1484,1.1733,1.1998,1.2273,1.2498,1.2752,1.3127,1.3247,1.332,1.3446,1.3653,1.38,1.3981,1.4068,1.413,1.4166,1.4208,1.4321,1.4328,1.4292,1.4334,1.437,1.4328,1.437,1.437,1.4363,1.4206,1.4207,1.4345,1.4448,1.4564,1.4723,1.5025,1.5276,1.5519,1.5933,1.6291,1.6481,1.6709,1.7283,1.7831,1.8169,1.8391,1.8383,1.8069,1.7911,1.7687,1.7606,1.7546,1.749,1.7499,1.7574,1.7846,1.8302,0.0,0.0,0.0,0.0,0.0,0.0,0.0,0.0,0.0224,0.0493,0.0762,0.1436,0.2152,0.3224,0.4783,0.5808,0.6387,0.683,0.7054,0.7095,0.7095,0.7095,0.7095,0.7095,0.7095,0.7095,0.7095,0.7095,0.7088,0.7065,0.7058,0.7112,0.7232,0.7364,0.76,0.7994,0.8235,0.8586,0.8996,0.9576,1.017,1.055,1.0887,1.1111,1.126,1.1372,1.1484,1.1595,1.1632,1.1632,1.1632,1.1632,1.1632,1.1632,1.1744,1.1744,1.1706,1.1595,1.1626,1.1669,1.1744,1.1906,1.218,1.2457,1.2738,1.2975,1.32,1.316,1.3434,1.356,1.368,1.3881,1.4015,1.4097,1.4124,1.4243,1.4321,1.4496,1.4573,1.4783,1.4831,1.4824,1.4824,1.4734,1.4608,1.4608,1.4608,1.4468,1.4375,1.4488,1.4861,1.5028,1.5235,1.5576,1.5982,1.6188,1.6599,1.7106,1.7383,1.7627,1.8072,1.8554,1.8873,1.9073,1.9153,1.9187,1.8956,1.8648,1.8412,1.8284,1.8249,1.8005,1.7739,1.807,1.842,0.0,0.0,0.0,0.0,0.0,0.0,0.0,0.0,0.0269,0.0493,0.0807,0.148,0.2466,0.376,0.5186,0.5941,0.6432,0.6874,0.7095,0.7095,0.7095,0.7095,0.7095,0.7095,0.7095,0.7095,0.7095,0.7095,0.7095,0.7095,0.7095,0.7173,0.7435,0.7744,0.797,0.8514,0.8901,0.9337,0.9826,1.0379,1.0802,1.1155,1.1416,1.1564,1.1682,1.1787,1.1868,1.2009,1.2046,1.204,1.204,1.204,1.204,1.204,1.2077,1.2114,1.2077,1.204,1.204,1.2046,1.2083,1.2186,1.2492,1.2815,1.3186,1.3494,1.3681,1.3721,1.3814,1.3874,1.3881,1.4008,1.4132,1.4201,1.4286,1.4405,1.4573,1.4741,1.4908,1.5166,1.5416,1.5533,1.5567,1.5436,1.5304,1.5164,1.5005,1.4786,1.4677,1.4669,1.5129,1.5663,1.5868,1.6121,1.6586,1.6976,1.7294,1.7749,1.8103,1.8345,1.8745,1.9143,1.9429,1.9666,1.9808,1.984,1.9803,1.9497,1.9115,1.9025,1.8998,1.8631,1.8292,1.8298,1.8689,0.0,0.0,0.0,0.0,0.0,0.0,0.0,0.0,0.0314,0.0493,0.0897,0.1704,0.2957,0.4253,0.523,0.5941,0.6428,0.6874,0.7051,0.7095,0.7095,0.7095,0.7095,0.7095,0.7095,0.7095,0.7095,0.7095,0.7095,0.7095,0.7095,0.7139,0.7617,0.7925,0.8337,0.894,0.9512,1.0148,1.0763,1.1247,1.1548,1.1853,1.2037,1.2111,1.2128,1.2188,1.2219,1.2207,1.2268,1.2268,1.2268,1.2231,1.2268,1.2231,1.2231,1.2268,1.2231,1.2268,1.2231,1.2274,1.2338,1.2498,1.2792,1.3247,1.3613,1.3981,1.4159,1.4134,1.4154,1.4181,1.425,1.4286,1.437,1.4447,1.4531,1.4692,1.4901,1.5242,1.5575,1.5906,1.6196,1.6525,1.6476,1.6312,1.6083,1.5764,1.5475,1.5162,1.5057,1.5023,1.5391,1.6034,1.6474,1.6723,1.7183,1.7622,1.8026,1.8393,1.8705,1.9024,1.9341,1.9587,1.9872,2.0108,2.0303,2.0323,2.0198,2.0024,1.984,1.9597,1.9399,1.9192,1.8958,1.888,1.8968,0.0,0.0,0.0,0.0,0.0,0.0,0.0,0.0,0.0269,0.0538,0.0987,0.2151,0.327,0.4342,0.523,0.5941,0.6428,0.6874,0.7051,0.7095,0.7095,0.7095,0.7095,0.7095,0.7095,0.7095,0.7095,0.7095,0.7139,0.7187,0.7139,0.7187,0.768,0.794,0.85,0.9291,1.0203,1.091,1.1566,1.2043,1.2319,1.2622,1.2824,1.2902,1.2859,1.275,1.273,1.2478,1.2318,1.2318,1.2305,1.2305,1.2305,1.2305,1.2305,1.2305,1.2305,1.2305,1.2305,1.2325,1.2465,1.2817,1.318,1.3594,1.397,1.4028,1.4166,1.4363,1.4363,1.4489,1.4573,1.4657,1.4664,1.4824,1.4992,1.5242,1.5492,1.5914,1.6245,1.6607,1.6935,1.7261,1.7505,1.7326,1.7009,1.669,1.6182,1.5841,1.5702,1.5647,1.5868,1.6329,1.6907,1.7355,1.7722,1.8145,1.8549,1.8979,1.9311,1.9548,1.9784,2.0029,2.0225,2.0303,2.042,2.0537,2.0605,2.0372,2.0158,1.9972,1.9795,1.9629,1.9492,1.9368,1.9465,0.0,0.0,0.0,0.0,0.0,0.0,0.0,0.0,0.0314,0.0807,0.1391,0.2465,0.3403,0.434,0.5275,0.5941,0.6432,0.6918,0.7051,0.7095,0.7095,0.7095,0.7095,0.7095,0.7095,0.7095,0.7095,0.7095,0.7139,0.7231,0.7323,0.7503,0.7768,0.8208,0.8775,0.9806,1.0851,1.1587,1.2128,1.2519,1.2737,1.2969,1.3134,1.3186,1.3146,1.2958,1.2804,1.2683,1.2478,1.2351,1.2318,1.2305,1.2305,1.2305,1.2305,1.2305,1.2305,1.2305,1.2318,1.2345,1.2518,1.3006,1.3414,1.3809,1.4252,1.4279,1.4405,1.4524,1.465,1.4776,1.4908,1.4957,1.5041,1.5284,1.5533,1.5782,1.6113,1.6533,1.6943,1.7302,1.7659,1.8063,1.8264,1.8425,1.8031,1.7634,1.7035,1.6543,1.6393,1.6261,1.6442,1.6658,1.7225,1.7828,1.8224,1.8634,1.9056,1.9457,1.9872,1.999,2.0137,2.0303,2.0459,2.0537,2.0537,2.0576,2.0615,2.0615,2.0488,2.0264,2.0185,2.0127,2.001,1.9873,1.9922,0.0045,0.0,0.0,0.0,0.0,0.0,0.0,0.0,0.018,0.0762,0.1615,0.242,0.3272,0.4164,0.5053,0.5808,0.6299,0.6745,0.6966,0.7098,0.7095,0.7095,0.7095,0.7095,0.7095,0.7095,0.7095,0.7095,0.7139,0.737,0.7591,0.7764,0.8028,0.8516,0.9213,1.0414,1.154,1.214,1.2623,1.2905,1.317,1.3372,1.3467,1.348,1.3414,1.3273,1.3046,1.2904,1.2677,1.2516,1.2378,1.2318,1.2305,1.2305,1.2305,1.2305,1.2305,1.2305,1.2331,1.2545,1.2831,1.3406,1.373,1.411,1.4462,1.4608,1.4783,1.5026,1.511,1.52,1.5458,1.5616,1.5741,1.6031,1.6237,1.6484,1.6771,1.7147,1.7546,1.7951,1.8353,1.8745,1.8984,1.9125,1.8748,1.8386,1.7991,1.7468,1.7105,1.7009,1.7008,1.7205,1.7522,1.8137,1.8714,1.9061,1.939,1.9837,2.0147,2.0294,2.0411,2.0566,2.0615,2.0576,2.0576,2.0615,2.0615,2.0615,2.0615,2.0586,2.0498,2.04,2.037,2.0195,2.0176,0.0224,0.0,0.0,0.0,0.0,0.0,0.0,0.0,0.009,0.0494,0.1256,0.2109,0.2917,0.3765,0.4699,0.55,0.6171,0.6615,0.6925,0.7054,0.7095,0.7095,0.7095,0.7095,0.7095,0.7095,0.7095,0.7095,0.7143,0.7499,0.7764,0.8245,0.8688,0.9126,0.9471,1.0901,1.2009,1.2644,1.3099,1.34,1.362,1.3851,1.3928,1.3874,1.3741,1.3594,1.3394,1.3106,1.2904,1.2697,1.2509,1.2378,1.2305,1.2305,1.2305,1.2305,1.2305,1.2318,1.2365,1.2872,1.3352,1.3804,1.4118,1.458,1.4943,1.5131,1.5284,1.5609,1.5865,1.6113,1.636,1.6517,1.6607,1.6771,1.7017,1.7221,1.7465,1.787,1.8273,1.8554,1.8984,1.9381,1.9657,1.9777,1.9412,1.9079,1.8788,1.8385,1.7944,1.7645,1.7595,1.7675,1.7885,1.8332,1.8879,1.9325,1.9717,2.0159,2.0381,2.0489,2.0527,2.0566,2.0615,2.0615,2.0615,2.0615,2.0615,2.0615,2.0615,2.0615,2.0615,2.0556,2.0556,2.0527,2.0458,0.0359,0.0269,0.009,0.0,0.0,0.0,0.0,0.0,0.0224,0.0583,0.1166,0.1974,0.2826,0.3674,0.452,0.5369,0.6083,0.6571,0.6925,0.7051,0.7095,0.7095,0.7095,0.7095,0.7095,0.7095,0.7095,0.7187,0.737,0.772,0.8069,0.8552,0.951,1.0115,1.0636,1.1585,1.2448,1.2918,1.3343,1.373,1.3955,1.4039,1.4088,1.4088,1.3968,1.3841,1.364,1.3367,1.3146,1.2904,1.269,1.2576,1.2405,1.2365,1.2351,1.2331,1.2331,1.2587,1.2905,1.3382,1.3546,1.4062,1.4545,1.5019,1.545,1.5665,1.5948,1.6278,1.6599,1.6804,1.7017,1.7253,1.7375,1.7587,1.7789,1.7951,1.8193,1.8625,1.9024,1.9143,1.946,1.9775,2.0059,2.0177,1.9916,1.9725,1.9467,1.9182,1.8751,1.8332,1.8145,1.8161,1.8344,1.8656,1.9037,1.9482,1.9936,2.0333,2.0498,2.0537,2.0576,2.0615,2.0615,2.0615,2.0615,2.0615,2.0615,2.0615,2.0615,2.0615,2.0615,2.0615,2.0595,2.0586,2.0566,0.0628,0.0359,0.0224,0.009,0.0,0.0,0.0,0.0,0.0269,0.0628,0.1076,0.175,0.2512,0.3405,0.4297,0.5146,0.5861,0.6435,0.6792,0.6962,0.7095,0.7095,0.7095,0.7095,0.7095,0.7095,0.7139,0.7231,0.7507,0.7984,0.8636,0.9462,1.0414,1.1111,1.1628,1.2277,1.2747,1.3222,1.361,1.3822,1.3997,1.4088,1.4088,1.4088,1.4048,1.3995,1.3786,1.3613,1.3474,1.3133,1.2971,1.2857,1.2659,1.2612,1.2612,1.2619,1.262,1.2952,1.3442,1.381,1.4113,1.4678,1.5099,1.5519,1.5982,1.6368,1.6689,1.7017,1.7294,1.7497,1.7749,1.7942,1.8193,1.8393,1.8514,1.8634,1.8843,1.9271,1.9469,1.9627,1.9784,2.0098,2.0333,2.0411,2.0411,2.0275,2.0111,1.9822,1.9526,1.9112,1.872,1.8708,1.8783,1.9061,1.935,1.9642,2.0079,2.0508,2.0615,2.0615,2.0615,2.0615,2.0615,2.0615,2.0615,2.0615,2.0615,2.0615,2.0615,2.0615,2.0615,2.0615,2.0615,2.0615,2.0615,0.1031,0.0448,0.0404,0.0224,0.0,0.0,0.0,0.0,0.0269,0.0493,0.0762,0.148,0.2198,0.2957,0.3851,0.4701,0.546,0.6121,0.6523,0.6789,0.7007,0.7051,0.7095,0.7095,0.7095,0.7095,0.7143,0.7279,0.7551,0.8248,0.92,1.0328,1.1154,1.1843,1.2363,1.2747,1.313,1.3519,1.3737,1.3906,1.4039,1.4088,1.4088,1.4088,1.4075,1.4068,1.3955,1.3828,1.3646,1.346,1.3353,1.3247,1.3193,1.32,1.32,1.3146,1.3065,1.3447,1.3968,1.4327,1.4896,1.5465,1.5771,1.6154,1.6648,1.7139,1.7538,1.7829,1.8103,1.8313,1.8474,1.8714,1.8962,1.9073,1.9152,1.9311,1.9478,1.9676,1.9872,2.0029,2.0186,2.0381,2.0498,2.0615,2.0615,2.0537,2.0372,2.0275,1.9965,1.9753,1.9428,1.9234,1.9338,1.9455,1.9717,1.9922,2.0166,2.0595,2.0605,2.0615,2.0615,2.0615,2.0615,2.0615,2.0615,2.0615,2.0615,2.0615,2.0615,2.0615,2.0615,2.0615,2.0615,2.0615,2.0615,0.1391,0.0852,0.0538,0.0269,0.0,0.0,0.0,0.0,0.009,0.0314,0.0718,0.1122,0.1839,0.2647,0.3452,0.4297,0.5102,0.5813,0.639,0.67,0.6966,0.7051,0.7095,0.7095,0.7095,0.7095,0.7187,0.7367,0.794,0.8596,0.9637,1.0809,1.1542,1.2235,1.2833,1.3264,1.3476,1.3695,1.387,1.3997,1.4039,1.4088,1.4088,1.4088,1.4088,1.4088,1.4035,1.3995,1.3861,1.3606,1.354,1.342,1.3213,1.3206,1.3239,1.3377,1.3473,1.3741,1.4495,1.4798,1.5325,1.6269,1.6673,1.7017,1.7465,1.7942,1.8345,1.8594,1.8873,1.9033,1.9152,1.935,1.9518,1.9597,1.9666,1.9784,1.9912,2.0029,2.0186,2.0225,2.0381,2.0459,2.0576,2.0615,2.0615,2.0615,2.0576,2.0498,2.039,2.0146,2.0,1.9795,1.9756,1.9863,1.9971,2.0156,2.039,2.0586,2.0595,2.0615,2.0615,2.0615,2.0615,2.0615,2.0615,2.0615,2.0615,2.0615,2.0615,2.0615,2.0615,2.0615,2.0615,2.0615,2.0615,0.1838,0.1211,0.0807,0.0449,0.0,0.0,0.0,0.0,0.0,0.0224,0.0628,0.0942,0.157,0.2423,0.3274,0.4076,0.4924,0.5725,0.6302,0.6609,0.6962,0.7051,0.7095,0.7095,0.7095,0.7095,0.7183,0.7363,0.8116,0.9165,1.025,1.1068,1.1714,1.2448,1.3052,1.3398,1.361,1.3828,1.3997,1.4088,1.4088,1.4088,1.4088,1.4088,1.4088,1.4088,1.4088,1.4088,1.3975,1.3834,1.3821,1.3754,1.3608,1.3649,1.3885,1.4081,1.4156,1.4604,1.526,1.5509,1.6146,1.6855,1.7505,1.7942,1.8304,1.8696,1.8944,1.9201,1.9478,1.9715,1.9833,1.9912,1.999,2.0069,2.0098,2.0177,2.0255,2.0333,2.0381,2.042,2.0498,2.0576,2.0615,2.0615,2.0615,2.0615,2.0615,2.0586,2.0517,2.0381,2.0303,2.0233,2.0214,2.0215,2.0341,2.037,2.0488,2.0595,2.0605,2.0615,2.0615,2.0615,2.0615,2.0615,2.0615,2.0615,2.0615,2.0615,2.0615,2.0615,2.0615,2.0615,2.0615,2.0615,2.0615,0.2376,0.148,0.1211,0.0673,0.009,0.0,0.0,0.0,0.0,0.018,0.0448,0.0852,0.1436,0.2243,0.305,0.39,0.4746,0.5591,0.6166,0.6428,0.6918,0.7095,0.7095,0.7095,0.7095,0.7095,0.7228,0.7452,0.8201,0.9253,1.0381,1.1278,1.1811,1.2503,1.327,1.344,1.3695,1.3997,1.4046,1.4088,1.4088,1.4088,1.4088,1.4088,1.4088,1.4088,1.4088,1.4088,1.4088,1.4082,1.4068,1.4041,1.4134,1.4281,1.4615,1.4905,1.4957,1.5497,1.5988,1.6299,1.6855,1.7518,1.8193,1.8594,1.8953,1.9222,1.9429,1.9676,1.9912,2.0069,2.0147,2.0186,2.0264,2.0342,2.0372,2.0411,2.045,2.0498,2.0498,2.0537,2.0537,2.0615,2.0615,2.0615,2.0615,2.0615,2.0615,2.0615,2.0595,2.0546,2.0527,2.0507,2.0478,2.0439,2.0488,2.0527,2.0556,2.0605,2.0615,2.0615,2.0615,2.0615,2.0615,2.0615,2.0615,2.0615,2.0615,2.0615,2.0615,2.0615,2.0615,2.0615,2.0615,2.0615,2.0615,0.2959,0.215,0.1434,0.0762,0.0359,0.0314,0.018,0.0,0.0,0.0,0.0404,0.0718,0.1211,0.1974,0.2734,0.3583,0.4478,0.5413,0.5988,0.6432,0.6874,0.7095,0.7095,0.7095,0.7095,0.7095,0.7228,0.758,0.8416,0.9423,1.0424,1.1241,1.1849,1.2583,1.3355,1.3476,1.3737,1.4088,1.4088,1.4088,1.4088,1.4088,1.4088,1.4088,1.4088,1.4088,1.4088,1.4088,1.4088,1.4082,1.4088,1.4159,1.4307,1.4699,1.5117,1.547,1.5782,1.6291,1.6822,1.7155,1.7575,1.8083,1.8634,1.9042,1.9399,1.9627,1.9863,2.0108,2.0264,2.0342,2.042,2.0459,2.0537,2.0527,2.0566,2.0566,2.0615,2.0615,2.0615,2.0615,2.0615,2.0615,2.0615,2.0615,2.0615,2.0615,2.0615,2.0615,2.0615,2.0586,2.0576,2.0566,2.0576,2.0576,2.0615,2.0615,2.0615,2.0615,2.0615,2.0615,2.0615,2.0615,2.0615,2.0615,2.0615,2.0615,2.0615,2.0615,2.0615,2.0615,2.0615,2.0615,2.0615,2.0615,2.0615,0.3496,0.2688,0.1659,0.1031,0.0718,0.0493,0.0314,0.018,0.0045,0.018,0.0404,0.0628,0.1031,0.1749,0.2509,0.3403,0.4342,0.5275,0.5897,0.6432,0.683,0.7051,0.7095,0.7095,0.7095,0.7139,0.7408,0.7893,0.8548,0.9336,1.0207,1.1025,1.1757,1.2491,1.3179,1.3483,1.3743,1.4082,1.4088,1.4088,1.4088,1.4088,1.4088,1.4088,1.4088,1.4088,1.4088,1.4088,1.4088,1.4124,1.4208,1.4531,1.4817,1.5193,1.5692,1.6188,1.6591,1.7025,1.7595,1.8,1.8193,1.8674,1.9042,1.9448,1.9833,2.0069,2.0137,2.0342,2.042,2.0537,2.0537,2.0576,2.0576,2.0566,2.0566,2.0605,2.0615,2.0615,2.0615,2.0615,2.0615,2.0615,2.0615,2.0615,2.0615,2.0615,2.0615,2.0615,2.0615,2.0615,2.0615,2.0615,2.0615,2.0615,2.0615,2.0615,2.0615,2.0615,2.0654,2.0605,2.0605,2.0605,2.0615,2.0615,2.0615,2.0615,2.0615,2.0615,2.0615,2.0615,2.0615,2.0615,2.0615,2.0615,2.0615,0.3987,0.3136,0.2062,0.148,0.1166,0.0718,0.0538,0.0448,0.0224,0.0224,0.0493,0.0718,0.1031,0.1659,0.2465,0.3405,0.4342,0.5275,0.5897,0.6428,0.6874,0.7051,0.7095,0.7095,0.7095,0.7275,0.7544,0.7848,0.8285,0.9117,0.9951,1.0636,1.137,1.2192,1.2881,1.3313,1.3616,1.3955,1.4088,1.4088,1.4088,1.4088,1.4088,1.4088,1.4088,1.4088,1.4088,1.4088,1.4088,1.425,1.437,1.4817,1.536,1.5775,1.6394,1.6927,1.7416,1.7861,1.8393,1.8674,1.8944,1.9311,1.9557,1.9843,2.0186,2.0342,2.0459,2.0498,2.0576,2.0615,2.0615,2.0615,2.0615,2.0615,2.0615,2.0615,2.0615,2.0615,2.0615,2.0615,2.0615,2.0615,2.0615,2.0615,2.0615,2.0615,2.0615,2.0615,2.0615,2.0615,2.0615,2.0615,2.0615,2.0615,2.0605,2.0654,2.0693,2.0731,2.077,2.0683,2.0644,2.0693,2.0693,2.0615,2.0615,2.0615,2.0615,2.0615,2.0615,2.0615,2.0615,2.0615,2.0615,2.0615,2.0615,0.4523,0.3451,0.2869,0.2377,0.1929,0.1436,0.1121,0.0942,0.0673,0.0583,0.0718,0.1076,0.1436,0.1795,0.251,0.3449,0.4389,0.5319,0.5941,0.6432,0.6874,0.7051,0.7095,0.7095,0.7095,0.7275,0.7499,0.7808,0.8201,0.8947,0.9772,1.0549,1.1327,1.2106,1.2966,1.3313,1.3616,1.3955,1.4088,1.4088,1.4088,1.4088,1.4088,1.4088,1.4088,1.4088,1.4088,1.4088,1.4088,1.425,1.4622,1.5117,1.5733,1.6353,1.7009,1.7578,1.8063,1.8585,1.8984,1.9271,1.9548,1.9706,1.9951,2.0108,2.0381,2.0459,2.0527,2.0537,2.0615,2.0615,2.0615,2.0615,2.0615,2.0615,2.0615,2.0615,2.0615,2.0615,2.0615,2.0615,2.0615,2.0615,2.0615,2.0615,2.0615,2.0615,2.0615,2.0615,2.0615,2.0615,2.0615,2.0615,2.0615,2.0605,2.0605,2.078,2.0819,2.0896,2.0935,2.0964,2.0925,2.0858,2.078,2.0693,2.0615,2.0615,2.0615,2.0615,2.0615,2.0615,2.0615,2.0615,2.0615,2.0615,2.0615]}]]